<?xml version="1.0" encoding="UTF-8" standalone="no" ?>
<gpx xmlns="http://www.topografix.com/GPX/1/1" xmlns:xsi="http://www.w3.org/2001/XMLSchema-instance" xsi:schemaLocation="http://www.topografix.com/GPX/1/1 http://www.topografix.com/GPX/1/1/gpx.xsd" version="1.1" creator="VisuGPX - https://www.visugpx.com">
  <metadata>
    <name>St Georges, Auberge du Roy, Cascades de Gumières</name>
    <desc><![CDATA[Une très belle montée régulière et une grande descente avec des passages techniques. ]]></desc>
  </metadata>
  <trk>
    <name><![CDATA[St Georges-Auberge du Roy-Cascades Gumières]]></name>
    <trkseg>
      <trkpt lat="45.54672" lon="4.08639">
        <ele>515</ele>
        <time>2014-04-27T07:34:55Z</time>
      </trkpt>
      <trkpt lat="45.54665" lon="4.08665">
        <ele>514.6</ele>
        <time>2014-04-27T07:39:57Z</time>
      </trkpt>
      <trkpt lat="45.54653" lon="4.08653">
        <ele>516.4</ele>
        <time>2014-04-27T07:40:11Z</time>
      </trkpt>
      <trkpt lat="45.54646" lon="4.08639">
        <ele>516.8</ele>
        <time>2014-04-27T07:40:18Z</time>
      </trkpt>
      <trkpt lat="45.54642" lon="4.08624">
        <ele>517.7</ele>
        <time>2014-04-27T07:40:25Z</time>
      </trkpt>
      <trkpt lat="45.54636" lon="4.08608">
        <ele>518.1</ele>
        <time>2014-04-27T07:40:32Z</time>
      </trkpt>
      <trkpt lat="45.5463" lon="4.08593">
        <ele>519.2</ele>
        <time>2014-04-27T07:40:39Z</time>
      </trkpt>
      <trkpt lat="45.54625" lon="4.08579">
        <ele>520.3</ele>
        <time>2014-04-27T07:40:45Z</time>
      </trkpt>
      <trkpt lat="45.54621" lon="4.08564">
        <ele>521.5</ele>
        <time>2014-04-27T07:40:51Z</time>
      </trkpt>
      <trkpt lat="45.54616" lon="4.0855">
        <ele>522.8</ele>
        <time>2014-04-27T07:40:58Z</time>
      </trkpt>
      <trkpt lat="45.5461" lon="4.08535">
        <ele>523.9</ele>
        <time>2014-04-27T07:41:04Z</time>
      </trkpt>
      <trkpt lat="45.54605" lon="4.0852">
        <ele>524.9</ele>
        <time>2014-04-27T07:41:11Z</time>
      </trkpt>
      <trkpt lat="45.546" lon="4.08505">
        <ele>525.5</ele>
        <time>2014-04-27T07:41:17Z</time>
      </trkpt>
      <trkpt lat="45.54596" lon="4.08489">
        <ele>526.3</ele>
        <time>2014-04-27T07:41:22Z</time>
      </trkpt>
      <trkpt lat="45.54591" lon="4.08475">
        <ele>526.9</ele>
        <time>2014-04-27T07:41:27Z</time>
      </trkpt>
      <trkpt lat="45.54588" lon="4.0846">
        <ele>527.5</ele>
        <time>2014-04-27T07:41:32Z</time>
      </trkpt>
      <trkpt lat="45.54584" lon="4.08445">
        <ele>527.9</ele>
        <time>2014-04-27T07:41:37Z</time>
      </trkpt>
      <trkpt lat="45.54581" lon="4.0843">
        <ele>528</ele>
        <time>2014-04-27T07:41:42Z</time>
      </trkpt>
      <trkpt lat="45.54578" lon="4.08415">
        <ele>528.5</ele>
        <time>2014-04-27T07:41:47Z</time>
      </trkpt>
      <trkpt lat="45.54577" lon="4.084">
        <ele>529.1</ele>
        <time>2014-04-27T07:41:52Z</time>
      </trkpt>
      <trkpt lat="45.54576" lon="4.08385">
        <ele>529.6</ele>
        <time>2014-04-27T07:41:57Z</time>
      </trkpt>
      <trkpt lat="45.54573" lon="4.0837">
        <ele>530.3</ele>
        <time>2014-04-27T07:42:03Z</time>
      </trkpt>
      <trkpt lat="45.5457" lon="4.08354">
        <ele>530.8</ele>
        <time>2014-04-27T07:42:08Z</time>
      </trkpt>
      <trkpt lat="45.54566" lon="4.08338">
        <ele>531.5</ele>
        <time>2014-04-27T07:42:14Z</time>
      </trkpt>
      <trkpt lat="45.54562" lon="4.08323">
        <ele>531.6</ele>
        <time>2014-04-27T07:42:19Z</time>
      </trkpt>
      <trkpt lat="45.54558" lon="4.08309">
        <ele>532.8</ele>
        <time>2014-04-27T07:42:25Z</time>
      </trkpt>
      <trkpt lat="45.54554" lon="4.08293">
        <ele>533.7</ele>
        <time>2014-04-27T07:42:31Z</time>
      </trkpt>
      <trkpt lat="45.54549" lon="4.08277">
        <ele>534.4</ele>
        <time>2014-04-27T07:42:37Z</time>
      </trkpt>
      <trkpt lat="45.54545" lon="4.08262">
        <ele>535.7</ele>
        <time>2014-04-27T07:42:43Z</time>
      </trkpt>
      <trkpt lat="45.54542" lon="4.08248">
        <ele>536.7</ele>
        <time>2014-04-27T07:42:49Z</time>
      </trkpt>
      <trkpt lat="45.54537" lon="4.08232">
        <ele>538</ele>
        <time>2014-04-27T07:42:55Z</time>
      </trkpt>
      <trkpt lat="45.54526" lon="4.08221">
        <ele>539.3</ele>
        <time>2014-04-27T07:43:02Z</time>
      </trkpt>
      <trkpt lat="45.54514" lon="4.08211">
        <ele>540.6</ele>
        <time>2014-04-27T07:43:09Z</time>
      </trkpt>
      <trkpt lat="45.54502" lon="4.082">
        <ele>541.5</ele>
        <time>2014-04-27T07:43:16Z</time>
      </trkpt>
      <trkpt lat="45.54492" lon="4.08189">
        <ele>542.4</ele>
        <time>2014-04-27T07:43:24Z</time>
      </trkpt>
      <trkpt lat="45.54481" lon="4.08177">
        <ele>544.2</ele>
        <time>2014-04-27T07:43:32Z</time>
      </trkpt>
      <trkpt lat="45.54469" lon="4.08168">
        <ele>545.6</ele>
        <time>2014-04-27T07:43:40Z</time>
      </trkpt>
      <trkpt lat="45.54455" lon="4.08161">
        <ele>547.6</ele>
        <time>2014-04-27T07:43:48Z</time>
      </trkpt>
      <trkpt lat="45.5444" lon="4.08162">
        <ele>549.5</ele>
        <time>2014-04-27T07:43:57Z</time>
      </trkpt>
      <trkpt lat="45.54424" lon="4.08163">
        <ele>551.6</ele>
        <time>2014-04-27T07:44:06Z</time>
      </trkpt>
      <trkpt lat="45.54408" lon="4.08163">
        <ele>553.6</ele>
        <time>2014-04-27T07:44:14Z</time>
      </trkpt>
      <trkpt lat="45.54393" lon="4.08164">
        <ele>555.9</ele>
        <time>2014-04-27T07:44:22Z</time>
      </trkpt>
      <trkpt lat="45.54378" lon="4.08165">
        <ele>557.5</ele>
        <time>2014-04-27T07:44:30Z</time>
      </trkpt>
      <trkpt lat="45.54363" lon="4.08162">
        <ele>559.3</ele>
        <time>2014-04-27T07:44:37Z</time>
      </trkpt>
      <trkpt lat="45.54349" lon="4.08154">
        <ele>560.5</ele>
        <time>2014-04-27T07:44:45Z</time>
      </trkpt>
      <trkpt lat="45.54336" lon="4.08146">
        <ele>560.9</ele>
        <time>2014-04-27T07:44:53Z</time>
      </trkpt>
      <trkpt lat="45.54321" lon="4.08146">
        <ele>561.9</ele>
        <time>2014-04-27T07:45:01Z</time>
      </trkpt>
      <trkpt lat="45.54307" lon="4.08151">
        <ele>561.6</ele>
        <time>2014-04-27T07:45:08Z</time>
      </trkpt>
      <trkpt lat="45.54291" lon="4.08155">
        <ele>561</ele>
        <time>2014-04-27T07:45:13Z</time>
      </trkpt>
      <trkpt lat="45.54275" lon="4.08157">
        <ele>559.9</ele>
        <time>2014-04-27T07:45:18Z</time>
      </trkpt>
      <trkpt lat="45.54258" lon="4.08159">
        <ele>558.9</ele>
        <time>2014-04-27T07:45:23Z</time>
      </trkpt>
      <trkpt lat="45.54242" lon="4.08159">
        <ele>558.3</ele>
        <time>2014-04-27T07:45:29Z</time>
      </trkpt>
      <trkpt lat="45.54232" lon="4.08151">
        <ele>558.3</ele>
        <time>2014-04-27T07:45:34Z</time>
      </trkpt>
      <trkpt lat="45.5423" lon="4.08134">
        <ele>559</ele>
        <time>2014-04-27T07:45:40Z</time>
      </trkpt>
      <trkpt lat="45.54229" lon="4.08118">
        <ele>559.4</ele>
        <time>2014-04-27T07:45:47Z</time>
      </trkpt>
      <trkpt lat="45.54229" lon="4.08113">
        <ele>558.7</ele>
        <time>2014-04-27T07:46:00Z</time>
      </trkpt>
      <trkpt lat="45.54234" lon="4.08136">
        <ele>558</ele>
        <time>2014-04-27T07:46:10Z</time>
      </trkpt>
      <trkpt lat="45.54232" lon="4.08107">
        <ele>560.8</ele>
        <time>2014-04-27T07:48:41Z</time>
      </trkpt>
      <trkpt lat="45.54228" lon="4.08091">
        <ele>561.4</ele>
        <time>2014-04-27T07:48:46Z</time>
      </trkpt>
      <trkpt lat="45.54223" lon="4.08076">
        <ele>561.7</ele>
        <time>2014-04-27T07:48:52Z</time>
      </trkpt>
      <trkpt lat="45.54216" lon="4.08062">
        <ele>560</ele>
        <time>2014-04-27T07:48:58Z</time>
      </trkpt>
      <trkpt lat="45.5421" lon="4.08045">
        <ele>558.3</ele>
        <time>2014-04-27T07:49:02Z</time>
      </trkpt>
      <trkpt lat="45.54207" lon="4.08025">
        <ele>557.8</ele>
        <time>2014-04-27T07:49:06Z</time>
      </trkpt>
      <trkpt lat="45.54204" lon="4.08007">
        <ele>557</ele>
        <time>2014-04-27T07:49:08Z</time>
      </trkpt>
      <trkpt lat="45.54198" lon="4.07991">
        <ele>557</ele>
        <time>2014-04-27T07:49:10Z</time>
      </trkpt>
      <trkpt lat="45.5419" lon="4.07977">
        <ele>557</ele>
        <time>2014-04-27T07:49:13Z</time>
      </trkpt>
      <trkpt lat="45.54179" lon="4.07962">
        <ele>556.5</ele>
        <time>2014-04-27T07:49:15Z</time>
      </trkpt>
      <trkpt lat="45.54168" lon="4.07946">
        <ele>556.5</ele>
        <time>2014-04-27T07:49:18Z</time>
      </trkpt>
      <trkpt lat="45.54159" lon="4.07934">
        <ele>557.2</ele>
        <time>2014-04-27T07:49:21Z</time>
      </trkpt>
      <trkpt lat="45.5415" lon="4.07923">
        <ele>558</ele>
        <time>2014-04-27T07:49:26Z</time>
      </trkpt>
      <trkpt lat="45.5414" lon="4.0791">
        <ele>559.1</ele>
        <time>2014-04-27T07:49:32Z</time>
      </trkpt>
      <trkpt lat="45.54128" lon="4.079">
        <ele>561.6</ele>
        <time>2014-04-27T07:49:39Z</time>
      </trkpt>
      <trkpt lat="45.54114" lon="4.07894">
        <ele>564.9</ele>
        <time>2014-04-27T07:49:47Z</time>
      </trkpt>
      <trkpt lat="45.54097" lon="4.07893">
        <ele>567.5</ele>
        <time>2014-04-27T07:49:57Z</time>
      </trkpt>
      <trkpt lat="45.54092" lon="4.07894">
        <ele>569.9</ele>
        <time>2014-04-27T07:50:03Z</time>
      </trkpt>
      <trkpt lat="45.54067" lon="4.0789">
        <ele>573.5</ele>
        <time>2014-04-27T07:51:38Z</time>
      </trkpt>
      <trkpt lat="45.54051" lon="4.07885">
        <ele>574.5</ele>
        <time>2014-04-27T07:51:43Z</time>
      </trkpt>
      <trkpt lat="45.54036" lon="4.07881">
        <ele>575.3</ele>
        <time>2014-04-27T07:51:48Z</time>
      </trkpt>
      <trkpt lat="45.54022" lon="4.07875">
        <ele>576.4</ele>
        <time>2014-04-27T07:51:53Z</time>
      </trkpt>
      <trkpt lat="45.54013" lon="4.07862">
        <ele>577.7</ele>
        <time>2014-04-27T07:51:59Z</time>
      </trkpt>
      <trkpt lat="45.54009" lon="4.07846">
        <ele>579.6</ele>
        <time>2014-04-27T07:52:05Z</time>
      </trkpt>
      <trkpt lat="45.54002" lon="4.07834">
        <ele>579.7</ele>
        <time>2014-04-27T07:52:11Z</time>
      </trkpt>
      <trkpt lat="45.53992" lon="4.0782">
        <ele>578.1</ele>
        <time>2014-04-27T07:52:16Z</time>
      </trkpt>
      <trkpt lat="45.53984" lon="4.07806">
        <ele>577.5</ele>
        <time>2014-04-27T07:52:20Z</time>
      </trkpt>
      <trkpt lat="45.53974" lon="4.07793">
        <ele>577.2</ele>
        <time>2014-04-27T07:52:25Z</time>
      </trkpt>
      <trkpt lat="45.53964" lon="4.07777">
        <ele>576.2</ele>
        <time>2014-04-27T07:52:29Z</time>
      </trkpt>
      <trkpt lat="45.53952" lon="4.07763">
        <ele>575.5</ele>
        <time>2014-04-27T07:52:32Z</time>
      </trkpt>
      <trkpt lat="45.53944" lon="4.07746">
        <ele>575.5</ele>
        <time>2014-04-27T07:52:37Z</time>
      </trkpt>
      <trkpt lat="45.53938" lon="4.07729">
        <ele>575.8</ele>
        <time>2014-04-27T07:52:41Z</time>
      </trkpt>
      <trkpt lat="45.53933" lon="4.07713">
        <ele>576.8</ele>
        <time>2014-04-27T07:52:45Z</time>
      </trkpt>
      <trkpt lat="45.53929" lon="4.07697">
        <ele>577.3</ele>
        <time>2014-04-27T07:52:49Z</time>
      </trkpt>
      <trkpt lat="45.53923" lon="4.07683">
        <ele>578.5</ele>
        <time>2014-04-27T07:52:53Z</time>
      </trkpt>
      <trkpt lat="45.53913" lon="4.07671">
        <ele>581.1</ele>
        <time>2014-04-27T07:52:59Z</time>
      </trkpt>
      <trkpt lat="45.53898" lon="4.07668">
        <ele>584.6</ele>
        <time>2014-04-27T07:53:06Z</time>
      </trkpt>
      <trkpt lat="45.53882" lon="4.07665">
        <ele>586.4</ele>
        <time>2014-04-27T07:53:13Z</time>
      </trkpt>
      <trkpt lat="45.53867" lon="4.07659">
        <ele>587.4</ele>
        <time>2014-04-27T07:53:18Z</time>
      </trkpt>
      <trkpt lat="45.53852" lon="4.07653">
        <ele>587.9</ele>
        <time>2014-04-27T07:53:23Z</time>
      </trkpt>
      <trkpt lat="45.53834" lon="4.07649">
        <ele>588.5</ele>
        <time>2014-04-27T07:53:28Z</time>
      </trkpt>
      <trkpt lat="45.5382" lon="4.07652">
        <ele>589.3</ele>
        <time>2014-04-27T07:53:32Z</time>
      </trkpt>
      <trkpt lat="45.53808" lon="4.07662">
        <ele>589.8</ele>
        <time>2014-04-27T07:53:35Z</time>
      </trkpt>
      <trkpt lat="45.538" lon="4.07676">
        <ele>591</ele>
        <time>2014-04-27T07:53:38Z</time>
      </trkpt>
      <trkpt lat="45.53791" lon="4.07689">
        <ele>592.3</ele>
        <time>2014-04-27T07:53:41Z</time>
      </trkpt>
      <trkpt lat="45.5378" lon="4.07701">
        <ele>593.3</ele>
        <time>2014-04-27T07:53:45Z</time>
      </trkpt>
      <trkpt lat="45.53767" lon="4.0771">
        <ele>595.7</ele>
        <time>2014-04-27T07:53:51Z</time>
      </trkpt>
      <trkpt lat="45.53756" lon="4.07721">
        <ele>597.7</ele>
        <time>2014-04-27T07:53:58Z</time>
      </trkpt>
      <trkpt lat="45.53748" lon="4.07733">
        <ele>599.1</ele>
        <time>2014-04-27T07:54:03Z</time>
      </trkpt>
      <trkpt lat="45.53743" lon="4.07748">
        <ele>600.3</ele>
        <time>2014-04-27T07:54:08Z</time>
      </trkpt>
      <trkpt lat="45.53738" lon="4.07763">
        <ele>601.5</ele>
        <time>2014-04-27T07:54:13Z</time>
      </trkpt>
      <trkpt lat="45.53734" lon="4.07779">
        <ele>602.9</ele>
        <time>2014-04-27T07:54:18Z</time>
      </trkpt>
      <trkpt lat="45.5373" lon="4.07794">
        <ele>604.6</ele>
        <time>2014-04-27T07:54:23Z</time>
      </trkpt>
      <trkpt lat="45.53729" lon="4.07808">
        <ele>605.6</ele>
        <time>2014-04-27T07:54:28Z</time>
      </trkpt>
      <trkpt lat="45.53725" lon="4.07823">
        <ele>606.9</ele>
        <time>2014-04-27T07:54:33Z</time>
      </trkpt>
      <trkpt lat="45.53714" lon="4.07835">
        <ele>607.3</ele>
        <time>2014-04-27T07:54:39Z</time>
      </trkpt>
      <trkpt lat="45.537" lon="4.07844">
        <ele>607.2</ele>
        <time>2014-04-27T07:54:43Z</time>
      </trkpt>
      <trkpt lat="45.53686" lon="4.07853">
        <ele>607</ele>
        <time>2014-04-27T07:54:46Z</time>
      </trkpt>
      <trkpt lat="45.53673" lon="4.07864">
        <ele>606</ele>
        <time>2014-04-27T07:54:49Z</time>
      </trkpt>
      <trkpt lat="45.53658" lon="4.07875">
        <ele>605.8</ele>
        <time>2014-04-27T07:54:52Z</time>
      </trkpt>
      <trkpt lat="45.53642" lon="4.07884">
        <ele>605</ele>
        <time>2014-04-27T07:54:54Z</time>
      </trkpt>
      <trkpt lat="45.53629" lon="4.07891">
        <ele>604.5</ele>
        <time>2014-04-27T07:54:57Z</time>
      </trkpt>
      <trkpt lat="45.53615" lon="4.07902">
        <ele>603.5</ele>
        <time>2014-04-27T07:54:58Z</time>
      </trkpt>
      <trkpt lat="45.53604" lon="4.0792">
        <ele>602</ele>
        <time>2014-04-27T07:55:00Z</time>
      </trkpt>
      <trkpt lat="45.53595" lon="4.07942">
        <ele>601.5</ele>
        <time>2014-04-27T07:55:03Z</time>
      </trkpt>
      <trkpt lat="45.5359" lon="4.07964">
        <ele>602</ele>
        <time>2014-04-27T07:55:05Z</time>
      </trkpt>
      <trkpt lat="45.53586" lon="4.07986">
        <ele>602.3</ele>
        <time>2014-04-27T07:55:07Z</time>
      </trkpt>
      <trkpt lat="45.53586" lon="4.08">
        <ele>601.5</ele>
        <time>2014-04-27T07:55:11Z</time>
      </trkpt>
      <trkpt lat="45.53574" lon="4.08012">
        <ele>600</ele>
        <time>2014-04-27T07:55:14Z</time>
      </trkpt>
      <trkpt lat="45.53558" lon="4.08022">
        <ele>599</ele>
        <time>2014-04-27T07:55:17Z</time>
      </trkpt>
      <trkpt lat="45.53544" lon="4.08031">
        <ele>598.5</ele>
        <time>2014-04-27T07:55:18Z</time>
      </trkpt>
      <trkpt lat="45.5353" lon="4.08039">
        <ele>597.5</ele>
        <time>2014-04-27T07:55:21Z</time>
      </trkpt>
      <trkpt lat="45.53518" lon="4.08047">
        <ele>595.8</ele>
        <time>2014-04-27T07:55:24Z</time>
      </trkpt>
      <trkpt lat="45.53504" lon="4.0805">
        <ele>594</ele>
        <time>2014-04-27T07:55:28Z</time>
      </trkpt>
      <trkpt lat="45.53487" lon="4.08047">
        <ele>593.5</ele>
        <time>2014-04-27T07:55:31Z</time>
      </trkpt>
      <trkpt lat="45.53471" lon="4.08043">
        <ele>593</ele>
        <time>2014-04-27T07:55:34Z</time>
      </trkpt>
      <trkpt lat="45.53454" lon="4.0804">
        <ele>592.5</ele>
        <time>2014-04-27T07:55:37Z</time>
      </trkpt>
      <trkpt lat="45.53438" lon="4.08036">
        <ele>592.5</ele>
        <time>2014-04-27T07:55:40Z</time>
      </trkpt>
      <trkpt lat="45.53422" lon="4.08034">
        <ele>592.3</ele>
        <time>2014-04-27T07:55:43Z</time>
      </trkpt>
      <trkpt lat="45.53407" lon="4.08031">
        <ele>591.8</ele>
        <time>2014-04-27T07:55:46Z</time>
      </trkpt>
      <trkpt lat="45.53392" lon="4.08029">
        <ele>591</ele>
        <time>2014-04-27T07:55:49Z</time>
      </trkpt>
      <trkpt lat="45.53376" lon="4.08026">
        <ele>590.7</ele>
        <time>2014-04-27T07:55:53Z</time>
      </trkpt>
      <trkpt lat="45.53359" lon="4.08022">
        <ele>590</ele>
        <time>2014-04-27T07:55:56Z</time>
      </trkpt>
      <trkpt lat="45.53345" lon="4.08018">
        <ele>590.5</ele>
        <time>2014-04-27T07:55:59Z</time>
      </trkpt>
      <trkpt lat="45.53329" lon="4.08013">
        <ele>591.2</ele>
        <time>2014-04-27T07:56:02Z</time>
      </trkpt>
      <trkpt lat="45.53312" lon="4.08009">
        <ele>592</ele>
        <time>2014-04-27T07:56:07Z</time>
      </trkpt>
      <trkpt lat="45.53295" lon="4.08005">
        <ele>592.8</ele>
        <time>2014-04-27T07:56:11Z</time>
      </trkpt>
      <trkpt lat="45.5328" lon="4.08003">
        <ele>592.7</ele>
        <time>2014-04-27T07:56:15Z</time>
      </trkpt>
      <trkpt lat="45.53264" lon="4.07999">
        <ele>593.4</ele>
        <time>2014-04-27T07:56:20Z</time>
      </trkpt>
      <trkpt lat="45.53251" lon="4.0799">
        <ele>594</ele>
        <time>2014-04-27T07:56:26Z</time>
      </trkpt>
      <trkpt lat="45.5324" lon="4.07981">
        <ele>594</ele>
        <time>2014-04-27T07:56:33Z</time>
      </trkpt>
      <trkpt lat="45.53227" lon="4.07972">
        <ele>594.5</ele>
        <time>2014-04-27T07:56:39Z</time>
      </trkpt>
      <trkpt lat="45.53213" lon="4.07964">
        <ele>595.1</ele>
        <time>2014-04-27T07:56:47Z</time>
      </trkpt>
      <trkpt lat="45.532" lon="4.0796">
        <ele>595.8</ele>
        <time>2014-04-27T07:56:57Z</time>
      </trkpt>
      <trkpt lat="45.53188" lon="4.07949">
        <ele>595.6</ele>
        <time>2014-04-27T07:57:07Z</time>
      </trkpt>
      <trkpt lat="45.53175" lon="4.07941">
        <ele>594.8</ele>
        <time>2014-04-27T07:57:16Z</time>
      </trkpt>
      <trkpt lat="45.5316" lon="4.07938">
        <ele>594.5</ele>
        <time>2014-04-27T07:57:25Z</time>
      </trkpt>
      <trkpt lat="45.53146" lon="4.07934">
        <ele>592.9</ele>
        <time>2014-04-27T07:57:34Z</time>
      </trkpt>
      <trkpt lat="45.5313" lon="4.07935">
        <ele>593.4</ele>
        <time>2014-04-27T07:57:43Z</time>
      </trkpt>
      <trkpt lat="45.53116" lon="4.07936">
        <ele>593.8</ele>
        <time>2014-04-27T07:57:51Z</time>
      </trkpt>
      <trkpt lat="45.53101" lon="4.07931">
        <ele>592.4</ele>
        <time>2014-04-27T07:57:57Z</time>
      </trkpt>
      <trkpt lat="45.53086" lon="4.07923">
        <ele>591.9</ele>
        <time>2014-04-27T07:58:03Z</time>
      </trkpt>
      <trkpt lat="45.53072" lon="4.07918">
        <ele>593.1</ele>
        <time>2014-04-27T07:58:10Z</time>
      </trkpt>
      <trkpt lat="45.53057" lon="4.07919">
        <ele>595.4</ele>
        <time>2014-04-27T07:58:17Z</time>
      </trkpt>
      <trkpt lat="45.53043" lon="4.07916">
        <ele>595.3</ele>
        <time>2014-04-27T07:58:24Z</time>
      </trkpt>
      <trkpt lat="45.53031" lon="4.07905">
        <ele>593.7</ele>
        <time>2014-04-27T07:58:29Z</time>
      </trkpt>
      <trkpt lat="45.53018" lon="4.07896">
        <ele>593.5</ele>
        <time>2014-04-27T07:58:34Z</time>
      </trkpt>
      <trkpt lat="45.53004" lon="4.07889">
        <ele>594.2</ele>
        <time>2014-04-27T07:58:38Z</time>
      </trkpt>
      <trkpt lat="45.5299" lon="4.0788">
        <ele>594</ele>
        <time>2014-04-27T07:58:41Z</time>
      </trkpt>
      <trkpt lat="45.52977" lon="4.0787">
        <ele>593.3</ele>
        <time>2014-04-27T07:58:46Z</time>
      </trkpt>
      <trkpt lat="45.52965" lon="4.07858">
        <ele>593.3</ele>
        <time>2014-04-27T07:58:51Z</time>
      </trkpt>
      <trkpt lat="45.52954" lon="4.07846">
        <ele>592.5</ele>
        <time>2014-04-27T07:58:56Z</time>
      </trkpt>
      <trkpt lat="45.52945" lon="4.07829">
        <ele>592.8</ele>
        <time>2014-04-27T07:59:00Z</time>
      </trkpt>
      <trkpt lat="45.52933" lon="4.07818">
        <ele>594.1</ele>
        <time>2014-04-27T07:59:05Z</time>
      </trkpt>
      <trkpt lat="45.52923" lon="4.07806">
        <ele>594.3</ele>
        <time>2014-04-27T07:59:10Z</time>
      </trkpt>
      <trkpt lat="45.52916" lon="4.07792">
        <ele>593.5</ele>
        <time>2014-04-27T07:59:13Z</time>
      </trkpt>
      <trkpt lat="45.52908" lon="4.07777">
        <ele>593</ele>
        <time>2014-04-27T07:59:17Z</time>
      </trkpt>
      <trkpt lat="45.52902" lon="4.07761">
        <ele>593.5</ele>
        <time>2014-04-27T07:59:19Z</time>
      </trkpt>
      <trkpt lat="45.52898" lon="4.07745">
        <ele>593.5</ele>
        <time>2014-04-27T07:59:21Z</time>
      </trkpt>
      <trkpt lat="45.52895" lon="4.07727">
        <ele>594.5</ele>
        <time>2014-04-27T07:59:24Z</time>
      </trkpt>
      <trkpt lat="45.52896" lon="4.07709">
        <ele>596.8</ele>
        <time>2014-04-27T07:59:27Z</time>
      </trkpt>
      <trkpt lat="45.52897" lon="4.07694">
        <ele>598</ele>
        <time>2014-04-27T07:59:30Z</time>
      </trkpt>
      <trkpt lat="45.52899" lon="4.07678">
        <ele>600.3</ele>
        <time>2014-04-27T07:59:33Z</time>
      </trkpt>
      <trkpt lat="45.52896" lon="4.07661">
        <ele>601.8</ele>
        <time>2014-04-27T07:59:38Z</time>
      </trkpt>
      <trkpt lat="45.52884" lon="4.07654">
        <ele>603.4</ele>
        <time>2014-04-27T07:59:44Z</time>
      </trkpt>
      <trkpt lat="45.52876" lon="4.07639">
        <ele>605.3</ele>
        <time>2014-04-27T07:59:49Z</time>
      </trkpt>
      <trkpt lat="45.52872" lon="4.07623">
        <ele>606.7</ele>
        <time>2014-04-27T07:59:54Z</time>
      </trkpt>
      <trkpt lat="45.52868" lon="4.07608">
        <ele>607.5</ele>
        <time>2014-04-27T07:59:58Z</time>
      </trkpt>
      <trkpt lat="45.52863" lon="4.07593">
        <ele>608.5</ele>
        <time>2014-04-27T08:00:02Z</time>
      </trkpt>
      <trkpt lat="45.52858" lon="4.07578">
        <ele>609.9</ele>
        <time>2014-04-27T08:00:06Z</time>
      </trkpt>
      <trkpt lat="45.52852" lon="4.07562">
        <ele>611.1</ele>
        <time>2014-04-27T08:00:11Z</time>
      </trkpt>
      <trkpt lat="45.52847" lon="4.07547">
        <ele>612.7</ele>
        <time>2014-04-27T08:00:17Z</time>
      </trkpt>
      <trkpt lat="45.52842" lon="4.07532">
        <ele>613.5</ele>
        <time>2014-04-27T08:00:22Z</time>
      </trkpt>
      <trkpt lat="45.52837" lon="4.07517">
        <ele>614.5</ele>
        <time>2014-04-27T08:00:27Z</time>
      </trkpt>
      <trkpt lat="45.52835" lon="4.075">
        <ele>615.6</ele>
        <time>2014-04-27T08:00:32Z</time>
      </trkpt>
      <trkpt lat="45.52834" lon="4.07484">
        <ele>616.9</ele>
        <time>2014-04-27T08:00:37Z</time>
      </trkpt>
      <trkpt lat="45.52831" lon="4.07469">
        <ele>617.4</ele>
        <time>2014-04-27T08:00:42Z</time>
      </trkpt>
      <trkpt lat="45.52826" lon="4.07454">
        <ele>618.6</ele>
        <time>2014-04-27T08:00:47Z</time>
      </trkpt>
      <trkpt lat="45.52822" lon="4.0744">
        <ele>619</ele>
        <time>2014-04-27T08:00:52Z</time>
      </trkpt>
      <trkpt lat="45.52817" lon="4.07425">
        <ele>619.6</ele>
        <time>2014-04-27T08:00:57Z</time>
      </trkpt>
      <trkpt lat="45.52811" lon="4.0741">
        <ele>620.6</ele>
        <time>2014-04-27T08:01:02Z</time>
      </trkpt>
      <trkpt lat="45.52805" lon="4.07396">
        <ele>620.6</ele>
        <time>2014-04-27T08:01:08Z</time>
      </trkpt>
      <trkpt lat="45.52799" lon="4.07383">
        <ele>621.3</ele>
        <time>2014-04-27T08:01:14Z</time>
      </trkpt>
      <trkpt lat="45.52787" lon="4.07373">
        <ele>621.5</ele>
        <time>2014-04-27T08:01:20Z</time>
      </trkpt>
      <trkpt lat="45.52778" lon="4.07359">
        <ele>621.8</ele>
        <time>2014-04-27T08:01:26Z</time>
      </trkpt>
      <trkpt lat="45.52773" lon="4.07345">
        <ele>622.4</ele>
        <time>2014-04-27T08:01:31Z</time>
      </trkpt>
      <trkpt lat="45.52768" lon="4.0733">
        <ele>623.4</ele>
        <time>2014-04-27T08:01:36Z</time>
      </trkpt>
      <trkpt lat="45.52763" lon="4.07315">
        <ele>623.6</ele>
        <time>2014-04-27T08:01:41Z</time>
      </trkpt>
      <trkpt lat="45.52758" lon="4.073">
        <ele>624.1</ele>
        <time>2014-04-27T08:01:46Z</time>
      </trkpt>
      <trkpt lat="45.52753" lon="4.07285">
        <ele>624.4</ele>
        <time>2014-04-27T08:01:51Z</time>
      </trkpt>
      <trkpt lat="45.52749" lon="4.0727">
        <ele>625.6</ele>
        <time>2014-04-27T08:01:56Z</time>
      </trkpt>
      <trkpt lat="45.52744" lon="4.07255">
        <ele>626.6</ele>
        <time>2014-04-27T08:02:01Z</time>
      </trkpt>
      <trkpt lat="45.52739" lon="4.07241">
        <ele>627.3</ele>
        <time>2014-04-27T08:02:06Z</time>
      </trkpt>
      <trkpt lat="45.52733" lon="4.07227">
        <ele>628</ele>
        <time>2014-04-27T08:02:11Z</time>
      </trkpt>
      <trkpt lat="45.52729" lon="4.07212">
        <ele>629.4</ele>
        <time>2014-04-27T08:02:16Z</time>
      </trkpt>
      <trkpt lat="45.52725" lon="4.07198">
        <ele>629.6</ele>
        <time>2014-04-27T08:02:21Z</time>
      </trkpt>
      <trkpt lat="45.5272" lon="4.07183">
        <ele>630.3</ele>
        <time>2014-04-27T08:02:26Z</time>
      </trkpt>
      <trkpt lat="45.52715" lon="4.07169">
        <ele>631.4</ele>
        <time>2014-04-27T08:02:31Z</time>
      </trkpt>
      <trkpt lat="45.52709" lon="4.07155">
        <ele>632.4</ele>
        <time>2014-04-27T08:02:36Z</time>
      </trkpt>
      <trkpt lat="45.52703" lon="4.07141">
        <ele>632.6</ele>
        <time>2014-04-27T08:02:41Z</time>
      </trkpt>
      <trkpt lat="45.52698" lon="4.07127">
        <ele>633.1</ele>
        <time>2014-04-27T08:02:46Z</time>
      </trkpt>
      <trkpt lat="45.52692" lon="4.07112">
        <ele>633.8</ele>
        <time>2014-04-27T08:02:51Z</time>
      </trkpt>
      <trkpt lat="45.52686" lon="4.07096">
        <ele>634.4</ele>
        <time>2014-04-27T08:02:56Z</time>
      </trkpt>
      <trkpt lat="45.52679" lon="4.0708">
        <ele>634.8</ele>
        <time>2014-04-27T08:03:01Z</time>
      </trkpt>
      <trkpt lat="45.52673" lon="4.07065">
        <ele>635.3</ele>
        <time>2014-04-27T08:03:06Z</time>
      </trkpt>
      <trkpt lat="45.52667" lon="4.0705">
        <ele>635.8</ele>
        <time>2014-04-27T08:03:11Z</time>
      </trkpt>
      <trkpt lat="45.52661" lon="4.07035">
        <ele>636.5</ele>
        <time>2014-04-27T08:03:16Z</time>
      </trkpt>
      <trkpt lat="45.52651" lon="4.07027">
        <ele>637.6</ele>
        <time>2014-04-27T08:03:23Z</time>
      </trkpt>
      <trkpt lat="45.52639" lon="4.07038">
        <ele>638</ele>
        <time>2014-04-27T08:03:28Z</time>
      </trkpt>
      <trkpt lat="45.5263" lon="4.07052">
        <ele>637.3</ele>
        <time>2014-04-27T08:03:33Z</time>
      </trkpt>
      <trkpt lat="45.52621" lon="4.07064">
        <ele>637</ele>
        <time>2014-04-27T08:03:37Z</time>
      </trkpt>
      <trkpt lat="45.52611" lon="4.07075">
        <ele>637</ele>
        <time>2014-04-27T08:03:41Z</time>
      </trkpt>
      <trkpt lat="45.52598" lon="4.07085">
        <ele>637.8</ele>
        <time>2014-04-27T08:03:45Z</time>
      </trkpt>
      <trkpt lat="45.52582" lon="4.07083">
        <ele>638</ele>
        <time>2014-04-27T08:03:50Z</time>
      </trkpt>
      <trkpt lat="45.52574" lon="4.07068">
        <ele>638</ele>
        <time>2014-04-27T08:03:54Z</time>
      </trkpt>
      <trkpt lat="45.5257" lon="4.07051">
        <ele>638.7</ele>
        <time>2014-04-27T08:03:59Z</time>
      </trkpt>
      <trkpt lat="45.52567" lon="4.07036">
        <ele>639.5</ele>
        <time>2014-04-27T08:04:03Z</time>
      </trkpt>
      <trkpt lat="45.52565" lon="4.07021">
        <ele>640</ele>
        <time>2014-04-27T08:04:06Z</time>
      </trkpt>
      <trkpt lat="45.52564" lon="4.07006">
        <ele>640.3</ele>
        <time>2014-04-27T08:04:11Z</time>
      </trkpt>
      <trkpt lat="45.52564" lon="4.06991">
        <ele>641.2</ele>
        <time>2014-04-27T08:04:15Z</time>
      </trkpt>
      <trkpt lat="45.52564" lon="4.06975">
        <ele>642.2</ele>
        <time>2014-04-27T08:04:19Z</time>
      </trkpt>
      <trkpt lat="45.52564" lon="4.06959">
        <ele>643</ele>
        <time>2014-04-27T08:04:23Z</time>
      </trkpt>
      <trkpt lat="45.52564" lon="4.06943">
        <ele>643.5</ele>
        <time>2014-04-27T08:04:28Z</time>
      </trkpt>
      <trkpt lat="45.52564" lon="4.06929">
        <ele>644</ele>
        <time>2014-04-27T08:04:31Z</time>
      </trkpt>
      <trkpt lat="45.52564" lon="4.06914">
        <ele>645</ele>
        <time>2014-04-27T08:04:36Z</time>
      </trkpt>
      <trkpt lat="45.52564" lon="4.06899">
        <ele>646.2</ele>
        <time>2014-04-27T08:04:39Z</time>
      </trkpt>
      <trkpt lat="45.52565" lon="4.06882">
        <ele>647.3</ele>
        <time>2014-04-27T08:04:44Z</time>
      </trkpt>
      <trkpt lat="45.52565" lon="4.06866">
        <ele>647.5</ele>
        <time>2014-04-27T08:04:48Z</time>
      </trkpt>
      <trkpt lat="45.52565" lon="4.0685">
        <ele>648</ele>
        <time>2014-04-27T08:04:51Z</time>
      </trkpt>
      <trkpt lat="45.52565" lon="4.06835">
        <ele>648.5</ele>
        <time>2014-04-27T08:04:56Z</time>
      </trkpt>
      <trkpt lat="45.52565" lon="4.0682">
        <ele>648.7</ele>
        <time>2014-04-27T08:05:00Z</time>
      </trkpt>
      <trkpt lat="45.52564" lon="4.06805">
        <ele>649.3</ele>
        <time>2014-04-27T08:05:03Z</time>
      </trkpt>
      <trkpt lat="45.52563" lon="4.0679">
        <ele>649.8</ele>
        <time>2014-04-27T08:05:08Z</time>
      </trkpt>
      <trkpt lat="45.52561" lon="4.06775">
        <ele>650.2</ele>
        <time>2014-04-27T08:05:11Z</time>
      </trkpt>
      <trkpt lat="45.52558" lon="4.0676">
        <ele>651</ele>
        <time>2014-04-27T08:05:16Z</time>
      </trkpt>
      <trkpt lat="45.52553" lon="4.06746">
        <ele>651.8</ele>
        <time>2014-04-27T08:05:20Z</time>
      </trkpt>
      <trkpt lat="45.52549" lon="4.06729">
        <ele>652.3</ele>
        <time>2014-04-27T08:05:23Z</time>
      </trkpt>
      <trkpt lat="45.52544" lon="4.06713">
        <ele>653</ele>
        <time>2014-04-27T08:05:28Z</time>
      </trkpt>
      <trkpt lat="45.52535" lon="4.06699">
        <ele>653.7</ele>
        <time>2014-04-27T08:05:32Z</time>
      </trkpt>
      <trkpt lat="45.52526" lon="4.06685">
        <ele>654</ele>
        <time>2014-04-27T08:05:35Z</time>
      </trkpt>
      <trkpt lat="45.52518" lon="4.06672">
        <ele>654.2</ele>
        <time>2014-04-27T08:05:40Z</time>
      </trkpt>
      <trkpt lat="45.52508" lon="4.06659">
        <ele>653.6</ele>
        <time>2014-04-27T08:05:44Z</time>
      </trkpt>
      <trkpt lat="45.52497" lon="4.06648">
        <ele>653.5</ele>
        <time>2014-04-27T08:05:48Z</time>
      </trkpt>
      <trkpt lat="45.52489" lon="4.06633">
        <ele>653.5</ele>
        <time>2014-04-27T08:05:53Z</time>
      </trkpt>
      <trkpt lat="45.5248" lon="4.06619">
        <ele>653.5</ele>
        <time>2014-04-27T08:05:57Z</time>
      </trkpt>
      <trkpt lat="45.52469" lon="4.06606">
        <ele>654.2</ele>
        <time>2014-04-27T08:06:01Z</time>
      </trkpt>
      <trkpt lat="45.5246" lon="4.06592">
        <ele>655.5</ele>
        <time>2014-04-27T08:06:04Z</time>
      </trkpt>
      <trkpt lat="45.52452" lon="4.06577">
        <ele>656</ele>
        <time>2014-04-27T08:06:07Z</time>
      </trkpt>
      <trkpt lat="45.52442" lon="4.06562">
        <ele>656.5</ele>
        <time>2014-04-27T08:06:12Z</time>
      </trkpt>
      <trkpt lat="45.52433" lon="4.06549">
        <ele>657.5</ele>
        <time>2014-04-27T08:06:16Z</time>
      </trkpt>
      <trkpt lat="45.52425" lon="4.06535">
        <ele>658</ele>
        <time>2014-04-27T08:06:20Z</time>
      </trkpt>
      <trkpt lat="45.52416" lon="4.0652">
        <ele>658.5</ele>
        <time>2014-04-27T08:06:23Z</time>
      </trkpt>
      <trkpt lat="45.52408" lon="4.06508">
        <ele>658</ele>
        <time>2014-04-27T08:06:26Z</time>
      </trkpt>
      <trkpt lat="45.52399" lon="4.06493">
        <ele>657.5</ele>
        <time>2014-04-27T08:06:30Z</time>
      </trkpt>
      <trkpt lat="45.5239" lon="4.06479">
        <ele>657.5</ele>
        <time>2014-04-27T08:06:33Z</time>
      </trkpt>
      <trkpt lat="45.5238" lon="4.06465">
        <ele>657.3</ele>
        <time>2014-04-27T08:06:36Z</time>
      </trkpt>
      <trkpt lat="45.52367" lon="4.0645">
        <ele>657.5</ele>
        <time>2014-04-27T08:06:39Z</time>
      </trkpt>
      <trkpt lat="45.5235" lon="4.06437">
        <ele>657</ele>
        <time>2014-04-27T08:06:42Z</time>
      </trkpt>
      <trkpt lat="45.52333" lon="4.06425">
        <ele>656.8</ele>
        <time>2014-04-27T08:06:45Z</time>
      </trkpt>
      <trkpt lat="45.52317" lon="4.06416">
        <ele>656.5</ele>
        <time>2014-04-27T08:06:47Z</time>
      </trkpt>
      <trkpt lat="45.52304" lon="4.06409">
        <ele>656</ele>
        <time>2014-04-27T08:06:50Z</time>
      </trkpt>
      <trkpt lat="45.5229" lon="4.06404">
        <ele>656</ele>
        <time>2014-04-27T08:06:52Z</time>
      </trkpt>
      <trkpt lat="45.52276" lon="4.06398">
        <ele>655.5</ele>
        <time>2014-04-27T08:06:53Z</time>
      </trkpt>
      <trkpt lat="45.52261" lon="4.06393">
        <ele>655.5</ele>
        <time>2014-04-27T08:06:56Z</time>
      </trkpt>
      <trkpt lat="45.52246" lon="4.06384">
        <ele>655</ele>
        <time>2014-04-27T08:06:58Z</time>
      </trkpt>
      <trkpt lat="45.52242" lon="4.06364">
        <ele>654.5</ele>
        <time>2014-04-27T08:06:59Z</time>
      </trkpt>
      <trkpt lat="45.52244" lon="4.06345">
        <ele>655</ele>
        <time>2014-04-27T08:07:02Z</time>
      </trkpt>
      <trkpt lat="45.52248" lon="4.06327">
        <ele>655.5</ele>
        <time>2014-04-27T08:07:04Z</time>
      </trkpt>
      <trkpt lat="45.52252" lon="4.06311">
        <ele>655.5</ele>
        <time>2014-04-27T08:07:05Z</time>
      </trkpt>
      <trkpt lat="45.52257" lon="4.06296">
        <ele>655.5</ele>
        <time>2014-04-27T08:07:08Z</time>
      </trkpt>
      <trkpt lat="45.52262" lon="4.0628">
        <ele>656</ele>
        <time>2014-04-27T08:07:10Z</time>
      </trkpt>
      <trkpt lat="45.52264" lon="4.06265">
        <ele>656</ele>
        <time>2014-04-27T08:07:11Z</time>
      </trkpt>
      <trkpt lat="45.52265" lon="4.06249">
        <ele>656</ele>
        <time>2014-04-27T08:07:13Z</time>
      </trkpt>
      <trkpt lat="45.52262" lon="4.06235">
        <ele>656</ele>
        <time>2014-04-27T08:07:16Z</time>
      </trkpt>
      <trkpt lat="45.52256" lon="4.06218">
        <ele>656.3</ele>
        <time>2014-04-27T08:07:18Z</time>
      </trkpt>
      <trkpt lat="45.5225" lon="4.06198">
        <ele>656.5</ele>
        <time>2014-04-27T08:07:21Z</time>
      </trkpt>
      <trkpt lat="45.52245" lon="4.06178">
        <ele>656.5</ele>
        <time>2014-04-27T08:07:24Z</time>
      </trkpt>
      <trkpt lat="45.52243" lon="4.06158">
        <ele>657</ele>
        <time>2014-04-27T08:07:27Z</time>
      </trkpt>
      <trkpt lat="45.52241" lon="4.06139">
        <ele>657.8</ele>
        <time>2014-04-27T08:07:30Z</time>
      </trkpt>
      <trkpt lat="45.52239" lon="4.06121">
        <ele>658</ele>
        <time>2014-04-27T08:07:33Z</time>
      </trkpt>
      <trkpt lat="45.52238" lon="4.06104">
        <ele>658</ele>
        <time>2014-04-27T08:07:36Z</time>
      </trkpt>
      <trkpt lat="45.52235" lon="4.06089">
        <ele>658.5</ele>
        <time>2014-04-27T08:07:39Z</time>
      </trkpt>
      <trkpt lat="45.5223" lon="4.06075">
        <ele>659.3</ele>
        <time>2014-04-27T08:07:42Z</time>
      </trkpt>
      <trkpt lat="45.52227" lon="4.0606">
        <ele>660</ele>
        <time>2014-04-27T08:07:45Z</time>
      </trkpt>
      <trkpt lat="45.52224" lon="4.06046">
        <ele>660.3</ele>
        <time>2014-04-27T08:07:48Z</time>
      </trkpt>
      <trkpt lat="45.52221" lon="4.06031">
        <ele>661</ele>
        <time>2014-04-27T08:07:51Z</time>
      </trkpt>
      <trkpt lat="45.52218" lon="4.06015">
        <ele>661.5</ele>
        <time>2014-04-27T08:07:54Z</time>
      </trkpt>
      <trkpt lat="45.52215" lon="4.06">
        <ele>662</ele>
        <time>2014-04-27T08:07:57Z</time>
      </trkpt>
      <trkpt lat="45.52211" lon="4.05985">
        <ele>662</ele>
        <time>2014-04-27T08:08:00Z</time>
      </trkpt>
      <trkpt lat="45.52208" lon="4.05969">
        <ele>662.5</ele>
        <time>2014-04-27T08:08:03Z</time>
      </trkpt>
      <trkpt lat="45.52204" lon="4.05955">
        <ele>663</ele>
        <time>2014-04-27T08:08:06Z</time>
      </trkpt>
      <trkpt lat="45.52201" lon="4.0594">
        <ele>663.5</ele>
        <time>2014-04-27T08:08:09Z</time>
      </trkpt>
      <trkpt lat="45.52199" lon="4.05925">
        <ele>664</ele>
        <time>2014-04-27T08:08:12Z</time>
      </trkpt>
      <trkpt lat="45.52197" lon="4.0591">
        <ele>663.8</ele>
        <time>2014-04-27T08:08:15Z</time>
      </trkpt>
      <trkpt lat="45.52195" lon="4.05894">
        <ele>664</ele>
        <time>2014-04-27T08:08:19Z</time>
      </trkpt>
      <trkpt lat="45.52193" lon="4.05877">
        <ele>664.3</ele>
        <time>2014-04-27T08:08:22Z</time>
      </trkpt>
      <trkpt lat="45.52191" lon="4.05862">
        <ele>664.5</ele>
        <time>2014-04-27T08:08:25Z</time>
      </trkpt>
      <trkpt lat="45.5219" lon="4.05841">
        <ele>665.8</ele>
        <time>2014-04-27T08:08:30Z</time>
      </trkpt>
      <trkpt lat="45.52188" lon="4.05823">
        <ele>666.7</ele>
        <time>2014-04-27T08:08:33Z</time>
      </trkpt>
      <trkpt lat="45.52188" lon="4.05805">
        <ele>667.8</ele>
        <time>2014-04-27T08:08:38Z</time>
      </trkpt>
      <trkpt lat="45.52188" lon="4.05789">
        <ele>668.5</ele>
        <time>2014-04-27T08:08:41Z</time>
      </trkpt>
      <trkpt lat="45.52187" lon="4.05774">
        <ele>669.3</ele>
        <time>2014-04-27T08:08:46Z</time>
      </trkpt>
      <trkpt lat="45.52188" lon="4.05758">
        <ele>670.9</ele>
        <time>2014-04-27T08:08:50Z</time>
      </trkpt>
      <trkpt lat="45.52188" lon="4.05742">
        <ele>671.8</ele>
        <time>2014-04-27T08:08:55Z</time>
      </trkpt>
      <trkpt lat="45.52188" lon="4.05725">
        <ele>672.3</ele>
        <time>2014-04-27T08:09:00Z</time>
      </trkpt>
      <trkpt lat="45.52188" lon="4.05709">
        <ele>673.1</ele>
        <time>2014-04-27T08:09:05Z</time>
      </trkpt>
      <trkpt lat="45.52188" lon="4.05693">
        <ele>673.8</ele>
        <time>2014-04-27T08:09:10Z</time>
      </trkpt>
      <trkpt lat="45.52186" lon="4.05675">
        <ele>674.4</ele>
        <time>2014-04-27T08:09:16Z</time>
      </trkpt>
      <trkpt lat="45.52183" lon="4.05665">
        <ele>675.6</ele>
        <time>2014-04-27T08:09:29Z</time>
      </trkpt>
      <trkpt lat="45.52182" lon="4.05645">
        <ele>677.6</ele>
        <time>2014-04-27T08:09:44Z</time>
      </trkpt>
      <trkpt lat="45.52177" lon="4.05631">
        <ele>678.5</ele>
        <time>2014-04-27T08:09:54Z</time>
      </trkpt>
      <trkpt lat="45.52169" lon="4.05618">
        <ele>679.2</ele>
        <time>2014-04-27T08:10:03Z</time>
      </trkpt>
      <trkpt lat="45.52161" lon="4.05605">
        <ele>679.5</ele>
        <time>2014-04-27T08:10:10Z</time>
      </trkpt>
      <trkpt lat="45.52154" lon="4.0559">
        <ele>680.1</ele>
        <time>2014-04-27T08:10:16Z</time>
      </trkpt>
      <trkpt lat="45.52148" lon="4.05575">
        <ele>681</ele>
        <time>2014-04-27T08:10:21Z</time>
      </trkpt>
      <trkpt lat="45.52143" lon="4.05559">
        <ele>681.8</ele>
        <time>2014-04-27T08:10:25Z</time>
      </trkpt>
      <trkpt lat="45.52138" lon="4.05545">
        <ele>682.3</ele>
        <time>2014-04-27T08:10:29Z</time>
      </trkpt>
      <trkpt lat="45.52133" lon="4.05532">
        <ele>683.5</ele>
        <time>2014-04-27T08:10:34Z</time>
      </trkpt>
      <trkpt lat="45.52128" lon="4.05516">
        <ele>684.4</ele>
        <time>2014-04-27T08:10:38Z</time>
      </trkpt>
      <trkpt lat="45.52125" lon="4.05499">
        <ele>685.3</ele>
        <time>2014-04-27T08:10:43Z</time>
      </trkpt>
      <trkpt lat="45.52123" lon="4.05482">
        <ele>686.4</ele>
        <time>2014-04-27T08:10:48Z</time>
      </trkpt>
      <trkpt lat="45.52122" lon="4.05465">
        <ele>687.5</ele>
        <time>2014-04-27T08:10:53Z</time>
      </trkpt>
      <trkpt lat="45.52121" lon="4.05448">
        <ele>688.9</ele>
        <time>2014-04-27T08:10:58Z</time>
      </trkpt>
      <trkpt lat="45.5212" lon="4.05432">
        <ele>689.3</ele>
        <time>2014-04-27T08:11:03Z</time>
      </trkpt>
      <trkpt lat="45.5212" lon="4.05416">
        <ele>690</ele>
        <time>2014-04-27T08:11:08Z</time>
      </trkpt>
      <trkpt lat="45.52121" lon="4.05401">
        <ele>690.8</ele>
        <time>2014-04-27T08:11:13Z</time>
      </trkpt>
      <trkpt lat="45.52123" lon="4.05384">
        <ele>691.6</ele>
        <time>2014-04-27T08:11:19Z</time>
      </trkpt>
      <trkpt lat="45.52123" lon="4.05369">
        <ele>692.6</ele>
        <time>2014-04-27T08:11:24Z</time>
      </trkpt>
      <trkpt lat="45.52123" lon="4.05353">
        <ele>693.9</ele>
        <time>2014-04-27T08:11:29Z</time>
      </trkpt>
      <trkpt lat="45.52122" lon="4.05336">
        <ele>695.1</ele>
        <time>2014-04-27T08:11:35Z</time>
      </trkpt>
      <trkpt lat="45.52118" lon="4.05321">
        <ele>695.8</ele>
        <time>2014-04-27T08:11:41Z</time>
      </trkpt>
      <trkpt lat="45.52114" lon="4.05306">
        <ele>697.3</ele>
        <time>2014-04-27T08:11:47Z</time>
      </trkpt>
      <trkpt lat="45.52112" lon="4.05291">
        <ele>697.9</ele>
        <time>2014-04-27T08:11:52Z</time>
      </trkpt>
      <trkpt lat="45.52111" lon="4.05275">
        <ele>698.6</ele>
        <time>2014-04-27T08:11:57Z</time>
      </trkpt>
      <trkpt lat="45.52109" lon="4.0526">
        <ele>699.3</ele>
        <time>2014-04-27T08:12:04Z</time>
      </trkpt>
      <trkpt lat="45.52106" lon="4.05243">
        <ele>700.3</ele>
        <time>2014-04-27T08:12:10Z</time>
      </trkpt>
      <trkpt lat="45.52105" lon="4.05227">
        <ele>701.6</ele>
        <time>2014-04-27T08:12:15Z</time>
      </trkpt>
      <trkpt lat="45.52106" lon="4.05211">
        <ele>702.5</ele>
        <time>2014-04-27T08:12:20Z</time>
      </trkpt>
      <trkpt lat="45.52105" lon="4.05195">
        <ele>702.5</ele>
        <time>2014-04-27T08:12:25Z</time>
      </trkpt>
      <trkpt lat="45.52103" lon="4.05179">
        <ele>703.3</ele>
        <time>2014-04-27T08:12:30Z</time>
      </trkpt>
      <trkpt lat="45.52103" lon="4.05164">
        <ele>704</ele>
        <time>2014-04-27T08:12:35Z</time>
      </trkpt>
      <trkpt lat="45.52103" lon="4.05149">
        <ele>704.5</ele>
        <time>2014-04-27T08:12:40Z</time>
      </trkpt>
      <trkpt lat="45.52104" lon="4.05134">
        <ele>705.3</ele>
        <time>2014-04-27T08:12:45Z</time>
      </trkpt>
      <trkpt lat="45.52104" lon="4.05119">
        <ele>706.5</ele>
        <time>2014-04-27T08:12:50Z</time>
      </trkpt>
      <trkpt lat="45.52104" lon="4.05105">
        <ele>707.4</ele>
        <time>2014-04-27T08:12:55Z</time>
      </trkpt>
      <trkpt lat="45.52104" lon="4.0509">
        <ele>708.3</ele>
        <time>2014-04-27T08:13:00Z</time>
      </trkpt>
      <trkpt lat="45.52104" lon="4.05073">
        <ele>708.9</ele>
        <time>2014-04-27T08:13:05Z</time>
      </trkpt>
      <trkpt lat="45.52103" lon="4.05057">
        <ele>709.5</ele>
        <time>2014-04-27T08:13:10Z</time>
      </trkpt>
      <trkpt lat="45.52104" lon="4.05041">
        <ele>710.8</ele>
        <time>2014-04-27T08:13:15Z</time>
      </trkpt>
      <trkpt lat="45.52105" lon="4.05025">
        <ele>711.8</ele>
        <time>2014-04-27T08:13:20Z</time>
      </trkpt>
      <trkpt lat="45.52105" lon="4.05008">
        <ele>712.5</ele>
        <time>2014-04-27T08:13:25Z</time>
      </trkpt>
      <trkpt lat="45.52104" lon="4.04992">
        <ele>712.7</ele>
        <time>2014-04-27T08:13:31Z</time>
      </trkpt>
      <trkpt lat="45.52104" lon="4.04976">
        <ele>714</ele>
        <time>2014-04-27T08:13:37Z</time>
      </trkpt>
      <trkpt lat="45.52102" lon="4.04959">
        <ele>715.3</ele>
        <time>2014-04-27T08:13:44Z</time>
      </trkpt>
      <trkpt lat="45.52099" lon="4.04949">
        <ele>716.1</ele>
        <time>2014-04-27T08:13:53Z</time>
      </trkpt>
      <trkpt lat="45.52096" lon="4.04932">
        <ele>717.5</ele>
        <time>2014-04-27T08:14:01Z</time>
      </trkpt>
      <trkpt lat="45.52088" lon="4.04919">
        <ele>717.5</ele>
        <time>2014-04-27T08:14:07Z</time>
      </trkpt>
      <trkpt lat="45.52079" lon="4.04906">
        <ele>717.1</ele>
        <time>2014-04-27T08:14:13Z</time>
      </trkpt>
      <trkpt lat="45.52071" lon="4.04894">
        <ele>717.4</ele>
        <time>2014-04-27T08:14:18Z</time>
      </trkpt>
      <trkpt lat="45.52063" lon="4.04881">
        <ele>717.7</ele>
        <time>2014-04-27T08:14:24Z</time>
      </trkpt>
      <trkpt lat="45.52055" lon="4.04867">
        <ele>717.9</ele>
        <time>2014-04-27T08:14:29Z</time>
      </trkpt>
      <trkpt lat="45.52046" lon="4.04854">
        <ele>717.6</ele>
        <time>2014-04-27T08:14:34Z</time>
      </trkpt>
      <trkpt lat="45.52038" lon="4.0484">
        <ele>718.6</ele>
        <time>2014-04-27T08:14:39Z</time>
      </trkpt>
      <trkpt lat="45.52029" lon="4.04828">
        <ele>719.3</ele>
        <time>2014-04-27T08:14:44Z</time>
      </trkpt>
      <trkpt lat="45.52021" lon="4.04815">
        <ele>719.5</ele>
        <time>2014-04-27T08:14:49Z</time>
      </trkpt>
      <trkpt lat="45.52012" lon="4.04802">
        <ele>720.4</ele>
        <time>2014-04-27T08:14:55Z</time>
      </trkpt>
      <trkpt lat="45.52003" lon="4.04788">
        <ele>721.7</ele>
        <time>2014-04-27T08:15:01Z</time>
      </trkpt>
      <trkpt lat="45.52002" lon="4.04771">
        <ele>723.1</ele>
        <time>2014-04-27T08:15:06Z</time>
      </trkpt>
      <trkpt lat="45.52013" lon="4.04762">
        <ele>723.7</ele>
        <time>2014-04-27T08:15:12Z</time>
      </trkpt>
      <trkpt lat="45.52028" lon="4.04762">
        <ele>721.6</ele>
        <time>2014-04-27T08:15:18Z</time>
      </trkpt>
      <trkpt lat="45.52044" lon="4.04764">
        <ele>720.4</ele>
        <time>2014-04-27T08:15:25Z</time>
      </trkpt>
      <trkpt lat="45.5206" lon="4.04764">
        <ele>720.4</ele>
        <time>2014-04-27T08:15:31Z</time>
      </trkpt>
      <trkpt lat="45.52078" lon="4.04765">
        <ele>720.4</ele>
        <time>2014-04-27T08:15:37Z</time>
      </trkpt>
      <trkpt lat="45.52094" lon="4.04767">
        <ele>720.7</ele>
        <time>2014-04-27T08:15:43Z</time>
      </trkpt>
      <trkpt lat="45.52113" lon="4.04768">
        <ele>721.3</ele>
        <time>2014-04-27T08:15:49Z</time>
      </trkpt>
      <trkpt lat="45.52128" lon="4.04764">
        <ele>721.3</ele>
        <time>2014-04-27T08:15:54Z</time>
      </trkpt>
      <trkpt lat="45.52142" lon="4.04757">
        <ele>723</ele>
        <time>2014-04-27T08:15:59Z</time>
      </trkpt>
      <trkpt lat="45.52155" lon="4.04749">
        <ele>723.8</ele>
        <time>2014-04-27T08:16:05Z</time>
      </trkpt>
      <trkpt lat="45.52169" lon="4.04739">
        <ele>726.2</ele>
        <time>2014-04-27T08:16:11Z</time>
      </trkpt>
      <trkpt lat="45.52182" lon="4.04731">
        <ele>728.4</ele>
        <time>2014-04-27T08:16:18Z</time>
      </trkpt>
      <trkpt lat="45.52191" lon="4.04721">
        <ele>730</ele>
        <time>2014-04-27T08:16:25Z</time>
      </trkpt>
      <trkpt lat="45.52188" lon="4.04706">
        <ele>730.5</ele>
        <time>2014-04-27T08:16:31Z</time>
      </trkpt>
      <trkpt lat="45.52181" lon="4.04691">
        <ele>731</ele>
        <time>2014-04-27T08:16:37Z</time>
      </trkpt>
      <trkpt lat="45.52179" lon="4.04675">
        <ele>732.3</ele>
        <time>2014-04-27T08:16:42Z</time>
      </trkpt>
      <trkpt lat="45.52182" lon="4.04659">
        <ele>734.6</ele>
        <time>2014-04-27T08:16:48Z</time>
      </trkpt>
      <trkpt lat="45.52191" lon="4.04646">
        <ele>735.2</ele>
        <time>2014-04-27T08:16:54Z</time>
      </trkpt>
      <trkpt lat="45.52196" lon="4.0463">
        <ele>734.9</ele>
        <time>2014-04-27T08:17:01Z</time>
      </trkpt>
      <trkpt lat="45.52202" lon="4.04616">
        <ele>736.8</ele>
        <time>2014-04-27T08:17:07Z</time>
      </trkpt>
      <trkpt lat="45.5221" lon="4.04603">
        <ele>737.1</ele>
        <time>2014-04-27T08:17:13Z</time>
      </trkpt>
      <trkpt lat="45.52218" lon="4.0459">
        <ele>737.3</ele>
        <time>2014-04-27T08:17:19Z</time>
      </trkpt>
      <trkpt lat="45.52226" lon="4.04576">
        <ele>737.8</ele>
        <time>2014-04-27T08:17:25Z</time>
      </trkpt>
      <trkpt lat="45.52233" lon="4.04563">
        <ele>739.6</ele>
        <time>2014-04-27T08:17:31Z</time>
      </trkpt>
      <trkpt lat="45.52241" lon="4.04549">
        <ele>741.1</ele>
        <time>2014-04-27T08:17:37Z</time>
      </trkpt>
      <trkpt lat="45.52248" lon="4.04535">
        <ele>742.8</ele>
        <time>2014-04-27T08:17:44Z</time>
      </trkpt>
      <trkpt lat="45.52254" lon="4.04522">
        <ele>743.5</ele>
        <time>2014-04-27T08:17:50Z</time>
      </trkpt>
      <trkpt lat="45.5226" lon="4.04508">
        <ele>744.7</ele>
        <time>2014-04-27T08:17:56Z</time>
      </trkpt>
      <trkpt lat="45.52269" lon="4.04496">
        <ele>745.6</ele>
        <time>2014-04-27T08:18:03Z</time>
      </trkpt>
      <trkpt lat="45.52282" lon="4.04491">
        <ele>746.6</ele>
        <time>2014-04-27T08:18:11Z</time>
      </trkpt>
      <trkpt lat="45.52297" lon="4.04485">
        <ele>747.3</ele>
        <time>2014-04-27T08:18:18Z</time>
      </trkpt>
      <trkpt lat="45.52311" lon="4.04478">
        <ele>748.9</ele>
        <time>2014-04-27T08:18:25Z</time>
      </trkpt>
      <trkpt lat="45.52322" lon="4.04467">
        <ele>750.5</ele>
        <time>2014-04-27T08:18:32Z</time>
      </trkpt>
      <trkpt lat="45.52332" lon="4.04455">
        <ele>751.3</ele>
        <time>2014-04-27T08:18:38Z</time>
      </trkpt>
      <trkpt lat="45.52342" lon="4.04444">
        <ele>752.9</ele>
        <time>2014-04-27T08:18:44Z</time>
      </trkpt>
      <trkpt lat="45.52351" lon="4.04431">
        <ele>754.7</ele>
        <time>2014-04-27T08:18:50Z</time>
      </trkpt>
      <trkpt lat="45.52361" lon="4.04419">
        <ele>756.1</ele>
        <time>2014-04-27T08:18:56Z</time>
      </trkpt>
      <trkpt lat="45.52372" lon="4.04406">
        <ele>756.7</ele>
        <time>2014-04-27T08:19:02Z</time>
      </trkpt>
      <trkpt lat="45.52382" lon="4.04394">
        <ele>757.3</ele>
        <time>2014-04-27T08:19:08Z</time>
      </trkpt>
      <trkpt lat="45.52389" lon="4.0438">
        <ele>758.4</ele>
        <time>2014-04-27T08:19:13Z</time>
      </trkpt>
      <trkpt lat="45.52395" lon="4.04366">
        <ele>759</ele>
        <time>2014-04-27T08:19:18Z</time>
      </trkpt>
      <trkpt lat="45.524" lon="4.0435">
        <ele>759.8</ele>
        <time>2014-04-27T08:19:23Z</time>
      </trkpt>
      <trkpt lat="45.52407" lon="4.04336">
        <ele>760</ele>
        <time>2014-04-27T08:19:28Z</time>
      </trkpt>
      <trkpt lat="45.52413" lon="4.04322">
        <ele>760.4</ele>
        <time>2014-04-27T08:19:33Z</time>
      </trkpt>
      <trkpt lat="45.52417" lon="4.04307">
        <ele>760.3</ele>
        <time>2014-04-27T08:19:37Z</time>
      </trkpt>
      <trkpt lat="45.52418" lon="4.04292">
        <ele>760.5</ele>
        <time>2014-04-27T08:19:42Z</time>
      </trkpt>
      <trkpt lat="45.52419" lon="4.04277">
        <ele>760.5</ele>
        <time>2014-04-27T08:19:46Z</time>
      </trkpt>
      <trkpt lat="45.52421" lon="4.04262">
        <ele>761</ele>
        <time>2014-04-27T08:19:50Z</time>
      </trkpt>
      <trkpt lat="45.52424" lon="4.04246">
        <ele>761</ele>
        <time>2014-04-27T08:19:55Z</time>
      </trkpt>
      <trkpt lat="45.52426" lon="4.0423">
        <ele>761</ele>
        <time>2014-04-27T08:19:59Z</time>
      </trkpt>
      <trkpt lat="45.52429" lon="4.04214">
        <ele>761</ele>
        <time>2014-04-27T08:20:02Z</time>
      </trkpt>
      <trkpt lat="45.52432" lon="4.04196">
        <ele>761</ele>
        <time>2014-04-27T08:20:07Z</time>
      </trkpt>
      <trkpt lat="45.52437" lon="4.0418">
        <ele>760.5</ele>
        <time>2014-04-27T08:20:10Z</time>
      </trkpt>
      <trkpt lat="45.52443" lon="4.04167">
        <ele>760</ele>
        <time>2014-04-27T08:20:13Z</time>
      </trkpt>
      <trkpt lat="45.52449" lon="4.04151">
        <ele>760</ele>
        <time>2014-04-27T08:20:17Z</time>
      </trkpt>
      <trkpt lat="45.52457" lon="4.04135">
        <ele>760</ele>
        <time>2014-04-27T08:20:20Z</time>
      </trkpt>
      <trkpt lat="45.52465" lon="4.0412">
        <ele>760</ele>
        <time>2014-04-27T08:20:25Z</time>
      </trkpt>
      <trkpt lat="45.52466" lon="4.041">
        <ele>763.9</ele>
        <time>2014-04-27T08:20:29Z</time>
      </trkpt>
      <trkpt lat="45.52464" lon="4.0409">
        <ele>763.9</ele>
        <time>2014-04-27T08:20:33Z</time>
      </trkpt>
      <trkpt lat="45.52463" lon="4.0407">
        <ele>763.5</ele>
        <time>2014-04-27T08:21:02Z</time>
      </trkpt>
      <trkpt lat="45.52463" lon="4.04053">
        <ele>763.5</ele>
        <time>2014-04-27T08:21:06Z</time>
      </trkpt>
      <trkpt lat="45.52463" lon="4.04038">
        <ele>763.3</ele>
        <time>2014-04-27T08:21:11Z</time>
      </trkpt>
      <trkpt lat="45.52463" lon="4.04022">
        <ele>763.5</ele>
        <time>2014-04-27T08:21:15Z</time>
      </trkpt>
      <trkpt lat="45.52464" lon="4.04006">
        <ele>763.8</ele>
        <time>2014-04-27T08:21:19Z</time>
      </trkpt>
      <trkpt lat="45.52464" lon="4.03992">
        <ele>764</ele>
        <time>2014-04-27T08:21:24Z</time>
      </trkpt>
      <trkpt lat="45.52463" lon="4.03976">
        <ele>764.8</ele>
        <time>2014-04-27T08:21:28Z</time>
      </trkpt>
      <trkpt lat="45.52464" lon="4.03959">
        <ele>765</ele>
        <time>2014-04-27T08:21:31Z</time>
      </trkpt>
      <trkpt lat="45.52465" lon="4.03943">
        <ele>765.5</ele>
        <time>2014-04-27T08:21:36Z</time>
      </trkpt>
      <trkpt lat="45.52464" lon="4.03926">
        <ele>765.5</ele>
        <time>2014-04-27T08:21:40Z</time>
      </trkpt>
      <trkpt lat="45.52463" lon="4.03908">
        <ele>766</ele>
        <time>2014-04-27T08:21:43Z</time>
      </trkpt>
      <trkpt lat="45.52462" lon="4.03891">
        <ele>766.8</ele>
        <time>2014-04-27T08:21:48Z</time>
      </trkpt>
      <trkpt lat="45.5246" lon="4.03875">
        <ele>767</ele>
        <time>2014-04-27T08:21:52Z</time>
      </trkpt>
      <trkpt lat="45.52458" lon="4.03859">
        <ele>767</ele>
        <time>2014-04-27T08:21:56Z</time>
      </trkpt>
      <trkpt lat="45.52456" lon="4.03842">
        <ele>767</ele>
        <time>2014-04-27T08:22:00Z</time>
      </trkpt>
      <trkpt lat="45.52454" lon="4.03827">
        <ele>767.2</ele>
        <time>2014-04-27T08:22:03Z</time>
      </trkpt>
      <trkpt lat="45.52451" lon="4.03811">
        <ele>767.5</ele>
        <time>2014-04-27T08:22:08Z</time>
      </trkpt>
      <trkpt lat="45.52448" lon="4.03795">
        <ele>768</ele>
        <time>2014-04-27T08:22:12Z</time>
      </trkpt>
      <trkpt lat="45.52446" lon="4.03779">
        <ele>768.7</ele>
        <time>2014-04-27T08:22:15Z</time>
      </trkpt>
      <trkpt lat="45.52443" lon="4.03764">
        <ele>769</ele>
        <time>2014-04-27T08:22:20Z</time>
      </trkpt>
      <trkpt lat="45.52441" lon="4.03749">
        <ele>769.5</ele>
        <time>2014-04-27T08:22:24Z</time>
      </trkpt>
      <trkpt lat="45.5244" lon="4.03734">
        <ele>769.8</ele>
        <time>2014-04-27T08:22:28Z</time>
      </trkpt>
      <trkpt lat="45.52438" lon="4.03718">
        <ele>769.8</ele>
        <time>2014-04-27T08:22:32Z</time>
      </trkpt>
      <trkpt lat="45.52437" lon="4.03703">
        <ele>770</ele>
        <time>2014-04-27T08:22:35Z</time>
      </trkpt>
      <trkpt lat="45.52436" lon="4.03688">
        <ele>770</ele>
        <time>2014-04-27T08:22:40Z</time>
      </trkpt>
      <trkpt lat="45.52435" lon="4.03673">
        <ele>770</ele>
        <time>2014-04-27T08:22:44Z</time>
      </trkpt>
      <trkpt lat="45.52433" lon="4.03657">
        <ele>770.8</ele>
        <time>2014-04-27T08:22:48Z</time>
      </trkpt>
      <trkpt lat="45.52433" lon="4.0364">
        <ele>771.9</ele>
        <time>2014-04-27T08:22:53Z</time>
      </trkpt>
      <trkpt lat="45.52433" lon="4.03623">
        <ele>772</ele>
        <time>2014-04-27T08:22:58Z</time>
      </trkpt>
      <trkpt lat="45.52432" lon="4.03609">
        <ele>772.2</ele>
        <time>2014-04-27T08:23:02Z</time>
      </trkpt>
      <trkpt lat="45.52433" lon="4.03594">
        <ele>772</ele>
        <time>2014-04-27T08:23:06Z</time>
      </trkpt>
      <trkpt lat="45.52433" lon="4.03578">
        <ele>772.9</ele>
        <time>2014-04-27T08:23:10Z</time>
      </trkpt>
      <trkpt lat="45.52434" lon="4.03561">
        <ele>773.3</ele>
        <time>2014-04-27T08:23:15Z</time>
      </trkpt>
      <trkpt lat="45.52436" lon="4.03545">
        <ele>773.9</ele>
        <time>2014-04-27T08:23:20Z</time>
      </trkpt>
      <trkpt lat="45.52437" lon="4.03529">
        <ele>775.1</ele>
        <time>2014-04-27T08:23:25Z</time>
      </trkpt>
      <trkpt lat="45.52439" lon="4.03512">
        <ele>775.8</ele>
        <time>2014-04-27T08:23:30Z</time>
      </trkpt>
      <trkpt lat="45.52442" lon="4.03497">
        <ele>777</ele>
        <time>2014-04-27T08:23:35Z</time>
      </trkpt>
      <trkpt lat="45.52448" lon="4.03481">
        <ele>778</ele>
        <time>2014-04-27T08:23:40Z</time>
      </trkpt>
      <trkpt lat="45.52454" lon="4.03465">
        <ele>778.9</ele>
        <time>2014-04-27T08:23:45Z</time>
      </trkpt>
      <trkpt lat="45.52466" lon="4.03457">
        <ele>778.5</ele>
        <time>2014-04-27T08:23:50Z</time>
      </trkpt>
      <trkpt lat="45.52481" lon="4.0345">
        <ele>778.1</ele>
        <time>2014-04-27T08:23:55Z</time>
      </trkpt>
      <trkpt lat="45.52495" lon="4.0344">
        <ele>778.5</ele>
        <time>2014-04-27T08:24:00Z</time>
      </trkpt>
      <trkpt lat="45.52509" lon="4.0343">
        <ele>777.6</ele>
        <time>2014-04-27T08:24:05Z</time>
      </trkpt>
      <trkpt lat="45.52524" lon="4.03423">
        <ele>777.5</ele>
        <time>2014-04-27T08:24:10Z</time>
      </trkpt>
      <trkpt lat="45.52537" lon="4.03415">
        <ele>778</ele>
        <time>2014-04-27T08:24:15Z</time>
      </trkpt>
      <trkpt lat="45.52551" lon="4.03407">
        <ele>778.1</ele>
        <time>2014-04-27T08:24:20Z</time>
      </trkpt>
      <trkpt lat="45.52565" lon="4.03398">
        <ele>778.4</ele>
        <time>2014-04-27T08:24:25Z</time>
      </trkpt>
      <trkpt lat="45.52577" lon="4.03387">
        <ele>778</ele>
        <time>2014-04-27T08:24:29Z</time>
      </trkpt>
      <trkpt lat="45.52585" lon="4.03372">
        <ele>777.7</ele>
        <time>2014-04-27T08:24:34Z</time>
      </trkpt>
      <trkpt lat="45.52594" lon="4.03356">
        <ele>777.5</ele>
        <time>2014-04-27T08:24:38Z</time>
      </trkpt>
      <trkpt lat="45.52601" lon="4.03342">
        <ele>777.7</ele>
        <time>2014-04-27T08:24:41Z</time>
      </trkpt>
      <trkpt lat="45.5261" lon="4.03328">
        <ele>777.5</ele>
        <time>2014-04-27T08:24:47Z</time>
      </trkpt>
      <trkpt lat="45.5262" lon="4.03318">
        <ele>777.5</ele>
        <time>2014-04-27T08:24:53Z</time>
      </trkpt>
      <trkpt lat="45.52634" lon="4.03311">
        <ele>776.9</ele>
        <time>2014-04-27T08:24:59Z</time>
      </trkpt>
      <trkpt lat="45.52651" lon="4.03306">
        <ele>777</ele>
        <time>2014-04-27T08:25:04Z</time>
      </trkpt>
      <trkpt lat="45.52666" lon="4.03301">
        <ele>777</ele>
        <time>2014-04-27T08:25:08Z</time>
      </trkpt>
      <trkpt lat="45.5268" lon="4.03297">
        <ele>777</ele>
        <time>2014-04-27T08:25:13Z</time>
      </trkpt>
      <trkpt lat="45.52696" lon="4.03292">
        <ele>777.4</ele>
        <time>2014-04-27T08:25:17Z</time>
      </trkpt>
      <trkpt lat="45.52712" lon="4.03287">
        <ele>776.9</ele>
        <time>2014-04-27T08:25:22Z</time>
      </trkpt>
      <trkpt lat="45.52728" lon="4.03282">
        <ele>775.6</ele>
        <time>2014-04-27T08:25:27Z</time>
      </trkpt>
      <trkpt lat="45.52744" lon="4.03277">
        <ele>774.8</ele>
        <time>2014-04-27T08:25:32Z</time>
      </trkpt>
      <trkpt lat="45.52759" lon="4.03272">
        <ele>774.3</ele>
        <time>2014-04-27T08:25:36Z</time>
      </trkpt>
      <trkpt lat="45.52775" lon="4.03266">
        <ele>773.3</ele>
        <time>2014-04-27T08:25:39Z</time>
      </trkpt>
      <trkpt lat="45.52792" lon="4.03262">
        <ele>772</ele>
        <time>2014-04-27T08:25:44Z</time>
      </trkpt>
      <trkpt lat="45.52809" lon="4.03257">
        <ele>770.5</ele>
        <time>2014-04-27T08:25:47Z</time>
      </trkpt>
      <trkpt lat="45.52826" lon="4.03249">
        <ele>768</ele>
        <time>2014-04-27T08:25:50Z</time>
      </trkpt>
      <trkpt lat="45.52838" lon="4.03239">
        <ele>767</ele>
        <time>2014-04-27T08:25:51Z</time>
      </trkpt>
      <trkpt lat="45.52849" lon="4.03225">
        <ele>765.5</ele>
        <time>2014-04-27T08:25:53Z</time>
      </trkpt>
      <trkpt lat="45.52859" lon="4.03209">
        <ele>765</ele>
        <time>2014-04-27T08:25:56Z</time>
      </trkpt>
      <trkpt lat="45.52867" lon="4.03189">
        <ele>763.5</ele>
        <time>2014-04-27T08:25:58Z</time>
      </trkpt>
      <trkpt lat="45.52874" lon="4.0317">
        <ele>763.5</ele>
        <time>2014-04-27T08:25:59Z</time>
      </trkpt>
      <trkpt lat="45.52884" lon="4.03154">
        <ele>764</ele>
        <time>2014-04-27T08:26:02Z</time>
      </trkpt>
      <trkpt lat="45.52897" lon="4.03144">
        <ele>764</ele>
        <time>2014-04-27T08:26:05Z</time>
      </trkpt>
      <trkpt lat="45.52911" lon="4.03132">
        <ele>763.8</ele>
        <time>2014-04-27T08:26:08Z</time>
      </trkpt>
      <trkpt lat="45.52922" lon="4.03115">
        <ele>763.5</ele>
        <time>2014-04-27T08:26:11Z</time>
      </trkpt>
      <trkpt lat="45.52929" lon="4.03099">
        <ele>764.5</ele>
        <time>2014-04-27T08:26:14Z</time>
      </trkpt>
      <trkpt lat="45.52935" lon="4.03083">
        <ele>764.3</ele>
        <time>2014-04-27T08:26:17Z</time>
      </trkpt>
      <trkpt lat="45.52939" lon="4.03066">
        <ele>763.2</ele>
        <time>2014-04-27T08:26:21Z</time>
      </trkpt>
      <trkpt lat="45.52943" lon="4.0305">
        <ele>763.5</ele>
        <time>2014-04-27T08:26:24Z</time>
      </trkpt>
      <trkpt lat="45.52952" lon="4.03036">
        <ele>763.6</ele>
        <time>2014-04-27T08:26:29Z</time>
      </trkpt>
      <trkpt lat="45.52963" lon="4.03024">
        <ele>764.3</ele>
        <time>2014-04-27T08:26:34Z</time>
      </trkpt>
      <trkpt lat="45.52977" lon="4.03014">
        <ele>765</ele>
        <time>2014-04-27T08:26:39Z</time>
      </trkpt>
      <trkpt lat="45.52991" lon="4.03005">
        <ele>764.5</ele>
        <time>2014-04-27T08:26:42Z</time>
      </trkpt>
      <trkpt lat="45.53006" lon="4.02993">
        <ele>764.5</ele>
        <time>2014-04-27T08:26:47Z</time>
      </trkpt>
      <trkpt lat="45.5302" lon="4.02981">
        <ele>765.5</ele>
        <time>2014-04-27T08:26:50Z</time>
      </trkpt>
      <trkpt lat="45.53034" lon="4.02974">
        <ele>767.1</ele>
        <time>2014-04-27T08:26:55Z</time>
      </trkpt>
      <trkpt lat="45.5305" lon="4.02967">
        <ele>767.8</ele>
        <time>2014-04-27T08:27:00Z</time>
      </trkpt>
      <trkpt lat="45.53065" lon="4.0296">
        <ele>768</ele>
        <time>2014-04-27T08:27:05Z</time>
      </trkpt>
      <trkpt lat="45.5308" lon="4.02954">
        <ele>768.3</ele>
        <time>2014-04-27T08:27:08Z</time>
      </trkpt>
      <trkpt lat="45.53096" lon="4.02947">
        <ele>768.4</ele>
        <time>2014-04-27T08:27:13Z</time>
      </trkpt>
      <trkpt lat="45.5311" lon="4.02941">
        <ele>768.8</ele>
        <time>2014-04-27T08:27:19Z</time>
      </trkpt>
      <trkpt lat="45.53125" lon="4.02936">
        <ele>769.5</ele>
        <time>2014-04-27T08:27:25Z</time>
      </trkpt>
      <trkpt lat="45.53142" lon="4.02931">
        <ele>769.8</ele>
        <time>2014-04-27T08:27:30Z</time>
      </trkpt>
      <trkpt lat="45.53158" lon="4.02924">
        <ele>770</ele>
        <time>2014-04-27T08:27:34Z</time>
      </trkpt>
      <trkpt lat="45.53173" lon="4.02919">
        <ele>770</ele>
        <time>2014-04-27T08:27:39Z</time>
      </trkpt>
      <trkpt lat="45.53189" lon="4.02913">
        <ele>770.2</ele>
        <time>2014-04-27T08:27:43Z</time>
      </trkpt>
      <trkpt lat="45.53205" lon="4.02906">
        <ele>770.3</ele>
        <time>2014-04-27T08:27:46Z</time>
      </trkpt>
      <trkpt lat="45.53218" lon="4.02896">
        <ele>770.6</ele>
        <time>2014-04-27T08:27:52Z</time>
      </trkpt>
      <trkpt lat="45.53229" lon="4.02885">
        <ele>770.8</ele>
        <time>2014-04-27T08:27:58Z</time>
      </trkpt>
      <trkpt lat="45.53237" lon="4.02871">
        <ele>770.8</ele>
        <time>2014-04-27T08:28:03Z</time>
      </trkpt>
      <trkpt lat="45.53244" lon="4.02857">
        <ele>771.5</ele>
        <time>2014-04-27T08:28:08Z</time>
      </trkpt>
      <trkpt lat="45.53251" lon="4.02842">
        <ele>772</ele>
        <time>2014-04-27T08:28:12Z</time>
      </trkpt>
      <trkpt lat="45.53258" lon="4.0283">
        <ele>772.5</ele>
        <time>2014-04-27T08:28:17Z</time>
      </trkpt>
      <trkpt lat="45.53268" lon="4.02817">
        <ele>772.1</ele>
        <time>2014-04-27T08:28:21Z</time>
      </trkpt>
      <trkpt lat="45.53279" lon="4.02807">
        <ele>772.8</ele>
        <time>2014-04-27T08:28:25Z</time>
      </trkpt>
      <trkpt lat="45.5329" lon="4.02796">
        <ele>772.3</ele>
        <time>2014-04-27T08:28:29Z</time>
      </trkpt>
      <trkpt lat="45.53301" lon="4.02783">
        <ele>771.8</ele>
        <time>2014-04-27T08:28:32Z</time>
      </trkpt>
      <trkpt lat="45.53311" lon="4.02765">
        <ele>771</ele>
        <time>2014-04-27T08:28:35Z</time>
      </trkpt>
      <trkpt lat="45.5332" lon="4.02746">
        <ele>770.5</ele>
        <time>2014-04-27T08:28:38Z</time>
      </trkpt>
      <trkpt lat="45.53328" lon="4.02729">
        <ele>770.3</ele>
        <time>2014-04-27T08:28:41Z</time>
      </trkpt>
      <trkpt lat="45.53333" lon="4.02713">
        <ele>769</ele>
        <time>2014-04-27T08:28:44Z</time>
      </trkpt>
      <trkpt lat="45.53334" lon="4.02694">
        <ele>767.3</ele>
        <time>2014-04-27T08:28:47Z</time>
      </trkpt>
      <trkpt lat="45.53331" lon="4.02676">
        <ele>766</ele>
        <time>2014-04-27T08:28:50Z</time>
      </trkpt>
      <trkpt lat="45.53328" lon="4.02661">
        <ele>765</ele>
        <time>2014-04-27T08:28:51Z</time>
      </trkpt>
      <trkpt lat="45.53325" lon="4.02644">
        <ele>764.5</ele>
        <time>2014-04-27T08:28:54Z</time>
      </trkpt>
      <trkpt lat="45.53323" lon="4.02627">
        <ele>764.5</ele>
        <time>2014-04-27T08:28:56Z</time>
      </trkpt>
      <trkpt lat="45.53323" lon="4.0261">
        <ele>764.5</ele>
        <time>2014-04-27T08:28:57Z</time>
      </trkpt>
      <trkpt lat="45.53325" lon="4.02594">
        <ele>764</ele>
        <time>2014-04-27T08:29:00Z</time>
      </trkpt>
      <trkpt lat="45.53328" lon="4.02579">
        <ele>764.5</ele>
        <time>2014-04-27T08:29:02Z</time>
      </trkpt>
      <trkpt lat="45.53332" lon="4.02563">
        <ele>764.5</ele>
        <time>2014-04-27T08:29:03Z</time>
      </trkpt>
      <trkpt lat="45.53338" lon="4.02547">
        <ele>763.8</ele>
        <time>2014-04-27T08:29:06Z</time>
      </trkpt>
      <trkpt lat="45.53343" lon="4.02531">
        <ele>763.5</ele>
        <time>2014-04-27T08:29:09Z</time>
      </trkpt>
      <trkpt lat="45.53345" lon="4.02514">
        <ele>763</ele>
        <time>2014-04-27T08:29:12Z</time>
      </trkpt>
      <trkpt lat="45.53345" lon="4.02496">
        <ele>762.5</ele>
        <time>2014-04-27T08:29:15Z</time>
      </trkpt>
      <trkpt lat="45.53345" lon="4.0248">
        <ele>762.5</ele>
        <time>2014-04-27T08:29:16Z</time>
      </trkpt>
      <trkpt lat="45.53346" lon="4.02465">
        <ele>762</ele>
        <time>2014-04-27T08:29:19Z</time>
      </trkpt>
      <trkpt lat="45.5335" lon="4.02447">
        <ele>761.5</ele>
        <time>2014-04-27T08:29:21Z</time>
      </trkpt>
      <trkpt lat="45.53356" lon="4.02429">
        <ele>761.3</ele>
        <time>2014-04-27T08:29:24Z</time>
      </trkpt>
      <trkpt lat="45.53361" lon="4.0241">
        <ele>761</ele>
        <time>2014-04-27T08:29:27Z</time>
      </trkpt>
      <trkpt lat="45.53366" lon="4.02391">
        <ele>760.5</ele>
        <time>2014-04-27T08:29:30Z</time>
      </trkpt>
      <trkpt lat="45.5337" lon="4.02372">
        <ele>760.5</ele>
        <time>2014-04-27T08:29:33Z</time>
      </trkpt>
      <trkpt lat="45.53374" lon="4.02354">
        <ele>760.5</ele>
        <time>2014-04-27T08:29:36Z</time>
      </trkpt>
      <trkpt lat="45.53375" lon="4.02337">
        <ele>760.5</ele>
        <time>2014-04-27T08:29:39Z</time>
      </trkpt>
      <trkpt lat="45.53373" lon="4.02319">
        <ele>760.3</ele>
        <time>2014-04-27T08:29:41Z</time>
      </trkpt>
      <trkpt lat="45.53369" lon="4.02299">
        <ele>760</ele>
        <time>2014-04-27T08:29:44Z</time>
      </trkpt>
      <trkpt lat="45.53368" lon="4.0228">
        <ele>760</ele>
        <time>2014-04-27T08:29:47Z</time>
      </trkpt>
      <trkpt lat="45.53373" lon="4.02264">
        <ele>759.5</ele>
        <time>2014-04-27T08:29:50Z</time>
      </trkpt>
      <trkpt lat="45.53379" lon="4.02249">
        <ele>760</ele>
        <time>2014-04-27T08:29:53Z</time>
      </trkpt>
      <trkpt lat="45.53386" lon="4.02235">
        <ele>760</ele>
        <time>2014-04-27T08:29:56Z</time>
      </trkpt>
      <trkpt lat="45.53393" lon="4.02219">
        <ele>760</ele>
        <time>2014-04-27T08:29:59Z</time>
      </trkpt>
      <trkpt lat="45.534" lon="4.02204">
        <ele>760</ele>
        <time>2014-04-27T08:30:02Z</time>
      </trkpt>
      <trkpt lat="45.53408" lon="4.02189">
        <ele>760</ele>
        <time>2014-04-27T08:30:05Z</time>
      </trkpt>
      <trkpt lat="45.53415" lon="4.02173">
        <ele>759.5</ele>
        <time>2014-04-27T08:30:08Z</time>
      </trkpt>
      <trkpt lat="45.53423" lon="4.02159">
        <ele>759.3</ele>
        <time>2014-04-27T08:30:11Z</time>
      </trkpt>
      <trkpt lat="45.53433" lon="4.02146">
        <ele>759</ele>
        <time>2014-04-27T08:30:15Z</time>
      </trkpt>
      <trkpt lat="45.53446" lon="4.02134">
        <ele>760</ele>
        <time>2014-04-27T08:30:19Z</time>
      </trkpt>
      <trkpt lat="45.53458" lon="4.02124">
        <ele>760.5</ele>
        <time>2014-04-27T08:30:23Z</time>
      </trkpt>
      <trkpt lat="45.5347" lon="4.02114">
        <ele>761.2</ele>
        <time>2014-04-27T08:30:26Z</time>
      </trkpt>
      <trkpt lat="45.5348" lon="4.02106">
        <ele>761.5</ele>
        <time>2014-04-27T08:30:30Z</time>
      </trkpt>
      <trkpt lat="45.53491" lon="4.02093">
        <ele>762</ele>
        <time>2014-04-27T08:30:35Z</time>
      </trkpt>
      <trkpt lat="45.53496" lon="4.02078">
        <ele>762.2</ele>
        <time>2014-04-27T08:30:38Z</time>
      </trkpt>
      <trkpt lat="45.53497" lon="4.02063">
        <ele>762.7</ele>
        <time>2014-04-27T08:30:43Z</time>
      </trkpt>
      <trkpt lat="45.53497" lon="4.02048">
        <ele>763.2</ele>
        <time>2014-04-27T08:30:47Z</time>
      </trkpt>
      <trkpt lat="45.53496" lon="4.02032">
        <ele>763.5</ele>
        <time>2014-04-27T08:30:51Z</time>
      </trkpt>
      <trkpt lat="45.53496" lon="4.02016">
        <ele>764.3</ele>
        <time>2014-04-27T08:30:55Z</time>
      </trkpt>
      <trkpt lat="45.53495" lon="4.02">
        <ele>765</ele>
        <time>2014-04-27T08:30:58Z</time>
      </trkpt>
      <trkpt lat="45.53495" lon="4.01984">
        <ele>765.7</ele>
        <time>2014-04-27T08:31:03Z</time>
      </trkpt>
      <trkpt lat="45.53494" lon="4.01969">
        <ele>766.5</ele>
        <time>2014-04-27T08:31:07Z</time>
      </trkpt>
      <trkpt lat="45.53494" lon="4.01952">
        <ele>767.2</ele>
        <time>2014-04-27T08:31:10Z</time>
      </trkpt>
      <trkpt lat="45.53493" lon="4.01936">
        <ele>767.5</ele>
        <time>2014-04-27T08:31:15Z</time>
      </trkpt>
      <trkpt lat="45.53492" lon="4.01917">
        <ele>768</ele>
        <time>2014-04-27T08:31:19Z</time>
      </trkpt>
      <trkpt lat="45.53491" lon="4.01899">
        <ele>769</ele>
        <time>2014-04-27T08:31:23Z</time>
      </trkpt>
      <trkpt lat="45.53491" lon="4.01882">
        <ele>770</ele>
        <time>2014-04-27T08:31:27Z</time>
      </trkpt>
      <trkpt lat="45.53491" lon="4.01865">
        <ele>770.8</ele>
        <time>2014-04-27T08:31:30Z</time>
      </trkpt>
      <trkpt lat="45.53489" lon="4.01848">
        <ele>771.5</ele>
        <time>2014-04-27T08:31:35Z</time>
      </trkpt>
      <trkpt lat="45.53488" lon="4.01833">
        <ele>772</ele>
        <time>2014-04-27T08:31:40Z</time>
      </trkpt>
      <trkpt lat="45.53491" lon="4.01819">
        <ele>772</ele>
        <time>2014-04-27T08:31:43Z</time>
      </trkpt>
      <trkpt lat="45.53501" lon="4.01806">
        <ele>772.3</ele>
        <time>2014-04-27T08:31:48Z</time>
      </trkpt>
      <trkpt lat="45.53513" lon="4.01795">
        <ele>772.6</ele>
        <time>2014-04-27T08:31:54Z</time>
      </trkpt>
      <trkpt lat="45.53527" lon="4.01788">
        <ele>773.4</ele>
        <time>2014-04-27T08:32:00Z</time>
      </trkpt>
      <trkpt lat="45.53542" lon="4.01782">
        <ele>774.3</ele>
        <time>2014-04-27T08:32:06Z</time>
      </trkpt>
      <trkpt lat="45.53559" lon="4.01776">
        <ele>775.4</ele>
        <time>2014-04-27T08:32:13Z</time>
      </trkpt>
      <trkpt lat="45.53572" lon="4.01771">
        <ele>776.8</ele>
        <time>2014-04-27T08:32:22Z</time>
      </trkpt>
      <trkpt lat="45.53575" lon="4.01761">
        <ele>779.5</ele>
        <time>2014-04-27T08:32:35Z</time>
      </trkpt>
      <trkpt lat="45.53569" lon="4.01748">
        <ele>781.7</ele>
        <time>2014-04-27T08:32:48Z</time>
      </trkpt>
      <trkpt lat="45.53567" lon="4.01731">
        <ele>783.3</ele>
        <time>2014-04-27T08:32:58Z</time>
      </trkpt>
      <trkpt lat="45.53565" lon="4.01717">
        <ele>785</ele>
        <time>2014-04-27T08:33:08Z</time>
      </trkpt>
      <trkpt lat="45.53562" lon="4.01702">
        <ele>787</ele>
        <time>2014-04-27T08:33:19Z</time>
      </trkpt>
      <trkpt lat="45.53563" lon="4.01686">
        <ele>789.2</ele>
        <time>2014-04-27T08:33:30Z</time>
      </trkpt>
      <trkpt lat="45.53564" lon="4.0167">
        <ele>791</ele>
        <time>2014-04-27T08:33:40Z</time>
      </trkpt>
      <trkpt lat="45.53564" lon="4.01656">
        <ele>792.1</ele>
        <time>2014-04-27T08:33:49Z</time>
      </trkpt>
      <trkpt lat="45.53566" lon="4.0164">
        <ele>792.5</ele>
        <time>2014-04-27T08:33:59Z</time>
      </trkpt>
      <trkpt lat="45.53567" lon="4.01624">
        <ele>793.2</ele>
        <time>2014-04-27T08:34:08Z</time>
      </trkpt>
      <trkpt lat="45.53569" lon="4.01609">
        <ele>793.9</ele>
        <time>2014-04-27T08:34:19Z</time>
      </trkpt>
      <trkpt lat="45.53574" lon="4.01595">
        <ele>794.3</ele>
        <time>2014-04-27T08:34:29Z</time>
      </trkpt>
      <trkpt lat="45.53576" lon="4.0158">
        <ele>796.6</ele>
        <time>2014-04-27T08:34:38Z</time>
      </trkpt>
      <trkpt lat="45.53576" lon="4.01564">
        <ele>796.9</ele>
        <time>2014-04-27T08:34:48Z</time>
      </trkpt>
      <trkpt lat="45.53573" lon="4.0155">
        <ele>795.8</ele>
        <time>2014-04-27T08:34:58Z</time>
      </trkpt>
      <trkpt lat="45.53568" lon="4.01537">
        <ele>794.2</ele>
        <time>2014-04-27T08:35:09Z</time>
      </trkpt>
      <trkpt lat="45.53562" lon="4.01523">
        <ele>793.8</ele>
        <time>2014-04-27T08:35:20Z</time>
      </trkpt>
      <trkpt lat="45.53559" lon="4.01509">
        <ele>794</ele>
        <time>2014-04-27T08:35:29Z</time>
      </trkpt>
      <trkpt lat="45.53557" lon="4.01494">
        <ele>796.6</ele>
        <time>2014-04-27T08:35:37Z</time>
      </trkpt>
      <trkpt lat="45.53557" lon="4.01479">
        <ele>798.9</ele>
        <time>2014-04-27T08:35:46Z</time>
      </trkpt>
      <trkpt lat="45.53565" lon="4.01465">
        <ele>801.3</ele>
        <time>2014-04-27T08:35:56Z</time>
      </trkpt>
      <trkpt lat="45.53573" lon="4.01453">
        <ele>802.3</ele>
        <time>2014-04-27T08:36:06Z</time>
      </trkpt>
      <trkpt lat="45.53582" lon="4.01438">
        <ele>805.7</ele>
        <time>2014-04-27T08:36:11Z</time>
      </trkpt>
      <trkpt lat="45.53579" lon="4.01428">
        <ele>815.3</ele>
        <time>2014-04-27T08:36:27Z</time>
      </trkpt>
      <trkpt lat="45.53568" lon="4.01417">
        <ele>821</ele>
        <time>2014-04-27T08:36:55Z</time>
      </trkpt>
      <trkpt lat="45.53561" lon="4.01405">
        <ele>823.7</ele>
        <time>2014-04-27T08:37:06Z</time>
      </trkpt>
      <trkpt lat="45.53565" lon="4.01389">
        <ele>823.5</ele>
        <time>2014-04-27T08:37:12Z</time>
      </trkpt>
      <trkpt lat="45.53567" lon="4.01373">
        <ele>822.2</ele>
        <time>2014-04-27T08:37:38Z</time>
      </trkpt>
      <trkpt lat="45.53568" lon="4.01357">
        <ele>821.6</ele>
        <time>2014-04-27T08:37:45Z</time>
      </trkpt>
      <trkpt lat="45.53566" lon="4.01346">
        <ele>825.3</ele>
        <time>2014-04-27T08:38:14Z</time>
      </trkpt>
      <trkpt lat="45.53566" lon="4.0133">
        <ele>833.8</ele>
        <time>2014-04-27T08:38:35Z</time>
      </trkpt>
      <trkpt lat="45.53561" lon="4.01316">
        <ele>838.1</ele>
        <time>2014-04-27T08:38:54Z</time>
      </trkpt>
      <trkpt lat="45.53561" lon="4.01302">
        <ele>839.5</ele>
        <time>2014-04-27T08:39:15Z</time>
      </trkpt>
      <trkpt lat="45.53566" lon="4.01286">
        <ele>845</ele>
        <time>2014-04-27T08:39:30Z</time>
      </trkpt>
      <trkpt lat="45.53568" lon="4.01274">
        <ele>848.4</ele>
        <time>2014-04-27T08:39:52Z</time>
      </trkpt>
      <trkpt lat="45.53584" lon="4.01251">
        <ele>857.8</ele>
        <time>2014-04-27T08:41:54Z</time>
      </trkpt>
      <trkpt lat="45.53593" lon="4.01238">
        <ele>858.4</ele>
        <time>2014-04-27T08:42:03Z</time>
      </trkpt>
      <trkpt lat="45.53599" lon="4.01224">
        <ele>859.3</ele>
        <time>2014-04-27T08:42:12Z</time>
      </trkpt>
      <trkpt lat="45.53606" lon="4.0121">
        <ele>860</ele>
        <time>2014-04-27T08:42:23Z</time>
      </trkpt>
      <trkpt lat="45.53613" lon="4.01196">
        <ele>859.4</ele>
        <time>2014-04-27T08:42:33Z</time>
      </trkpt>
      <trkpt lat="45.53619" lon="4.01184">
        <ele>857.8</ele>
        <time>2014-04-27T08:42:43Z</time>
      </trkpt>
      <trkpt lat="45.53626" lon="4.01171">
        <ele>858.1</ele>
        <time>2014-04-27T08:42:53Z</time>
      </trkpt>
      <trkpt lat="45.53635" lon="4.01158">
        <ele>860.1</ele>
        <time>2014-04-27T08:43:02Z</time>
      </trkpt>
      <trkpt lat="45.5364" lon="4.01143">
        <ele>862.1</ele>
        <time>2014-04-27T08:43:11Z</time>
      </trkpt>
      <trkpt lat="45.53643" lon="4.01128">
        <ele>863.9</ele>
        <time>2014-04-27T08:43:20Z</time>
      </trkpt>
      <trkpt lat="45.53646" lon="4.01111">
        <ele>866.2</ele>
        <time>2014-04-27T08:43:28Z</time>
      </trkpt>
      <trkpt lat="45.53648" lon="4.01095">
        <ele>869.8</ele>
        <time>2014-04-27T08:43:37Z</time>
      </trkpt>
      <trkpt lat="45.53648" lon="4.01082">
        <ele>870.8</ele>
        <time>2014-04-27T08:43:46Z</time>
      </trkpt>
      <trkpt lat="45.53649" lon="4.01066">
        <ele>870.4</ele>
        <time>2014-04-27T08:43:55Z</time>
      </trkpt>
      <trkpt lat="45.53647" lon="4.01052">
        <ele>869.4</ele>
        <time>2014-04-27T08:44:04Z</time>
      </trkpt>
      <trkpt lat="45.53643" lon="4.01037">
        <ele>867.3</ele>
        <time>2014-04-27T08:44:12Z</time>
      </trkpt>
      <trkpt lat="45.5364" lon="4.01023">
        <ele>864.9</ele>
        <time>2014-04-27T08:44:19Z</time>
      </trkpt>
      <trkpt lat="45.53634" lon="4.01007">
        <ele>864.8</ele>
        <time>2014-04-27T08:44:25Z</time>
      </trkpt>
      <trkpt lat="45.53629" lon="4.00992">
        <ele>866.7</ele>
        <time>2014-04-27T08:44:32Z</time>
      </trkpt>
      <trkpt lat="45.53624" lon="4.00977">
        <ele>868</ele>
        <time>2014-04-27T08:44:37Z</time>
      </trkpt>
      <trkpt lat="45.5362" lon="4.00963">
        <ele>868.9</ele>
        <time>2014-04-27T08:44:42Z</time>
      </trkpt>
      <trkpt lat="45.53618" lon="4.00949">
        <ele>870.5</ele>
        <time>2014-04-27T08:44:47Z</time>
      </trkpt>
      <trkpt lat="45.53618" lon="4.00934">
        <ele>873.5</ele>
        <time>2014-04-27T08:44:52Z</time>
      </trkpt>
      <trkpt lat="45.53619" lon="4.00919">
        <ele>874.8</ele>
        <time>2014-04-27T08:44:57Z</time>
      </trkpt>
      <trkpt lat="45.53621" lon="4.00903">
        <ele>876.4</ele>
        <time>2014-04-27T08:45:02Z</time>
      </trkpt>
      <trkpt lat="45.53622" lon="4.00888">
        <ele>876.6</ele>
        <time>2014-04-27T08:45:07Z</time>
      </trkpt>
      <trkpt lat="45.53624" lon="4.00873">
        <ele>877</ele>
        <time>2014-04-27T08:45:12Z</time>
      </trkpt>
      <trkpt lat="45.53625" lon="4.00858">
        <ele>876.8</ele>
        <time>2014-04-27T08:45:17Z</time>
      </trkpt>
      <trkpt lat="45.53626" lon="4.00842">
        <ele>877.9</ele>
        <time>2014-04-27T08:45:23Z</time>
      </trkpt>
      <trkpt lat="45.53627" lon="4.00825">
        <ele>878.3</ele>
        <time>2014-04-27T08:45:29Z</time>
      </trkpt>
      <trkpt lat="45.53627" lon="4.00809">
        <ele>879.1</ele>
        <time>2014-04-27T08:45:34Z</time>
      </trkpt>
      <trkpt lat="45.53625" lon="4.00793">
        <ele>879.8</ele>
        <time>2014-04-27T08:45:41Z</time>
      </trkpt>
      <trkpt lat="45.53622" lon="4.00778">
        <ele>880.9</ele>
        <time>2014-04-27T08:45:47Z</time>
      </trkpt>
      <trkpt lat="45.53619" lon="4.00763">
        <ele>882.4</ele>
        <time>2014-04-27T08:45:53Z</time>
      </trkpt>
      <trkpt lat="45.53623" lon="4.00749">
        <ele>883.8</ele>
        <time>2014-04-27T08:45:58Z</time>
      </trkpt>
      <trkpt lat="45.53633" lon="4.00736">
        <ele>887.2</ele>
        <time>2014-04-27T08:46:04Z</time>
      </trkpt>
      <trkpt lat="45.53642" lon="4.00724">
        <ele>889</ele>
        <time>2014-04-27T08:46:10Z</time>
      </trkpt>
      <trkpt lat="45.53651" lon="4.00712">
        <ele>890.6</ele>
        <time>2014-04-27T08:46:16Z</time>
      </trkpt>
      <trkpt lat="45.53661" lon="4.00699">
        <ele>892.5</ele>
        <time>2014-04-27T08:46:23Z</time>
      </trkpt>
      <trkpt lat="45.5367" lon="4.00686">
        <ele>894.5</ele>
        <time>2014-04-27T08:46:29Z</time>
      </trkpt>
      <trkpt lat="45.53679" lon="4.00672">
        <ele>895.4</ele>
        <time>2014-04-27T08:46:35Z</time>
      </trkpt>
      <trkpt lat="45.53688" lon="4.00659">
        <ele>896.9</ele>
        <time>2014-04-27T08:46:41Z</time>
      </trkpt>
      <trkpt lat="45.53698" lon="4.00648">
        <ele>898.7</ele>
        <time>2014-04-27T08:46:48Z</time>
      </trkpt>
      <trkpt lat="45.53707" lon="4.00636">
        <ele>900.3</ele>
        <time>2014-04-27T08:46:55Z</time>
      </trkpt>
      <trkpt lat="45.53709" lon="4.00621">
        <ele>901.3</ele>
        <time>2014-04-27T08:47:02Z</time>
      </trkpt>
      <trkpt lat="45.53702" lon="4.00606">
        <ele>901.7</ele>
        <time>2014-04-27T08:47:09Z</time>
      </trkpt>
      <trkpt lat="45.53693" lon="4.00592">
        <ele>901.5</ele>
        <time>2014-04-27T08:47:14Z</time>
      </trkpt>
      <trkpt lat="45.53686" lon="4.00579">
        <ele>901.4</ele>
        <time>2014-04-27T08:47:19Z</time>
      </trkpt>
      <trkpt lat="45.53688" lon="4.00563">
        <ele>901.9</ele>
        <time>2014-04-27T08:47:24Z</time>
      </trkpt>
      <trkpt lat="45.53695" lon="4.00549">
        <ele>903.1</ele>
        <time>2014-04-27T08:47:29Z</time>
      </trkpt>
      <trkpt lat="45.53703" lon="4.00536">
        <ele>904.3</ele>
        <time>2014-04-27T08:47:34Z</time>
      </trkpt>
      <trkpt lat="45.5371" lon="4.00522">
        <ele>905</ele>
        <time>2014-04-27T08:47:39Z</time>
      </trkpt>
      <trkpt lat="45.53715" lon="4.00507">
        <ele>905.6</ele>
        <time>2014-04-27T08:47:44Z</time>
      </trkpt>
      <trkpt lat="45.53718" lon="4.00491">
        <ele>905.5</ele>
        <time>2014-04-27T08:47:49Z</time>
      </trkpt>
      <trkpt lat="45.53721" lon="4.00475">
        <ele>905.9</ele>
        <time>2014-04-27T08:47:54Z</time>
      </trkpt>
      <trkpt lat="45.53725" lon="4.00459">
        <ele>906.4</ele>
        <time>2014-04-27T08:47:59Z</time>
      </trkpt>
      <trkpt lat="45.53729" lon="4.00443">
        <ele>907</ele>
        <time>2014-04-27T08:48:04Z</time>
      </trkpt>
      <trkpt lat="45.53733" lon="4.00426">
        <ele>907.6</ele>
        <time>2014-04-27T08:48:09Z</time>
      </trkpt>
      <trkpt lat="45.53737" lon="4.0041">
        <ele>908.4</ele>
        <time>2014-04-27T08:48:14Z</time>
      </trkpt>
      <trkpt lat="45.53741" lon="4.00394">
        <ele>909.4</ele>
        <time>2014-04-27T08:48:19Z</time>
      </trkpt>
      <trkpt lat="45.53747" lon="4.00379">
        <ele>910.3</ele>
        <time>2014-04-27T08:48:24Z</time>
      </trkpt>
      <trkpt lat="45.53754" lon="4.00364">
        <ele>911.3</ele>
        <time>2014-04-27T08:48:29Z</time>
      </trkpt>
      <trkpt lat="45.5376" lon="4.0035">
        <ele>912.4</ele>
        <time>2014-04-27T08:48:34Z</time>
      </trkpt>
      <trkpt lat="45.53766" lon="4.00334">
        <ele>913.2</ele>
        <time>2014-04-27T08:48:41Z</time>
      </trkpt>
      <trkpt lat="45.5377" lon="4.00319">
        <ele>914</ele>
        <time>2014-04-27T08:48:46Z</time>
      </trkpt>
      <trkpt lat="45.53775" lon="4.00304">
        <ele>913.9</ele>
        <time>2014-04-27T08:48:51Z</time>
      </trkpt>
      <trkpt lat="45.53779" lon="4.00285">
        <ele>913.5</ele>
        <time>2014-04-27T08:48:56Z</time>
      </trkpt>
      <trkpt lat="45.53782" lon="4.00267">
        <ele>913</ele>
        <time>2014-04-27T08:48:59Z</time>
      </trkpt>
      <trkpt lat="45.53786" lon="4.00249">
        <ele>913</ele>
        <time>2014-04-27T08:49:02Z</time>
      </trkpt>
      <trkpt lat="45.53789" lon="4.0023">
        <ele>912.5</ele>
        <time>2014-04-27T08:49:05Z</time>
      </trkpt>
      <trkpt lat="45.53794" lon="4.00211">
        <ele>912.5</ele>
        <time>2014-04-27T08:49:08Z</time>
      </trkpt>
      <trkpt lat="45.53802" lon="4.00194">
        <ele>912.8</ele>
        <time>2014-04-27T08:49:11Z</time>
      </trkpt>
      <trkpt lat="45.53812" lon="4.00179">
        <ele>913</ele>
        <time>2014-04-27T08:49:14Z</time>
      </trkpt>
      <trkpt lat="45.53824" lon="4.00163">
        <ele>913.5</ele>
        <time>2014-04-27T08:49:17Z</time>
      </trkpt>
      <trkpt lat="45.53835" lon="4.00147">
        <ele>913.8</ele>
        <time>2014-04-27T08:49:20Z</time>
      </trkpt>
      <trkpt lat="45.53847" lon="4.00134">
        <ele>915.3</ele>
        <time>2014-04-27T08:49:23Z</time>
      </trkpt>
      <trkpt lat="45.53861" lon="4.00126">
        <ele>916</ele>
        <time>2014-04-27T08:49:26Z</time>
      </trkpt>
      <trkpt lat="45.53876" lon="4.00117">
        <ele>916</ele>
        <time>2014-04-27T08:49:31Z</time>
      </trkpt>
      <trkpt lat="45.53889" lon="4.00105">
        <ele>916</ele>
        <time>2014-04-27T08:49:35Z</time>
      </trkpt>
      <trkpt lat="45.53898" lon="4.00091">
        <ele>916.5</ele>
        <time>2014-04-27T08:49:38Z</time>
      </trkpt>
      <trkpt lat="45.53907" lon="4.00077">
        <ele>916.6</ele>
        <time>2014-04-27T08:49:43Z</time>
      </trkpt>
      <trkpt lat="45.53914" lon="4.00071">
        <ele>916.6</ele>
        <time>2014-04-27T08:49:55Z</time>
      </trkpt>
      <trkpt lat="45.53906" lon="4.00086">
        <ele>917.7</ele>
        <time>2014-04-27T08:50:04Z</time>
      </trkpt>
      <trkpt lat="45.53922" lon="4.00063">
        <ele>917</ele>
        <time>2014-04-27T08:50:32Z</time>
      </trkpt>
      <trkpt lat="45.53931" lon="4.0005">
        <ele>917.1</ele>
        <time>2014-04-27T08:50:37Z</time>
      </trkpt>
      <trkpt lat="45.53936" lon="4.00034">
        <ele>917</ele>
        <time>2014-04-27T08:50:42Z</time>
      </trkpt>
      <trkpt lat="45.53941" lon="4.00017">
        <ele>916.9</ele>
        <time>2014-04-27T08:50:47Z</time>
      </trkpt>
      <trkpt lat="45.53944" lon="4.00001">
        <ele>916.6</ele>
        <time>2014-04-27T08:50:52Z</time>
      </trkpt>
      <trkpt lat="45.53947" lon="3.99985">
        <ele>916.9</ele>
        <time>2014-04-27T08:50:57Z</time>
      </trkpt>
      <trkpt lat="45.53947" lon="3.99967">
        <ele>916.5</ele>
        <time>2014-04-27T08:51:02Z</time>
      </trkpt>
      <trkpt lat="45.53945" lon="3.9995">
        <ele>916.2</ele>
        <time>2014-04-27T08:51:07Z</time>
      </trkpt>
      <trkpt lat="45.53942" lon="3.99935">
        <ele>915.8</ele>
        <time>2014-04-27T08:51:11Z</time>
      </trkpt>
      <trkpt lat="45.53938" lon="3.99919">
        <ele>914.9</ele>
        <time>2014-04-27T08:51:16Z</time>
      </trkpt>
      <trkpt lat="45.53935" lon="3.99911">
        <ele>914.6</ele>
        <time>2014-04-27T08:51:20Z</time>
      </trkpt>
      <trkpt lat="45.53926" lon="3.99892">
        <ele>915.3</ele>
        <time>2014-04-27T08:51:49Z</time>
      </trkpt>
      <trkpt lat="45.53918" lon="3.99879">
        <ele>916.3</ele>
        <time>2014-04-27T08:51:53Z</time>
      </trkpt>
      <trkpt lat="45.53907" lon="3.99865">
        <ele>917.2</ele>
        <time>2014-04-27T08:52:00Z</time>
      </trkpt>
      <trkpt lat="45.53894" lon="3.99861">
        <ele>919.1</ele>
        <time>2014-04-27T08:52:08Z</time>
      </trkpt>
      <trkpt lat="45.53886" lon="3.99848">
        <ele>921</ele>
        <time>2014-04-27T08:52:16Z</time>
      </trkpt>
      <trkpt lat="45.53884" lon="3.99833">
        <ele>921</ele>
        <time>2014-04-27T08:52:23Z</time>
      </trkpt>
      <trkpt lat="45.5388" lon="3.99818">
        <ele>921.3</ele>
        <time>2014-04-27T08:52:28Z</time>
      </trkpt>
      <trkpt lat="45.53878" lon="3.99803">
        <ele>921.6</ele>
        <time>2014-04-27T08:52:36Z</time>
      </trkpt>
      <trkpt lat="45.53876" lon="3.99788">
        <ele>920.8</ele>
        <time>2014-04-27T08:52:43Z</time>
      </trkpt>
      <trkpt lat="45.53876" lon="3.99772">
        <ele>921.3</ele>
        <time>2014-04-27T08:52:50Z</time>
      </trkpt>
      <trkpt lat="45.53877" lon="3.99757">
        <ele>922.1</ele>
        <time>2014-04-27T08:52:57Z</time>
      </trkpt>
      <trkpt lat="45.5388" lon="3.99742">
        <ele>924.4</ele>
        <time>2014-04-27T08:53:05Z</time>
      </trkpt>
      <trkpt lat="45.5388" lon="3.99726">
        <ele>925.6</ele>
        <time>2014-04-27T08:53:13Z</time>
      </trkpt>
      <trkpt lat="45.5388" lon="3.99712">
        <ele>926.9</ele>
        <time>2014-04-27T08:53:22Z</time>
      </trkpt>
      <trkpt lat="45.53881" lon="3.99696">
        <ele>929.4</ele>
        <time>2014-04-27T08:53:28Z</time>
      </trkpt>
      <trkpt lat="45.53881" lon="3.99681">
        <ele>932.2</ele>
        <time>2014-04-27T08:53:45Z</time>
      </trkpt>
      <trkpt lat="45.53879" lon="3.99666">
        <ele>933.3</ele>
        <time>2014-04-27T08:54:12Z</time>
      </trkpt>
      <trkpt lat="45.53879" lon="3.9965">
        <ele>935.2</ele>
        <time>2014-04-27T08:54:35Z</time>
      </trkpt>
      <trkpt lat="45.53877" lon="3.99636">
        <ele>940.2</ele>
        <time>2014-04-27T08:54:42Z</time>
      </trkpt>
      <trkpt lat="45.53864" lon="3.99604">
        <ele>940.4</ele>
        <time>2014-04-27T08:55:52Z</time>
      </trkpt>
      <trkpt lat="45.53856" lon="3.99589">
        <ele>939.9</ele>
        <time>2014-04-27T08:56:04Z</time>
      </trkpt>
      <trkpt lat="45.5385" lon="3.99576">
        <ele>939.5</ele>
        <time>2014-04-27T08:56:11Z</time>
      </trkpt>
      <trkpt lat="45.53845" lon="3.99562">
        <ele>941.6</ele>
        <time>2014-04-27T08:56:17Z</time>
      </trkpt>
      <trkpt lat="45.53845" lon="3.99543">
        <ele>943.6</ele>
        <time>2014-04-27T08:56:22Z</time>
      </trkpt>
      <trkpt lat="45.5384" lon="3.99528">
        <ele>945.6</ele>
        <time>2014-04-27T08:56:27Z</time>
      </trkpt>
      <trkpt lat="45.53834" lon="3.99514">
        <ele>947.3</ele>
        <time>2014-04-27T08:56:32Z</time>
      </trkpt>
      <trkpt lat="45.53829" lon="3.99499">
        <ele>948.5</ele>
        <time>2014-04-27T08:56:37Z</time>
      </trkpt>
      <trkpt lat="45.53827" lon="3.99484">
        <ele>950.5</ele>
        <time>2014-04-27T08:56:41Z</time>
      </trkpt>
      <trkpt lat="45.53826" lon="3.99468">
        <ele>951.2</ele>
        <time>2014-04-27T08:56:45Z</time>
      </trkpt>
      <trkpt lat="45.53826" lon="3.99451">
        <ele>952.8</ele>
        <time>2014-04-27T08:56:49Z</time>
      </trkpt>
      <trkpt lat="45.53828" lon="3.99434">
        <ele>953.2</ele>
        <time>2014-04-27T08:56:52Z</time>
      </trkpt>
      <trkpt lat="45.53829" lon="3.99417">
        <ele>954</ele>
        <time>2014-04-27T08:56:57Z</time>
      </trkpt>
      <trkpt lat="45.53829" lon="3.994">
        <ele>954.3</ele>
        <time>2014-04-27T08:57:01Z</time>
      </trkpt>
      <trkpt lat="45.53829" lon="3.99382">
        <ele>954</ele>
        <time>2014-04-27T08:57:04Z</time>
      </trkpt>
      <trkpt lat="45.53829" lon="3.99364">
        <ele>954.8</ele>
        <time>2014-04-27T08:57:09Z</time>
      </trkpt>
      <trkpt lat="45.53829" lon="3.99347">
        <ele>954.8</ele>
        <time>2014-04-27T08:57:13Z</time>
      </trkpt>
      <trkpt lat="45.53828" lon="3.9933">
        <ele>955.3</ele>
        <time>2014-04-27T08:57:16Z</time>
      </trkpt>
      <trkpt lat="45.53828" lon="3.99314">
        <ele>955.5</ele>
        <time>2014-04-27T08:57:21Z</time>
      </trkpt>
      <trkpt lat="45.53833" lon="3.99297">
        <ele>956.3</ele>
        <time>2014-04-27T08:57:24Z</time>
      </trkpt>
      <trkpt lat="45.53837" lon="3.99281">
        <ele>957.5</ele>
        <time>2014-04-27T08:57:29Z</time>
      </trkpt>
      <trkpt lat="45.5384" lon="3.99265">
        <ele>958.3</ele>
        <time>2014-04-27T08:57:33Z</time>
      </trkpt>
      <trkpt lat="45.5384" lon="3.99248">
        <ele>959.6</ele>
        <time>2014-04-27T08:57:38Z</time>
      </trkpt>
      <trkpt lat="45.53838" lon="3.99233">
        <ele>960.7</ele>
        <time>2014-04-27T08:57:44Z</time>
      </trkpt>
      <trkpt lat="45.53831" lon="3.99218">
        <ele>962.3</ele>
        <time>2014-04-27T08:57:51Z</time>
      </trkpt>
      <trkpt lat="45.53825" lon="3.99205">
        <ele>964.3</ele>
        <time>2014-04-27T08:57:59Z</time>
      </trkpt>
      <trkpt lat="45.53821" lon="3.9919">
        <ele>966.5</ele>
        <time>2014-04-27T08:58:09Z</time>
      </trkpt>
      <trkpt lat="45.53818" lon="3.99178">
        <ele>968.7</ele>
        <time>2014-04-27T08:58:15Z</time>
      </trkpt>
      <trkpt lat="45.53816" lon="3.99162">
        <ele>970.1</ele>
        <time>2014-04-27T08:58:37Z</time>
      </trkpt>
      <trkpt lat="45.53815" lon="3.99147">
        <ele>971.9</ele>
        <time>2014-04-27T08:58:44Z</time>
      </trkpt>
      <trkpt lat="45.53811" lon="3.99135">
        <ele>975</ele>
        <time>2014-04-27T08:59:06Z</time>
      </trkpt>
      <trkpt lat="45.53805" lon="3.99121">
        <ele>976.6</ele>
        <time>2014-04-27T08:59:36Z</time>
      </trkpt>
      <trkpt lat="45.53802" lon="3.99108">
        <ele>978.9</ele>
        <time>2014-04-27T08:59:53Z</time>
      </trkpt>
      <trkpt lat="45.53789" lon="3.99097">
        <ele>979.5</ele>
        <time>2014-04-27T09:00:07Z</time>
      </trkpt>
      <trkpt lat="45.53778" lon="3.99088">
        <ele>980.6</ele>
        <time>2014-04-27T09:00:18Z</time>
      </trkpt>
      <trkpt lat="45.53769" lon="3.99076">
        <ele>981.4</ele>
        <time>2014-04-27T09:00:27Z</time>
      </trkpt>
      <trkpt lat="45.53759" lon="3.99062">
        <ele>981.8</ele>
        <time>2014-04-27T09:00:34Z</time>
      </trkpt>
      <trkpt lat="45.53751" lon="3.99049">
        <ele>980.5</ele>
        <time>2014-04-27T09:00:39Z</time>
      </trkpt>
      <trkpt lat="45.53745" lon="3.99031">
        <ele>980.2</ele>
        <time>2014-04-27T09:00:45Z</time>
      </trkpt>
      <trkpt lat="45.5374" lon="3.99016">
        <ele>979</ele>
        <time>2014-04-27T09:00:49Z</time>
      </trkpt>
      <trkpt lat="45.53736" lon="3.99002">
        <ele>979.8</ele>
        <time>2014-04-27T09:00:55Z</time>
      </trkpt>
      <trkpt lat="45.53732" lon="3.98987">
        <ele>981.4</ele>
        <time>2014-04-27T09:01:02Z</time>
      </trkpt>
      <trkpt lat="45.53733" lon="3.98972">
        <ele>980.8</ele>
        <time>2014-04-27T09:01:09Z</time>
      </trkpt>
      <trkpt lat="45.53739" lon="3.98956">
        <ele>981.5</ele>
        <time>2014-04-27T09:01:15Z</time>
      </trkpt>
      <trkpt lat="45.53745" lon="3.98943">
        <ele>981.9</ele>
        <time>2014-04-27T09:01:22Z</time>
      </trkpt>
      <trkpt lat="45.53753" lon="3.98928">
        <ele>982.6</ele>
        <time>2014-04-27T09:01:30Z</time>
      </trkpt>
      <trkpt lat="45.53762" lon="3.98917">
        <ele>982.9</ele>
        <time>2014-04-27T09:01:39Z</time>
      </trkpt>
      <trkpt lat="45.53776" lon="3.98914">
        <ele>983.9</ele>
        <time>2014-04-27T09:01:49Z</time>
      </trkpt>
      <trkpt lat="45.53791" lon="3.98913">
        <ele>984.8</ele>
        <time>2014-04-27T09:02:00Z</time>
      </trkpt>
      <trkpt lat="45.53805" lon="3.98905">
        <ele>984.9</ele>
        <time>2014-04-27T09:02:09Z</time>
      </trkpt>
      <trkpt lat="45.53815" lon="3.98896">
        <ele>985.8</ele>
        <time>2014-04-27T09:02:19Z</time>
      </trkpt>
      <trkpt lat="45.5383" lon="3.98893">
        <ele>987.4</ele>
        <time>2014-04-27T09:02:30Z</time>
      </trkpt>
      <trkpt lat="45.53844" lon="3.98888">
        <ele>988</ele>
        <time>2014-04-27T09:02:40Z</time>
      </trkpt>
      <trkpt lat="45.5386" lon="3.98883">
        <ele>988.6</ele>
        <time>2014-04-27T09:02:50Z</time>
      </trkpt>
      <trkpt lat="45.53876" lon="3.98882">
        <ele>989.8</ele>
        <time>2014-04-27T09:03:00Z</time>
      </trkpt>
      <trkpt lat="45.5389" lon="3.98882">
        <ele>990</ele>
        <time>2014-04-27T09:03:11Z</time>
      </trkpt>
      <trkpt lat="45.53905" lon="3.9888">
        <ele>993.1</ele>
        <time>2014-04-27T09:03:23Z</time>
      </trkpt>
      <trkpt lat="45.53922" lon="3.98882">
        <ele>992.9</ele>
        <time>2014-04-27T09:03:33Z</time>
      </trkpt>
      <trkpt lat="45.53937" lon="3.98884">
        <ele>992.1</ele>
        <time>2014-04-27T09:03:42Z</time>
      </trkpt>
      <trkpt lat="45.5395" lon="3.98883">
        <ele>991.2</ele>
        <time>2014-04-27T09:03:51Z</time>
      </trkpt>
      <trkpt lat="45.53963" lon="3.98876">
        <ele>991.3</ele>
        <time>2014-04-27T09:03:59Z</time>
      </trkpt>
      <trkpt lat="45.53976" lon="3.98867">
        <ele>992.4</ele>
        <time>2014-04-27T09:04:06Z</time>
      </trkpt>
      <trkpt lat="45.53987" lon="3.98855">
        <ele>993.4</ele>
        <time>2014-04-27T09:04:13Z</time>
      </trkpt>
      <trkpt lat="45.53989" lon="3.98842">
        <ele>994.8</ele>
        <time>2014-04-27T09:04:22Z</time>
      </trkpt>
      <trkpt lat="45.53985" lon="3.98828">
        <ele>996.9</ele>
        <time>2014-04-27T09:04:33Z</time>
      </trkpt>
      <trkpt lat="45.5398" lon="3.98815">
        <ele>998.5</ele>
        <time>2014-04-27T09:04:43Z</time>
      </trkpt>
      <trkpt lat="45.53972" lon="3.988">
        <ele>1001.7</ele>
        <time>2014-04-27T09:04:52Z</time>
      </trkpt>
      <trkpt lat="45.53965" lon="3.9879">
        <ele>1007</ele>
        <time>2014-04-27T09:05:03Z</time>
      </trkpt>
      <trkpt lat="45.53957" lon="3.98777">
        <ele>1012.2</ele>
        <time>2014-04-27T09:05:14Z</time>
      </trkpt>
      <trkpt lat="45.5395" lon="3.98762">
        <ele>1012.9</ele>
        <time>2014-04-27T09:05:23Z</time>
      </trkpt>
      <trkpt lat="45.53942" lon="3.98749">
        <ele>1013.1</ele>
        <time>2014-04-27T09:05:32Z</time>
      </trkpt>
      <trkpt lat="45.53934" lon="3.98734">
        <ele>1013.9</ele>
        <time>2014-04-27T09:05:42Z</time>
      </trkpt>
      <trkpt lat="45.53927" lon="3.9872">
        <ele>1015</ele>
        <time>2014-04-27T09:05:50Z</time>
      </trkpt>
      <trkpt lat="45.53922" lon="3.98705">
        <ele>1015.7</ele>
        <time>2014-04-27T09:05:58Z</time>
      </trkpt>
      <trkpt lat="45.53921" lon="3.9869">
        <ele>1018.1</ele>
        <time>2014-04-27T09:06:05Z</time>
      </trkpt>
      <trkpt lat="45.53926" lon="3.98675">
        <ele>1017.1</ele>
        <time>2014-04-27T09:06:11Z</time>
      </trkpt>
      <trkpt lat="45.5393" lon="3.9866">
        <ele>1016.9</ele>
        <time>2014-04-27T09:06:17Z</time>
      </trkpt>
      <trkpt lat="45.53935" lon="3.98646">
        <ele>1016.1</ele>
        <time>2014-04-27T09:06:24Z</time>
      </trkpt>
      <trkpt lat="45.53943" lon="3.98634">
        <ele>1016.7</ele>
        <time>2014-04-27T09:06:33Z</time>
      </trkpt>
      <trkpt lat="45.53952" lon="3.98622">
        <ele>1018.6</ele>
        <time>2014-04-27T09:06:41Z</time>
      </trkpt>
      <trkpt lat="45.5396" lon="3.98608">
        <ele>1020.1</ele>
        <time>2014-04-27T09:06:49Z</time>
      </trkpt>
      <trkpt lat="45.53969" lon="3.98594">
        <ele>1021.7</ele>
        <time>2014-04-27T09:06:58Z</time>
      </trkpt>
      <trkpt lat="45.53977" lon="3.98581">
        <ele>1021.6</ele>
        <time>2014-04-27T09:07:06Z</time>
      </trkpt>
      <trkpt lat="45.53987" lon="3.98569">
        <ele>1022.3</ele>
        <time>2014-04-27T09:07:15Z</time>
      </trkpt>
      <trkpt lat="45.53997" lon="3.98558">
        <ele>1023.3</ele>
        <time>2014-04-27T09:07:24Z</time>
      </trkpt>
      <trkpt lat="45.54006" lon="3.98546">
        <ele>1026.5</ele>
        <time>2014-04-27T09:07:32Z</time>
      </trkpt>
      <trkpt lat="45.54015" lon="3.98534">
        <ele>1027.4</ele>
        <time>2014-04-27T09:07:40Z</time>
      </trkpt>
      <trkpt lat="45.5402" lon="3.98519">
        <ele>1031.1</ele>
        <time>2014-04-27T09:07:48Z</time>
      </trkpt>
      <trkpt lat="45.54023" lon="3.98503">
        <ele>1033.4</ele>
        <time>2014-04-27T09:07:55Z</time>
      </trkpt>
      <trkpt lat="45.5403" lon="3.98489">
        <ele>1034.7</ele>
        <time>2014-04-27T09:08:02Z</time>
      </trkpt>
      <trkpt lat="45.54038" lon="3.98475">
        <ele>1034.2</ele>
        <time>2014-04-27T09:08:09Z</time>
      </trkpt>
      <trkpt lat="45.54048" lon="3.98462">
        <ele>1032.6</ele>
        <time>2014-04-27T09:08:15Z</time>
      </trkpt>
      <trkpt lat="45.5406" lon="3.98455">
        <ele>1032.4</ele>
        <time>2014-04-27T09:08:21Z</time>
      </trkpt>
      <trkpt lat="45.54074" lon="3.98448">
        <ele>1032.6</ele>
        <time>2014-04-27T09:08:28Z</time>
      </trkpt>
      <trkpt lat="45.54086" lon="3.98442">
        <ele>1033.3</ele>
        <time>2014-04-27T09:08:35Z</time>
      </trkpt>
      <trkpt lat="45.54102" lon="3.98442">
        <ele>1032.7</ele>
        <time>2014-04-27T09:08:44Z</time>
      </trkpt>
      <trkpt lat="45.54116" lon="3.98435">
        <ele>1033.7</ele>
        <time>2014-04-27T09:08:52Z</time>
      </trkpt>
      <trkpt lat="45.54131" lon="3.98432">
        <ele>1034.1</ele>
        <time>2014-04-27T09:09:01Z</time>
      </trkpt>
      <trkpt lat="45.54146" lon="3.98428">
        <ele>1034.6</ele>
        <time>2014-04-27T09:09:10Z</time>
      </trkpt>
      <trkpt lat="45.5416" lon="3.98421">
        <ele>1035.6</ele>
        <time>2014-04-27T09:09:18Z</time>
      </trkpt>
      <trkpt lat="45.54169" lon="3.9841">
        <ele>1036</ele>
        <time>2014-04-27T09:09:25Z</time>
      </trkpt>
      <trkpt lat="45.54174" lon="3.98396">
        <ele>1036.1</ele>
        <time>2014-04-27T09:09:31Z</time>
      </trkpt>
      <trkpt lat="45.54176" lon="3.98379">
        <ele>1037.1</ele>
        <time>2014-04-27T09:09:36Z</time>
      </trkpt>
      <trkpt lat="45.54177" lon="3.98364">
        <ele>1038.6</ele>
        <time>2014-04-27T09:09:41Z</time>
      </trkpt>
      <trkpt lat="45.54176" lon="3.98348">
        <ele>1040.8</ele>
        <time>2014-04-27T09:09:47Z</time>
      </trkpt>
      <trkpt lat="45.54172" lon="3.98332">
        <ele>1043.4</ele>
        <time>2014-04-27T09:09:53Z</time>
      </trkpt>
      <trkpt lat="45.54168" lon="3.98316">
        <ele>1048.1</ele>
        <time>2014-04-27T09:09:58Z</time>
      </trkpt>
      <trkpt lat="45.54164" lon="3.98301">
        <ele>1050.3</ele>
        <time>2014-04-27T09:10:04Z</time>
      </trkpt>
      <trkpt lat="45.54159" lon="3.98287">
        <ele>1053.4</ele>
        <time>2014-04-27T09:10:09Z</time>
      </trkpt>
      <trkpt lat="45.54155" lon="3.98271">
        <ele>1054.5</ele>
        <time>2014-04-27T09:10:14Z</time>
      </trkpt>
      <trkpt lat="45.54151" lon="3.98258">
        <ele>1054.6</ele>
        <time>2014-04-27T09:10:20Z</time>
      </trkpt>
      <trkpt lat="45.54147" lon="3.98243">
        <ele>1055.6</ele>
        <time>2014-04-27T09:10:26Z</time>
      </trkpt>
      <trkpt lat="45.5415" lon="3.98225">
        <ele>1054.2</ele>
        <time>2014-04-27T09:10:32Z</time>
      </trkpt>
      <trkpt lat="45.54156" lon="3.98211">
        <ele>1054.8</ele>
        <time>2014-04-27T09:10:37Z</time>
      </trkpt>
      <trkpt lat="45.54161" lon="3.98197">
        <ele>1056.8</ele>
        <time>2014-04-27T09:10:42Z</time>
      </trkpt>
      <trkpt lat="45.54168" lon="3.98183">
        <ele>1058.5</ele>
        <time>2014-04-27T09:10:48Z</time>
      </trkpt>
      <trkpt lat="45.54179" lon="3.98172">
        <ele>1060.4</ele>
        <time>2014-04-27T09:10:54Z</time>
      </trkpt>
      <trkpt lat="45.54185" lon="3.98156">
        <ele>1061.6</ele>
        <time>2014-04-27T09:11:00Z</time>
      </trkpt>
      <trkpt lat="45.54191" lon="3.98141">
        <ele>1063.3</ele>
        <time>2014-04-27T09:11:06Z</time>
      </trkpt>
      <trkpt lat="45.54195" lon="3.98125">
        <ele>1063.7</ele>
        <time>2014-04-27T09:11:11Z</time>
      </trkpt>
      <trkpt lat="45.542" lon="3.98111">
        <ele>1062.8</ele>
        <time>2014-04-27T09:11:15Z</time>
      </trkpt>
      <trkpt lat="45.54206" lon="3.98096">
        <ele>1061.5</ele>
        <time>2014-04-27T09:11:18Z</time>
      </trkpt>
      <trkpt lat="45.54212" lon="3.98079">
        <ele>1061.7</ele>
        <time>2014-04-27T09:11:23Z</time>
      </trkpt>
      <trkpt lat="45.54216" lon="3.98061">
        <ele>1062.2</ele>
        <time>2014-04-27T09:11:27Z</time>
      </trkpt>
      <trkpt lat="45.54213" lon="3.9804">
        <ele>1060</ele>
        <time>2014-04-27T09:11:30Z</time>
      </trkpt>
      <trkpt lat="45.54212" lon="3.98024">
        <ele>1060</ele>
        <time>2014-04-27T09:11:33Z</time>
      </trkpt>
      <trkpt lat="45.54207" lon="3.98005">
        <ele>1058</ele>
        <time>2014-04-27T09:11:36Z</time>
      </trkpt>
      <trkpt lat="45.54205" lon="3.97989">
        <ele>1057.8</ele>
        <time>2014-04-27T09:11:40Z</time>
      </trkpt>
      <trkpt lat="45.542" lon="3.97976">
        <ele>1058.6</ele>
        <time>2014-04-27T09:11:44Z</time>
      </trkpt>
      <trkpt lat="45.54196" lon="3.97961">
        <ele>1059.1</ele>
        <time>2014-04-27T09:11:50Z</time>
      </trkpt>
      <trkpt lat="45.54194" lon="3.97943">
        <ele>1059.6</ele>
        <time>2014-04-27T09:11:56Z</time>
      </trkpt>
      <trkpt lat="45.5419" lon="3.9793">
        <ele>1060.3</ele>
        <time>2014-04-27T09:12:02Z</time>
      </trkpt>
      <trkpt lat="45.54185" lon="3.97916">
        <ele>1060.9</ele>
        <time>2014-04-27T09:12:09Z</time>
      </trkpt>
      <trkpt lat="45.54176" lon="3.97902">
        <ele>1061.7</ele>
        <time>2014-04-27T09:12:14Z</time>
      </trkpt>
      <trkpt lat="45.54169" lon="3.97888">
        <ele>1062.9</ele>
        <time>2014-04-27T09:12:19Z</time>
      </trkpt>
      <trkpt lat="45.54161" lon="3.97872">
        <ele>1063.8</ele>
        <time>2014-04-27T09:12:24Z</time>
      </trkpt>
      <trkpt lat="45.54153" lon="3.97859">
        <ele>1065.6</ele>
        <time>2014-04-27T09:12:29Z</time>
      </trkpt>
      <trkpt lat="45.54143" lon="3.97846">
        <ele>1066.8</ele>
        <time>2014-04-27T09:12:34Z</time>
      </trkpt>
      <trkpt lat="45.54133" lon="3.97834">
        <ele>1067.3</ele>
        <time>2014-04-27T09:12:39Z</time>
      </trkpt>
      <trkpt lat="45.54123" lon="3.97822">
        <ele>1068.1</ele>
        <time>2014-04-27T09:12:44Z</time>
      </trkpt>
      <trkpt lat="45.54112" lon="3.9781">
        <ele>1069.3</ele>
        <time>2014-04-27T09:12:49Z</time>
      </trkpt>
      <trkpt lat="45.54103" lon="3.97798">
        <ele>1068.8</ele>
        <time>2014-04-27T09:12:55Z</time>
      </trkpt>
      <trkpt lat="45.54102" lon="3.97792">
        <ele>1065.9</ele>
        <time>2014-04-27T09:12:59Z</time>
      </trkpt>
      <trkpt lat="45.54083" lon="3.97774">
        <ele>1067</ele>
        <time>2014-04-27T09:15:10Z</time>
      </trkpt>
      <trkpt lat="45.54069" lon="3.97763">
        <ele>1066.9</ele>
        <time>2014-04-27T09:15:15Z</time>
      </trkpt>
      <trkpt lat="45.54056" lon="3.97752">
        <ele>1066.5</ele>
        <time>2014-04-27T09:15:20Z</time>
      </trkpt>
      <trkpt lat="45.54043" lon="3.9774">
        <ele>1067.3</ele>
        <time>2014-04-27T09:15:25Z</time>
      </trkpt>
      <trkpt lat="45.54031" lon="3.97729">
        <ele>1067.6</ele>
        <time>2014-04-27T09:15:30Z</time>
      </trkpt>
      <trkpt lat="45.54019" lon="3.97718">
        <ele>1068.4</ele>
        <time>2014-04-27T09:15:35Z</time>
      </trkpt>
      <trkpt lat="45.54009" lon="3.97708">
        <ele>1069.3</ele>
        <time>2014-04-27T09:15:40Z</time>
      </trkpt>
      <trkpt lat="45.53998" lon="3.97698">
        <ele>1070.9</ele>
        <time>2014-04-27T09:15:46Z</time>
      </trkpt>
      <trkpt lat="45.53985" lon="3.97687">
        <ele>1071.9</ele>
        <time>2014-04-27T09:15:51Z</time>
      </trkpt>
      <trkpt lat="45.53979" lon="3.97673">
        <ele>1071.8</ele>
        <time>2014-04-27T09:15:56Z</time>
      </trkpt>
      <trkpt lat="45.53979" lon="3.97657">
        <ele>1073.1</ele>
        <time>2014-04-27T09:16:01Z</time>
      </trkpt>
      <trkpt lat="45.53985" lon="3.97642">
        <ele>1074.6</ele>
        <time>2014-04-27T09:16:07Z</time>
      </trkpt>
      <trkpt lat="45.53991" lon="3.97627">
        <ele>1076</ele>
        <time>2014-04-27T09:16:12Z</time>
      </trkpt>
      <trkpt lat="45.53998" lon="3.97611">
        <ele>1077.4</ele>
        <time>2014-04-27T09:16:19Z</time>
      </trkpt>
      <trkpt lat="45.54005" lon="3.976">
        <ele>1077</ele>
        <time>2014-04-27T09:16:25Z</time>
      </trkpt>
      <trkpt lat="45.54012" lon="3.97586">
        <ele>1077.4</ele>
        <time>2014-04-27T09:16:32Z</time>
      </trkpt>
      <trkpt lat="45.54019" lon="3.97573">
        <ele>1078.2</ele>
        <time>2014-04-27T09:16:38Z</time>
      </trkpt>
      <trkpt lat="45.54027" lon="3.9756">
        <ele>1078.5</ele>
        <time>2014-04-27T09:16:45Z</time>
      </trkpt>
      <trkpt lat="45.54035" lon="3.97548">
        <ele>1078.7</ele>
        <time>2014-04-27T09:16:51Z</time>
      </trkpt>
      <trkpt lat="45.54043" lon="3.97536">
        <ele>1079.6</ele>
        <time>2014-04-27T09:16:57Z</time>
      </trkpt>
      <trkpt lat="45.54051" lon="3.97523">
        <ele>1080.8</ele>
        <time>2014-04-27T09:17:03Z</time>
      </trkpt>
      <trkpt lat="45.54059" lon="3.9751">
        <ele>1081.1</ele>
        <time>2014-04-27T09:17:09Z</time>
      </trkpt>
      <trkpt lat="45.54068" lon="3.97498">
        <ele>1081.4</ele>
        <time>2014-04-27T09:17:17Z</time>
      </trkpt>
      <trkpt lat="45.54076" lon="3.97486">
        <ele>1082.1</ele>
        <time>2014-04-27T09:17:24Z</time>
      </trkpt>
      <trkpt lat="45.54084" lon="3.97473">
        <ele>1084.9</ele>
        <time>2014-04-27T09:17:31Z</time>
      </trkpt>
      <trkpt lat="45.54095" lon="3.97462">
        <ele>1086.9</ele>
        <time>2014-04-27T09:17:40Z</time>
      </trkpt>
      <trkpt lat="45.54105" lon="3.97451">
        <ele>1088.6</ele>
        <time>2014-04-27T09:17:49Z</time>
      </trkpt>
      <trkpt lat="45.54117" lon="3.97442">
        <ele>1089.8</ele>
        <time>2014-04-27T09:17:58Z</time>
      </trkpt>
      <trkpt lat="45.54129" lon="3.97433">
        <ele>1092</ele>
        <time>2014-04-27T09:18:08Z</time>
      </trkpt>
      <trkpt lat="45.5414" lon="3.97423">
        <ele>1093.6</ele>
        <time>2014-04-27T09:18:17Z</time>
      </trkpt>
      <trkpt lat="45.54152" lon="3.97415">
        <ele>1095.6</ele>
        <time>2014-04-27T09:18:26Z</time>
      </trkpt>
      <trkpt lat="45.54165" lon="3.97406">
        <ele>1096.7</ele>
        <time>2014-04-27T09:18:33Z</time>
      </trkpt>
      <trkpt lat="45.54178" lon="3.97397">
        <ele>1098.8</ele>
        <time>2014-04-27T09:18:42Z</time>
      </trkpt>
      <trkpt lat="45.54191" lon="3.97389">
        <ele>1101.4</ele>
        <time>2014-04-27T09:18:51Z</time>
      </trkpt>
      <trkpt lat="45.54205" lon="3.97382">
        <ele>1103.5</ele>
        <time>2014-04-27T09:18:59Z</time>
      </trkpt>
      <trkpt lat="45.5422" lon="3.97376">
        <ele>1105.2</ele>
        <time>2014-04-27T09:19:06Z</time>
      </trkpt>
      <trkpt lat="45.54234" lon="3.97372">
        <ele>1106.4</ele>
        <time>2014-04-27T09:19:14Z</time>
      </trkpt>
      <trkpt lat="45.54249" lon="3.97368">
        <ele>1106.4</ele>
        <time>2014-04-27T09:19:22Z</time>
      </trkpt>
      <trkpt lat="45.54264" lon="3.97362">
        <ele>1106.8</ele>
        <time>2014-04-27T09:19:31Z</time>
      </trkpt>
      <trkpt lat="45.54277" lon="3.97357">
        <ele>1108.5</ele>
        <time>2014-04-27T09:19:39Z</time>
      </trkpt>
      <trkpt lat="45.54292" lon="3.97351">
        <ele>1109.8</ele>
        <time>2014-04-27T09:19:46Z</time>
      </trkpt>
      <trkpt lat="45.54305" lon="3.97342">
        <ele>1111.6</ele>
        <time>2014-04-27T09:19:54Z</time>
      </trkpt>
      <trkpt lat="45.54318" lon="3.97334">
        <ele>1112.4</ele>
        <time>2014-04-27T09:20:02Z</time>
      </trkpt>
      <trkpt lat="45.54334" lon="3.97327">
        <ele>1113.1</ele>
        <time>2014-04-27T09:20:09Z</time>
      </trkpt>
      <trkpt lat="45.54348" lon="3.9732">
        <ele>1113.8</ele>
        <time>2014-04-27T09:20:16Z</time>
      </trkpt>
      <trkpt lat="45.54361" lon="3.97314">
        <ele>1114.5</ele>
        <time>2014-04-27T09:20:22Z</time>
      </trkpt>
      <trkpt lat="45.54375" lon="3.97306">
        <ele>1115.6</ele>
        <time>2014-04-27T09:20:28Z</time>
      </trkpt>
      <trkpt lat="45.54388" lon="3.97298">
        <ele>1116.7</ele>
        <time>2014-04-27T09:20:36Z</time>
      </trkpt>
      <trkpt lat="45.54402" lon="3.97289">
        <ele>1118.2</ele>
        <time>2014-04-27T09:20:43Z</time>
      </trkpt>
      <trkpt lat="45.54415" lon="3.97281">
        <ele>1120.7</ele>
        <time>2014-04-27T09:20:46Z</time>
      </trkpt>
      <trkpt lat="45.54425" lon="3.97271">
        <ele>1122.6</ele>
        <time>2014-04-27T09:21:10Z</time>
      </trkpt>
      <trkpt lat="45.54435" lon="3.97257">
        <ele>1123.5</ele>
        <time>2014-04-27T09:21:16Z</time>
      </trkpt>
      <trkpt lat="45.54442" lon="3.97245">
        <ele>1123.1</ele>
        <time>2014-04-27T09:21:22Z</time>
      </trkpt>
      <trkpt lat="45.54448" lon="3.9723">
        <ele>1124</ele>
        <time>2014-04-27T09:21:29Z</time>
      </trkpt>
      <trkpt lat="45.54454" lon="3.97213">
        <ele>1123.9</ele>
        <time>2014-04-27T09:21:36Z</time>
      </trkpt>
      <trkpt lat="45.54456" lon="3.972">
        <ele>1124.3</ele>
        <time>2014-04-27T09:21:43Z</time>
      </trkpt>
      <trkpt lat="45.54456" lon="3.97184">
        <ele>1123.8</ele>
        <time>2014-04-27T09:21:49Z</time>
      </trkpt>
      <trkpt lat="45.54454" lon="3.97167">
        <ele>1122.9</ele>
        <time>2014-04-27T09:21:54Z</time>
      </trkpt>
      <trkpt lat="45.54455" lon="3.97151">
        <ele>1124</ele>
        <time>2014-04-27T09:22:00Z</time>
      </trkpt>
      <trkpt lat="45.54456" lon="3.97135">
        <ele>1124.5</ele>
        <time>2014-04-27T09:22:06Z</time>
      </trkpt>
      <trkpt lat="45.54452" lon="3.97121">
        <ele>1127.1</ele>
        <time>2014-04-27T09:22:11Z</time>
      </trkpt>
      <trkpt lat="45.54452" lon="3.97104">
        <ele>1127.4</ele>
        <time>2014-04-27T09:22:16Z</time>
      </trkpt>
      <trkpt lat="45.54451" lon="3.97088">
        <ele>1127.5</ele>
        <time>2014-04-27T09:22:20Z</time>
      </trkpt>
      <trkpt lat="45.54451" lon="3.97073">
        <ele>1126.3</ele>
        <time>2014-04-27T09:22:25Z</time>
      </trkpt>
      <trkpt lat="45.5445" lon="3.97058">
        <ele>1125.7</ele>
        <time>2014-04-27T09:22:28Z</time>
      </trkpt>
      <trkpt lat="45.54449" lon="3.97043">
        <ele>1125.8</ele>
        <time>2014-04-27T09:22:32Z</time>
      </trkpt>
      <trkpt lat="45.54448" lon="3.97028">
        <ele>1126</ele>
        <time>2014-04-27T09:22:37Z</time>
      </trkpt>
      <trkpt lat="45.54448" lon="3.97012">
        <ele>1126.7</ele>
        <time>2014-04-27T09:22:43Z</time>
      </trkpt>
      <trkpt lat="45.54446" lon="3.96996">
        <ele>1128.4</ele>
        <time>2014-04-27T09:22:48Z</time>
      </trkpt>
      <trkpt lat="45.54444" lon="3.96981">
        <ele>1130.2</ele>
        <time>2014-04-27T09:22:52Z</time>
      </trkpt>
      <trkpt lat="45.5444" lon="3.96965">
        <ele>1131.5</ele>
        <time>2014-04-27T09:22:57Z</time>
      </trkpt>
      <trkpt lat="45.54436" lon="3.96949">
        <ele>1131.3</ele>
        <time>2014-04-27T09:23:00Z</time>
      </trkpt>
      <trkpt lat="45.54433" lon="3.96933">
        <ele>1130.3</ele>
        <time>2014-04-27T09:23:03Z</time>
      </trkpt>
      <trkpt lat="45.54431" lon="3.96917">
        <ele>1129</ele>
        <time>2014-04-27T09:23:06Z</time>
      </trkpt>
      <trkpt lat="45.54433" lon="3.96902">
        <ele>1129</ele>
        <time>2014-04-27T09:23:09Z</time>
      </trkpt>
      <trkpt lat="45.54435" lon="3.96887">
        <ele>1128.5</ele>
        <time>2014-04-27T09:23:12Z</time>
      </trkpt>
      <trkpt lat="45.54437" lon="3.96872">
        <ele>1129</ele>
        <time>2014-04-27T09:23:15Z</time>
      </trkpt>
      <trkpt lat="45.54437" lon="3.96855">
        <ele>1130.7</ele>
        <time>2014-04-27T09:23:19Z</time>
      </trkpt>
      <trkpt lat="45.5444" lon="3.96838">
        <ele>1132.1</ele>
        <time>2014-04-27T09:23:23Z</time>
      </trkpt>
      <trkpt lat="45.54442" lon="3.96824">
        <ele>1133</ele>
        <time>2014-04-27T09:23:28Z</time>
      </trkpt>
      <trkpt lat="45.54444" lon="3.96809">
        <ele>1134.3</ele>
        <time>2014-04-27T09:23:33Z</time>
      </trkpt>
      <trkpt lat="45.54446" lon="3.96796">
        <ele>1134.5</ele>
        <time>2014-04-27T09:23:38Z</time>
      </trkpt>
      <trkpt lat="45.54449" lon="3.9678">
        <ele>1134.5</ele>
        <time>2014-04-27T09:23:43Z</time>
      </trkpt>
      <trkpt lat="45.54451" lon="3.96763">
        <ele>1135.6</ele>
        <time>2014-04-27T09:23:48Z</time>
      </trkpt>
      <trkpt lat="45.54452" lon="3.96748">
        <ele>1137.2</ele>
        <time>2014-04-27T09:23:53Z</time>
      </trkpt>
      <trkpt lat="45.54449" lon="3.96734">
        <ele>1138.6</ele>
        <time>2014-04-27T09:24:00Z</time>
      </trkpt>
      <trkpt lat="45.54446" lon="3.96718">
        <ele>1139.9</ele>
        <time>2014-04-27T09:24:08Z</time>
      </trkpt>
      <trkpt lat="45.54445" lon="3.96703">
        <ele>1139.8</ele>
        <time>2014-04-27T09:24:15Z</time>
      </trkpt>
      <trkpt lat="45.54444" lon="3.96689">
        <ele>1139.8</ele>
        <time>2014-04-27T09:24:22Z</time>
      </trkpt>
      <trkpt lat="45.54442" lon="3.96672">
        <ele>1140.6</ele>
        <time>2014-04-27T09:24:27Z</time>
      </trkpt>
      <trkpt lat="45.54442" lon="3.96654">
        <ele>1142.9</ele>
        <time>2014-04-27T09:24:32Z</time>
      </trkpt>
      <trkpt lat="45.54444" lon="3.96638">
        <ele>1143.1</ele>
        <time>2014-04-27T09:24:37Z</time>
      </trkpt>
      <trkpt lat="45.54446" lon="3.96622">
        <ele>1143.4</ele>
        <time>2014-04-27T09:24:42Z</time>
      </trkpt>
      <trkpt lat="45.54448" lon="3.96605">
        <ele>1143.5</ele>
        <time>2014-04-27T09:24:47Z</time>
      </trkpt>
      <trkpt lat="45.54451" lon="3.96588">
        <ele>1144.3</ele>
        <time>2014-04-27T09:24:52Z</time>
      </trkpt>
      <trkpt lat="45.54453" lon="3.96573">
        <ele>1143.5</ele>
        <time>2014-04-27T09:24:56Z</time>
      </trkpt>
      <trkpt lat="45.54456" lon="3.96558">
        <ele>1143</ele>
        <time>2014-04-27T09:24:59Z</time>
      </trkpt>
      <trkpt lat="45.5446" lon="3.96543">
        <ele>1142</ele>
        <time>2014-04-27T09:25:04Z</time>
      </trkpt>
      <trkpt lat="45.54464" lon="3.96529">
        <ele>1142</ele>
        <time>2014-04-27T09:25:08Z</time>
      </trkpt>
      <trkpt lat="45.54468" lon="3.96512">
        <ele>1142.9</ele>
        <time>2014-04-27T09:25:12Z</time>
      </trkpt>
      <trkpt lat="45.54472" lon="3.96496">
        <ele>1144.4</ele>
        <time>2014-04-27T09:25:17Z</time>
      </trkpt>
      <trkpt lat="45.5448" lon="3.96484">
        <ele>1144.1</ele>
        <time>2014-04-27T09:25:22Z</time>
      </trkpt>
      <trkpt lat="45.54489" lon="3.96472">
        <ele>1145.2</ele>
        <time>2014-04-27T09:25:28Z</time>
      </trkpt>
      <trkpt lat="45.54499" lon="3.96459">
        <ele>1144.9</ele>
        <time>2014-04-27T09:25:33Z</time>
      </trkpt>
      <trkpt lat="45.54508" lon="3.96447">
        <ele>1145.2</ele>
        <time>2014-04-27T09:25:37Z</time>
      </trkpt>
      <trkpt lat="45.54517" lon="3.96435">
        <ele>1146.5</ele>
        <time>2014-04-27T09:25:42Z</time>
      </trkpt>
      <trkpt lat="45.54527" lon="3.96424">
        <ele>1149.3</ele>
        <time>2014-04-27T09:25:46Z</time>
      </trkpt>
      <trkpt lat="45.54538" lon="3.96413">
        <ele>1150.9</ele>
        <time>2014-04-27T09:25:51Z</time>
      </trkpt>
      <trkpt lat="45.5455" lon="3.96403">
        <ele>1152.3</ele>
        <time>2014-04-27T09:25:56Z</time>
      </trkpt>
      <trkpt lat="45.54562" lon="3.96393">
        <ele>1152.9</ele>
        <time>2014-04-27T09:26:02Z</time>
      </trkpt>
      <trkpt lat="45.54574" lon="3.96382">
        <ele>1153.2</ele>
        <time>2014-04-27T09:26:08Z</time>
      </trkpt>
      <trkpt lat="45.54585" lon="3.96372">
        <ele>1153</ele>
        <time>2014-04-27T09:26:14Z</time>
      </trkpt>
      <trkpt lat="45.54595" lon="3.9636">
        <ele>1153</ele>
        <time>2014-04-27T09:26:21Z</time>
      </trkpt>
      <trkpt lat="45.54603" lon="3.96347">
        <ele>1153.1</ele>
        <time>2014-04-27T09:26:27Z</time>
      </trkpt>
      <trkpt lat="45.54609" lon="3.96332">
        <ele>1154.2</ele>
        <time>2014-04-27T09:26:31Z</time>
      </trkpt>
      <trkpt lat="45.54614" lon="3.96317">
        <ele>1154.7</ele>
        <time>2014-04-27T09:26:35Z</time>
      </trkpt>
      <trkpt lat="45.54618" lon="3.96302">
        <ele>1155.3</ele>
        <time>2014-04-27T09:26:40Z</time>
      </trkpt>
      <trkpt lat="45.54623" lon="3.96287">
        <ele>1156.8</ele>
        <time>2014-04-27T09:26:44Z</time>
      </trkpt>
      <trkpt lat="45.54627" lon="3.96273">
        <ele>1159.5</ele>
        <time>2014-04-27T09:26:49Z</time>
      </trkpt>
      <trkpt lat="45.54631" lon="3.96258">
        <ele>1162.6</ele>
        <time>2014-04-27T09:26:54Z</time>
      </trkpt>
      <trkpt lat="45.54633" lon="3.96243">
        <ele>1166.3</ele>
        <time>2014-04-27T09:26:59Z</time>
      </trkpt>
      <trkpt lat="45.54637" lon="3.96227">
        <ele>1169.9</ele>
        <time>2014-04-27T09:27:05Z</time>
      </trkpt>
      <trkpt lat="45.54642" lon="3.9621">
        <ele>1170.3</ele>
        <time>2014-04-27T09:27:10Z</time>
      </trkpt>
      <trkpt lat="45.54648" lon="3.96195">
        <ele>1171.5</ele>
        <time>2014-04-27T09:27:15Z</time>
      </trkpt>
      <trkpt lat="45.54652" lon="3.9618">
        <ele>1171.8</ele>
        <time>2014-04-27T09:27:20Z</time>
      </trkpt>
      <trkpt lat="45.54656" lon="3.96165">
        <ele>1171</ele>
        <time>2014-04-27T09:27:25Z</time>
      </trkpt>
      <trkpt lat="45.54657" lon="3.96148">
        <ele>1171.2</ele>
        <time>2014-04-27T09:27:29Z</time>
      </trkpt>
      <trkpt lat="45.54656" lon="3.96132">
        <ele>1171</ele>
        <time>2014-04-27T09:27:32Z</time>
      </trkpt>
      <trkpt lat="45.54654" lon="3.96116">
        <ele>1170</ele>
        <time>2014-04-27T09:27:38Z</time>
      </trkpt>
      <trkpt lat="45.54659" lon="3.96106">
        <ele>1162.6</ele>
        <time>2014-04-27T09:27:42Z</time>
      </trkpt>
      <trkpt lat="45.54654" lon="3.96087">
        <ele>1166</ele>
        <time>2014-04-27T09:30:03Z</time>
      </trkpt>
      <trkpt lat="45.54649" lon="3.96072">
        <ele>1166</ele>
        <time>2014-04-27T09:30:07Z</time>
      </trkpt>
      <trkpt lat="45.54644" lon="3.96057">
        <ele>1161.7</ele>
        <time>2014-04-27T09:30:10Z</time>
      </trkpt>
      <trkpt lat="45.54629" lon="3.9604">
        <ele>1161.8</ele>
        <time>2014-04-27T09:36:51Z</time>
      </trkpt>
      <trkpt lat="45.54621" lon="3.96025">
        <ele>1161.5</ele>
        <time>2014-04-27T09:36:54Z</time>
      </trkpt>
      <trkpt lat="45.54613" lon="3.96012">
        <ele>1161</ele>
        <time>2014-04-27T09:36:57Z</time>
      </trkpt>
      <trkpt lat="45.54605" lon="3.95999">
        <ele>1160.5</ele>
        <time>2014-04-27T09:37:00Z</time>
      </trkpt>
      <trkpt lat="45.54595" lon="3.95983">
        <ele>1160</ele>
        <time>2014-04-27T09:37:03Z</time>
      </trkpt>
      <trkpt lat="45.54584" lon="3.95967">
        <ele>1160</ele>
        <time>2014-04-27T09:37:05Z</time>
      </trkpt>
      <trkpt lat="45.54574" lon="3.95954">
        <ele>1159.5</ele>
        <time>2014-04-27T09:37:08Z</time>
      </trkpt>
      <trkpt lat="45.54563" lon="3.9594">
        <ele>1159.5</ele>
        <time>2014-04-27T09:37:10Z</time>
      </trkpt>
      <trkpt lat="45.54552" lon="3.95925">
        <ele>1159.5</ele>
        <time>2014-04-27T09:37:11Z</time>
      </trkpt>
      <trkpt lat="45.54543" lon="3.9591">
        <ele>1159.5</ele>
        <time>2014-04-27T09:37:13Z</time>
      </trkpt>
      <trkpt lat="45.54535" lon="3.95893">
        <ele>1159.5</ele>
        <time>2014-04-27T09:37:16Z</time>
      </trkpt>
      <trkpt lat="45.54527" lon="3.95877">
        <ele>1159</ele>
        <time>2014-04-27T09:37:17Z</time>
      </trkpt>
      <trkpt lat="45.54519" lon="3.95861">
        <ele>1159</ele>
        <time>2014-04-27T09:37:19Z</time>
      </trkpt>
      <trkpt lat="45.54511" lon="3.95846">
        <ele>1158.5</ele>
        <time>2014-04-27T09:37:22Z</time>
      </trkpt>
      <trkpt lat="45.54504" lon="3.95831">
        <ele>1158</ele>
        <time>2014-04-27T09:37:23Z</time>
      </trkpt>
      <trkpt lat="45.54497" lon="3.95815">
        <ele>1158</ele>
        <time>2014-04-27T09:37:25Z</time>
      </trkpt>
      <trkpt lat="45.54491" lon="3.95799">
        <ele>1158</ele>
        <time>2014-04-27T09:37:28Z</time>
      </trkpt>
      <trkpt lat="45.54487" lon="3.95782">
        <ele>1157.5</ele>
        <time>2014-04-27T09:37:30Z</time>
      </trkpt>
      <trkpt lat="45.54483" lon="3.95765">
        <ele>1157.5</ele>
        <time>2014-04-27T09:37:31Z</time>
      </trkpt>
      <trkpt lat="45.54482" lon="3.95748">
        <ele>1157.5</ele>
        <time>2014-04-27T09:37:34Z</time>
      </trkpt>
      <trkpt lat="45.54484" lon="3.95732">
        <ele>1157.5</ele>
        <time>2014-04-27T09:37:36Z</time>
      </trkpt>
      <trkpt lat="45.54486" lon="3.95716">
        <ele>1157.5</ele>
        <time>2014-04-27T09:37:37Z</time>
      </trkpt>
      <trkpt lat="45.54488" lon="3.95697">
        <ele>1157.3</ele>
        <time>2014-04-27T09:37:40Z</time>
      </trkpt>
      <trkpt lat="45.54485" lon="3.95679">
        <ele>1156.8</ele>
        <time>2014-04-27T09:37:43Z</time>
      </trkpt>
      <trkpt lat="45.54469" lon="3.95678">
        <ele>1156.6</ele>
        <time>2014-04-27T09:37:48Z</time>
      </trkpt>
      <trkpt lat="45.54458" lon="3.95691">
        <ele>1156</ele>
        <time>2014-04-27T09:37:53Z</time>
      </trkpt>
      <trkpt lat="45.54448" lon="3.95702">
        <ele>1155.7</ele>
        <time>2014-04-27T09:37:56Z</time>
      </trkpt>
      <trkpt lat="45.54436" lon="3.95713">
        <ele>1155.2</ele>
        <time>2014-04-27T09:38:01Z</time>
      </trkpt>
      <trkpt lat="45.5442" lon="3.95721">
        <ele>1155.3</ele>
        <time>2014-04-27T09:38:05Z</time>
      </trkpt>
      <trkpt lat="45.54405" lon="3.95726">
        <ele>1155.3</ele>
        <time>2014-04-27T09:38:08Z</time>
      </trkpt>
      <trkpt lat="45.5439" lon="3.9573">
        <ele>1154.6</ele>
        <time>2014-04-27T09:38:12Z</time>
      </trkpt>
      <trkpt lat="45.54377" lon="3.95735">
        <ele>1153.9</ele>
        <time>2014-04-27T09:38:17Z</time>
      </trkpt>
      <trkpt lat="45.54362" lon="3.9574">
        <ele>1153.9</ele>
        <time>2014-04-27T09:38:22Z</time>
      </trkpt>
      <trkpt lat="45.54346" lon="3.95742">
        <ele>1153.2</ele>
        <time>2014-04-27T09:38:27Z</time>
      </trkpt>
      <trkpt lat="45.54329" lon="3.95742">
        <ele>1152.5</ele>
        <time>2014-04-27T09:38:31Z</time>
      </trkpt>
      <trkpt lat="45.54311" lon="3.95742">
        <ele>1152.5</ele>
        <time>2014-04-27T09:38:34Z</time>
      </trkpt>
      <trkpt lat="45.54295" lon="3.95741">
        <ele>1152.5</ele>
        <time>2014-04-27T09:38:37Z</time>
      </trkpt>
      <trkpt lat="45.54279" lon="3.95743">
        <ele>1151.8</ele>
        <time>2014-04-27T09:38:40Z</time>
      </trkpt>
      <trkpt lat="45.54264" lon="3.95744">
        <ele>1150.5</ele>
        <time>2014-04-27T09:38:45Z</time>
      </trkpt>
      <trkpt lat="45.54246" lon="3.95747">
        <ele>1149.5</ele>
        <time>2014-04-27T09:38:48Z</time>
      </trkpt>
      <trkpt lat="45.54229" lon="3.95755">
        <ele>1148</ele>
        <time>2014-04-27T09:38:51Z</time>
      </trkpt>
      <trkpt lat="45.54212" lon="3.95767">
        <ele>1147.3</ele>
        <time>2014-04-27T09:38:54Z</time>
      </trkpt>
      <trkpt lat="45.54197" lon="3.9578">
        <ele>1147</ele>
        <time>2014-04-27T09:38:57Z</time>
      </trkpt>
      <trkpt lat="45.54184" lon="3.95792">
        <ele>1147</ele>
        <time>2014-04-27T09:39:00Z</time>
      </trkpt>
      <trkpt lat="45.54172" lon="3.95804">
        <ele>1147.3</ele>
        <time>2014-04-27T09:39:03Z</time>
      </trkpt>
      <trkpt lat="45.54161" lon="3.95815">
        <ele>1146.8</ele>
        <time>2014-04-27T09:39:06Z</time>
      </trkpt>
      <trkpt lat="45.54148" lon="3.95824">
        <ele>1145.7</ele>
        <time>2014-04-27T09:39:10Z</time>
      </trkpt>
      <trkpt lat="45.54133" lon="3.95829">
        <ele>1144.2</ele>
        <time>2014-04-27T09:39:13Z</time>
      </trkpt>
      <trkpt lat="45.54117" lon="3.95837">
        <ele>1142.5</ele>
        <time>2014-04-27T09:39:18Z</time>
      </trkpt>
      <trkpt lat="45.54101" lon="3.95843">
        <ele>1141.8</ele>
        <time>2014-04-27T09:39:21Z</time>
      </trkpt>
      <trkpt lat="45.54086" lon="3.95847">
        <ele>1141</ele>
        <time>2014-04-27T09:39:24Z</time>
      </trkpt>
      <trkpt lat="45.54072" lon="3.95856">
        <ele>1141.8</ele>
        <time>2014-04-27T09:39:28Z</time>
      </trkpt>
      <trkpt lat="45.54064" lon="3.95872">
        <ele>1141.5</ele>
        <time>2014-04-27T09:39:31Z</time>
      </trkpt>
      <trkpt lat="45.5406" lon="3.95889">
        <ele>1141</ele>
        <time>2014-04-27T09:39:35Z</time>
      </trkpt>
      <trkpt lat="45.54057" lon="3.95905">
        <ele>1140</ele>
        <time>2014-04-27T09:39:38Z</time>
      </trkpt>
      <trkpt lat="45.54054" lon="3.95923">
        <ele>1139.8</ele>
        <time>2014-04-27T09:39:41Z</time>
      </trkpt>
      <trkpt lat="45.5405" lon="3.95943">
        <ele>1139.8</ele>
        <time>2014-04-27T09:39:44Z</time>
      </trkpt>
      <trkpt lat="45.54042" lon="3.95959">
        <ele>1139.5</ele>
        <time>2014-04-27T09:39:48Z</time>
      </trkpt>
      <trkpt lat="45.54033" lon="3.9597">
        <ele>1137.8</ele>
        <time>2014-04-27T09:40:06Z</time>
      </trkpt>
      <trkpt lat="45.54046" lon="3.95988">
        <ele>1136.3</ele>
        <time>2014-04-27T09:40:24Z</time>
      </trkpt>
      <trkpt lat="45.54043" lon="3.96004">
        <ele>1135</ele>
        <time>2014-04-27T09:40:28Z</time>
      </trkpt>
      <trkpt lat="45.54038" lon="3.96018">
        <ele>1131.5</ele>
        <time>2014-04-27T09:40:31Z</time>
      </trkpt>
      <trkpt lat="45.54033" lon="3.96036">
        <ele>1127.8</ele>
        <time>2014-04-27T09:40:34Z</time>
      </trkpt>
      <trkpt lat="45.54028" lon="3.96053">
        <ele>1126.3</ele>
        <time>2014-04-27T09:40:37Z</time>
      </trkpt>
      <trkpt lat="45.54023" lon="3.96067">
        <ele>1124</ele>
        <time>2014-04-27T09:40:41Z</time>
      </trkpt>
      <trkpt lat="45.54017" lon="3.96081">
        <ele>1122.5</ele>
        <time>2014-04-27T09:40:47Z</time>
      </trkpt>
      <trkpt lat="45.54012" lon="3.96098">
        <ele>1122.5</ele>
        <time>2014-04-27T09:40:52Z</time>
      </trkpt>
      <trkpt lat="45.54004" lon="3.96113">
        <ele>1122</ele>
        <time>2014-04-27T09:40:57Z</time>
      </trkpt>
      <trkpt lat="45.53996" lon="3.96129">
        <ele>1122</ele>
        <time>2014-04-27T09:41:00Z</time>
      </trkpt>
      <trkpt lat="45.53987" lon="3.96145">
        <ele>1121</ele>
        <time>2014-04-27T09:41:03Z</time>
      </trkpt>
      <trkpt lat="45.53977" lon="3.9616">
        <ele>1120.6</ele>
        <time>2014-04-27T09:41:07Z</time>
      </trkpt>
      <trkpt lat="45.53969" lon="3.96171">
        <ele>1120.4</ele>
        <time>2014-04-27T09:41:12Z</time>
      </trkpt>
      <trkpt lat="45.53961" lon="3.96184">
        <ele>1120.3</ele>
        <time>2014-04-27T09:41:16Z</time>
      </trkpt>
      <trkpt lat="45.53954" lon="3.96199">
        <ele>1120</ele>
        <time>2014-04-27T09:41:19Z</time>
      </trkpt>
      <trkpt lat="45.53947" lon="3.96214">
        <ele>1119.5</ele>
        <time>2014-04-27T09:41:20Z</time>
      </trkpt>
      <trkpt lat="45.53938" lon="3.96228">
        <ele>1119</ele>
        <time>2014-04-27T09:41:23Z</time>
      </trkpt>
      <trkpt lat="45.53929" lon="3.9624">
        <ele>1118.5</ele>
        <time>2014-04-27T09:41:25Z</time>
      </trkpt>
      <trkpt lat="45.53919" lon="3.96253">
        <ele>1118.5</ele>
        <time>2014-04-27T09:41:26Z</time>
      </trkpt>
      <trkpt lat="45.53909" lon="3.96267">
        <ele>1118.5</ele>
        <time>2014-04-27T09:41:29Z</time>
      </trkpt>
      <trkpt lat="45.53897" lon="3.96278">
        <ele>1118.5</ele>
        <time>2014-04-27T09:41:31Z</time>
      </trkpt>
      <trkpt lat="45.53883" lon="3.96288">
        <ele>1118</ele>
        <time>2014-04-27T09:41:33Z</time>
      </trkpt>
      <trkpt lat="45.53867" lon="3.96299">
        <ele>1117</ele>
        <time>2014-04-27T09:41:36Z</time>
      </trkpt>
      <trkpt lat="45.53852" lon="3.96312">
        <ele>1116.5</ele>
        <time>2014-04-27T09:41:39Z</time>
      </trkpt>
      <trkpt lat="45.53836" lon="3.96325">
        <ele>1115.8</ele>
        <time>2014-04-27T09:41:42Z</time>
      </trkpt>
      <trkpt lat="45.5382" lon="3.96338">
        <ele>1115</ele>
        <time>2014-04-27T09:41:45Z</time>
      </trkpt>
      <trkpt lat="45.53804" lon="3.96351">
        <ele>1114.5</ele>
        <time>2014-04-27T09:41:48Z</time>
      </trkpt>
      <trkpt lat="45.53791" lon="3.96366">
        <ele>1114.5</ele>
        <time>2014-04-27T09:41:51Z</time>
      </trkpt>
      <trkpt lat="45.53777" lon="3.9638">
        <ele>1113.8</ele>
        <time>2014-04-27T09:41:54Z</time>
      </trkpt>
      <trkpt lat="45.53761" lon="3.96392">
        <ele>1113</ele>
        <time>2014-04-27T09:41:57Z</time>
      </trkpt>
      <trkpt lat="45.53748" lon="3.96401">
        <ele>1111.7</ele>
        <time>2014-04-27T09:42:01Z</time>
      </trkpt>
      <trkpt lat="45.53734" lon="3.96407">
        <ele>1111.5</ele>
        <time>2014-04-27T09:42:04Z</time>
      </trkpt>
      <trkpt lat="45.53719" lon="3.96412">
        <ele>1110.7</ele>
        <time>2014-04-27T09:42:09Z</time>
      </trkpt>
      <trkpt lat="45.53705" lon="3.96418">
        <ele>1110</ele>
        <time>2014-04-27T09:42:13Z</time>
      </trkpt>
      <trkpt lat="45.53697" lon="3.96434">
        <ele>1108</ele>
        <time>2014-04-27T09:42:17Z</time>
      </trkpt>
      <trkpt lat="45.53693" lon="3.96454">
        <ele>1106.8</ele>
        <time>2014-04-27T09:42:20Z</time>
      </trkpt>
      <trkpt lat="45.53692" lon="3.96467">
        <ele>1105.2</ele>
        <time>2014-04-27T09:42:24Z</time>
      </trkpt>
      <trkpt lat="45.53695" lon="3.96484">
        <ele>1103.8</ele>
        <time>2014-04-27T09:42:31Z</time>
      </trkpt>
      <trkpt lat="45.53701" lon="3.96496">
        <ele>1102.6</ele>
        <time>2014-04-27T09:42:40Z</time>
      </trkpt>
      <trkpt lat="45.53711" lon="3.96509">
        <ele>1100.6</ele>
        <time>2014-04-27T09:42:47Z</time>
      </trkpt>
      <trkpt lat="45.53722" lon="3.96521">
        <ele>1096.5</ele>
        <time>2014-04-27T09:42:53Z</time>
      </trkpt>
      <trkpt lat="45.53729" lon="3.96537">
        <ele>1092.8</ele>
        <time>2014-04-27T09:42:56Z</time>
      </trkpt>
      <trkpt lat="45.53725" lon="3.96552">
        <ele>1088.8</ele>
        <time>2014-04-27T09:42:59Z</time>
      </trkpt>
      <trkpt lat="45.53715" lon="3.96565">
        <ele>1086.3</ele>
        <time>2014-04-27T09:43:02Z</time>
      </trkpt>
      <trkpt lat="45.53704" lon="3.96579">
        <ele>1084.8</ele>
        <time>2014-04-27T09:43:05Z</time>
      </trkpt>
      <trkpt lat="45.53698" lon="3.96594">
        <ele>1083.8</ele>
        <time>2014-04-27T09:43:08Z</time>
      </trkpt>
      <trkpt lat="45.53697" lon="3.9661">
        <ele>1082.5</ele>
        <time>2014-04-27T09:43:11Z</time>
      </trkpt>
      <trkpt lat="45.53701" lon="3.96627">
        <ele>1080</ele>
        <time>2014-04-27T09:43:14Z</time>
      </trkpt>
      <trkpt lat="45.53707" lon="3.96646">
        <ele>1077.5</ele>
        <time>2014-04-27T09:43:17Z</time>
      </trkpt>
      <trkpt lat="45.53712" lon="3.96665">
        <ele>1075.8</ele>
        <time>2014-04-27T09:43:20Z</time>
      </trkpt>
      <trkpt lat="45.53718" lon="3.9668">
        <ele>1073.5</ele>
        <time>2014-04-27T09:43:22Z</time>
      </trkpt>
      <trkpt lat="45.53723" lon="3.96698">
        <ele>1072</ele>
        <time>2014-04-27T09:43:25Z</time>
      </trkpt>
      <trkpt lat="45.53728" lon="3.96719">
        <ele>1070.5</ele>
        <time>2014-04-27T09:43:26Z</time>
      </trkpt>
      <trkpt lat="45.5373" lon="3.96741">
        <ele>1070</ele>
        <time>2014-04-27T09:43:28Z</time>
      </trkpt>
      <trkpt lat="45.53732" lon="3.96759">
        <ele>1069.5</ele>
        <time>2014-04-27T09:43:31Z</time>
      </trkpt>
      <trkpt lat="45.53732" lon="3.96778">
        <ele>1069.3</ele>
        <time>2014-04-27T09:43:33Z</time>
      </trkpt>
      <trkpt lat="45.53721" lon="3.96786">
        <ele>1067</ele>
        <time>2014-04-27T09:43:37Z</time>
      </trkpt>
      <trkpt lat="45.53708" lon="3.96777">
        <ele>1066.1</ele>
        <time>2014-04-27T09:43:42Z</time>
      </trkpt>
      <trkpt lat="45.53696" lon="3.96766">
        <ele>1066.4</ele>
        <time>2014-04-27T09:43:47Z</time>
      </trkpt>
      <trkpt lat="45.53684" lon="3.96755">
        <ele>1066.8</ele>
        <time>2014-04-27T09:43:52Z</time>
      </trkpt>
      <trkpt lat="45.53675" lon="3.96743">
        <ele>1068.7</ele>
        <time>2014-04-27T09:43:56Z</time>
      </trkpt>
      <trkpt lat="45.53663" lon="3.96732">
        <ele>1071.8</ele>
        <time>2014-04-27T09:44:01Z</time>
      </trkpt>
      <trkpt lat="45.5365" lon="3.96725">
        <ele>1073.4</ele>
        <time>2014-04-27T09:44:08Z</time>
      </trkpt>
      <trkpt lat="45.53634" lon="3.96722">
        <ele>1076.4</ele>
        <time>2014-04-27T09:44:14Z</time>
      </trkpt>
      <trkpt lat="45.53619" lon="3.9672">
        <ele>1077.1</ele>
        <time>2014-04-27T09:44:21Z</time>
      </trkpt>
      <trkpt lat="45.53603" lon="3.96724">
        <ele>1077.6</ele>
        <time>2014-04-27T09:44:26Z</time>
      </trkpt>
      <trkpt lat="45.53588" lon="3.96729">
        <ele>1078.2</ele>
        <time>2014-04-27T09:44:30Z</time>
      </trkpt>
      <trkpt lat="45.53571" lon="3.96728">
        <ele>1076.5</ele>
        <time>2014-04-27T09:44:34Z</time>
      </trkpt>
      <trkpt lat="45.53556" lon="3.96721">
        <ele>1076</ele>
        <time>2014-04-27T09:44:36Z</time>
      </trkpt>
      <trkpt lat="45.53545" lon="3.96699">
        <ele>1065.8</ele>
        <time>2014-04-27T09:44:38Z</time>
      </trkpt>
      <trkpt lat="45.53527" lon="3.96695">
        <ele>1065</ele>
        <time>2014-04-27T09:44:42Z</time>
      </trkpt>
      <trkpt lat="45.53516" lon="3.96707">
        <ele>1063.2</ele>
        <time>2014-04-27T09:44:46Z</time>
      </trkpt>
      <trkpt lat="45.53511" lon="3.96722">
        <ele>1062.1</ele>
        <time>2014-04-27T09:44:50Z</time>
      </trkpt>
      <trkpt lat="45.53512" lon="3.96736">
        <ele>1061.2</ele>
        <time>2014-04-27T09:44:58Z</time>
      </trkpt>
      <trkpt lat="45.53522" lon="3.96747">
        <ele>1059.7</ele>
        <time>2014-04-27T09:45:06Z</time>
      </trkpt>
      <trkpt lat="45.53533" lon="3.96759">
        <ele>1058.4</ele>
        <time>2014-04-27T09:45:13Z</time>
      </trkpt>
      <trkpt lat="45.53543" lon="3.9677">
        <ele>1058.5</ele>
        <time>2014-04-27T09:45:18Z</time>
      </trkpt>
      <trkpt lat="45.53555" lon="3.96783">
        <ele>1058</ele>
        <time>2014-04-27T09:45:23Z</time>
      </trkpt>
      <trkpt lat="45.53565" lon="3.96796">
        <ele>1057.5</ele>
        <time>2014-04-27T09:45:28Z</time>
      </trkpt>
      <trkpt lat="45.53573" lon="3.96809">
        <ele>1056.6</ele>
        <time>2014-04-27T09:45:34Z</time>
      </trkpt>
      <trkpt lat="45.53583" lon="3.96818">
        <ele>1055.3</ele>
        <time>2014-04-27T09:45:42Z</time>
      </trkpt>
      <trkpt lat="45.53594" lon="3.96827">
        <ele>1053.3</ele>
        <time>2014-04-27T09:45:51Z</time>
      </trkpt>
      <trkpt lat="45.53607" lon="3.96835">
        <ele>1052.3</ele>
        <time>2014-04-27T09:45:58Z</time>
      </trkpt>
      <trkpt lat="45.53619" lon="3.96846">
        <ele>1050.8</ele>
        <time>2014-04-27T09:46:05Z</time>
      </trkpt>
      <trkpt lat="45.5363" lon="3.96859">
        <ele>1048.3</ele>
        <time>2014-04-27T09:46:12Z</time>
      </trkpt>
      <trkpt lat="45.53641" lon="3.9687">
        <ele>1047.2</ele>
        <time>2014-04-27T09:46:21Z</time>
      </trkpt>
      <trkpt lat="45.53652" lon="3.96884">
        <ele>1046.4</ele>
        <time>2014-04-27T09:46:31Z</time>
      </trkpt>
      <trkpt lat="45.53659" lon="3.96899">
        <ele>1045.7</ele>
        <time>2014-04-27T09:46:38Z</time>
      </trkpt>
      <trkpt lat="45.53666" lon="3.96911">
        <ele>1045</ele>
        <time>2014-04-27T09:46:45Z</time>
      </trkpt>
      <trkpt lat="45.53672" lon="3.96925">
        <ele>1044.1</ele>
        <time>2014-04-27T09:46:52Z</time>
      </trkpt>
      <trkpt lat="45.53681" lon="3.96937">
        <ele>1043</ele>
        <time>2014-04-27T09:46:59Z</time>
      </trkpt>
      <trkpt lat="45.53688" lon="3.9695">
        <ele>1042</ele>
        <time>2014-04-27T09:47:05Z</time>
      </trkpt>
      <trkpt lat="45.53693" lon="3.96965">
        <ele>1041.6</ele>
        <time>2014-04-27T09:47:11Z</time>
      </trkpt>
      <trkpt lat="45.53699" lon="3.96979">
        <ele>1041.5</ele>
        <time>2014-04-27T09:47:17Z</time>
      </trkpt>
      <trkpt lat="45.53705" lon="3.96993">
        <ele>1040.8</ele>
        <time>2014-04-27T09:47:23Z</time>
      </trkpt>
      <trkpt lat="45.53714" lon="3.97006">
        <ele>1039.8</ele>
        <time>2014-04-27T09:47:30Z</time>
      </trkpt>
      <trkpt lat="45.53721" lon="3.9702">
        <ele>1039.2</ele>
        <time>2014-04-27T09:47:38Z</time>
      </trkpt>
      <trkpt lat="45.53723" lon="3.97035">
        <ele>1038.7</ele>
        <time>2014-04-27T09:47:43Z</time>
      </trkpt>
      <trkpt lat="45.53725" lon="3.97045">
        <ele>1038.4</ele>
        <time>2014-04-27T09:47:58Z</time>
      </trkpt>
      <trkpt lat="45.53722" lon="3.97151">
        <ele>1021.2</ele>
        <time>2014-04-27T09:49:29Z</time>
      </trkpt>
      <trkpt lat="45.53717" lon="3.97164">
        <ele>996.4</ele>
        <time>2014-04-27T09:51:04Z</time>
      </trkpt>
      <trkpt lat="45.5372" lon="3.97207">
        <ele>992</ele>
        <time>2014-04-27T09:52:12Z</time>
      </trkpt>
      <trkpt lat="45.53718" lon="3.97224">
        <ele>992</ele>
        <time>2014-04-27T09:52:17Z</time>
      </trkpt>
      <trkpt lat="45.53711" lon="3.97237">
        <ele>993.1</ele>
        <time>2014-04-27T09:52:22Z</time>
      </trkpt>
      <trkpt lat="45.53704" lon="3.97253">
        <ele>993.8</ele>
        <time>2014-04-27T09:52:27Z</time>
      </trkpt>
      <trkpt lat="45.53693" lon="3.97263">
        <ele>993.2</ele>
        <time>2014-04-27T09:52:32Z</time>
      </trkpt>
      <trkpt lat="45.53682" lon="3.97276">
        <ele>992</ele>
        <time>2014-04-27T09:52:36Z</time>
      </trkpt>
      <trkpt lat="45.53677" lon="3.97288">
        <ele>991.5</ele>
        <time>2014-04-27T09:52:42Z</time>
      </trkpt>
      <trkpt lat="45.53671" lon="3.97301">
        <ele>991.9</ele>
        <time>2014-04-27T09:52:47Z</time>
      </trkpt>
      <trkpt lat="45.53666" lon="3.97317">
        <ele>991.5</ele>
        <time>2014-04-27T09:52:52Z</time>
      </trkpt>
      <trkpt lat="45.53659" lon="3.97331">
        <ele>989.9</ele>
        <time>2014-04-27T09:52:58Z</time>
      </trkpt>
      <trkpt lat="45.53656" lon="3.97349">
        <ele>989.8</ele>
        <time>2014-04-27T09:53:05Z</time>
      </trkpt>
      <trkpt lat="45.5365" lon="3.97362">
        <ele>990.6</ele>
        <time>2014-04-27T09:53:11Z</time>
      </trkpt>
      <trkpt lat="45.53644" lon="3.97378">
        <ele>990.6</ele>
        <time>2014-04-27T09:53:17Z</time>
      </trkpt>
      <trkpt lat="45.53639" lon="3.97391">
        <ele>991</ele>
        <time>2014-04-27T09:53:23Z</time>
      </trkpt>
      <trkpt lat="45.53635" lon="3.97406">
        <ele>990.3</ele>
        <time>2014-04-27T09:53:28Z</time>
      </trkpt>
      <trkpt lat="45.5363" lon="3.97422">
        <ele>988.3</ele>
        <time>2014-04-27T09:53:34Z</time>
      </trkpt>
      <trkpt lat="45.53628" lon="3.97438">
        <ele>985.3</ele>
        <time>2014-04-27T09:53:38Z</time>
      </trkpt>
      <trkpt lat="45.53626" lon="3.97456">
        <ele>984.5</ele>
        <time>2014-04-27T09:53:43Z</time>
      </trkpt>
      <trkpt lat="45.53624" lon="3.97471">
        <ele>984.8</ele>
        <time>2014-04-27T09:53:48Z</time>
      </trkpt>
      <trkpt lat="45.53624" lon="3.97486">
        <ele>983.5</ele>
        <time>2014-04-27T09:53:51Z</time>
      </trkpt>
      <trkpt lat="45.53622" lon="3.97502">
        <ele>983.8</ele>
        <time>2014-04-27T09:53:56Z</time>
      </trkpt>
      <trkpt lat="45.53619" lon="3.97524">
        <ele>984.5</ele>
        <time>2014-04-27T09:53:59Z</time>
      </trkpt>
      <trkpt lat="45.53613" lon="3.97542">
        <ele>984.5</ele>
        <time>2014-04-27T09:54:02Z</time>
      </trkpt>
      <trkpt lat="45.5361" lon="3.9756">
        <ele>985.3</ele>
        <time>2014-04-27T09:54:05Z</time>
      </trkpt>
      <trkpt lat="45.53607" lon="3.97576">
        <ele>985.5</ele>
        <time>2014-04-27T09:54:08Z</time>
      </trkpt>
      <trkpt lat="45.53601" lon="3.97592">
        <ele>984</ele>
        <time>2014-04-27T09:54:11Z</time>
      </trkpt>
      <trkpt lat="45.53594" lon="3.97607">
        <ele>982.3</ele>
        <time>2014-04-27T09:54:15Z</time>
      </trkpt>
      <trkpt lat="45.5359" lon="3.97623">
        <ele>980</ele>
        <time>2014-04-27T09:54:19Z</time>
      </trkpt>
      <trkpt lat="45.53587" lon="3.97637">
        <ele>979</ele>
        <time>2014-04-27T09:54:22Z</time>
      </trkpt>
      <trkpt lat="45.5358" lon="3.97653">
        <ele>978.5</ele>
        <time>2014-04-27T09:54:25Z</time>
      </trkpt>
      <trkpt lat="45.53573" lon="3.97666">
        <ele>978.3</ele>
        <time>2014-04-27T09:54:29Z</time>
      </trkpt>
      <trkpt lat="45.53566" lon="3.97679">
        <ele>978.6</ele>
        <time>2014-04-27T09:54:33Z</time>
      </trkpt>
      <trkpt lat="45.53559" lon="3.97693">
        <ele>979.8</ele>
        <time>2014-04-27T09:54:38Z</time>
      </trkpt>
      <trkpt lat="45.5355" lon="3.97707">
        <ele>980.6</ele>
        <time>2014-04-27T09:54:43Z</time>
      </trkpt>
      <trkpt lat="45.53542" lon="3.9772">
        <ele>980.7</ele>
        <time>2014-04-27T09:54:48Z</time>
      </trkpt>
      <trkpt lat="45.53534" lon="3.97735">
        <ele>980.8</ele>
        <time>2014-04-27T09:54:54Z</time>
      </trkpt>
      <trkpt lat="45.53524" lon="3.97746">
        <ele>980.9</ele>
        <time>2014-04-27T09:55:00Z</time>
      </trkpt>
      <trkpt lat="45.53515" lon="3.97759">
        <ele>981.5</ele>
        <time>2014-04-27T09:55:05Z</time>
      </trkpt>
      <trkpt lat="45.53505" lon="3.97772">
        <ele>980.9</ele>
        <time>2014-04-27T09:55:11Z</time>
      </trkpt>
      <trkpt lat="45.53495" lon="3.97786">
        <ele>979.8</ele>
        <time>2014-04-27T09:55:19Z</time>
      </trkpt>
      <trkpt lat="45.53486" lon="3.97797">
        <ele>978.7</ele>
        <time>2014-04-27T09:55:26Z</time>
      </trkpt>
      <trkpt lat="45.53476" lon="3.97809">
        <ele>977.7</ele>
        <time>2014-04-27T09:55:31Z</time>
      </trkpt>
      <trkpt lat="45.53467" lon="3.97821">
        <ele>976.7</ele>
        <time>2014-04-27T09:55:38Z</time>
      </trkpt>
      <trkpt lat="45.5346" lon="3.97836">
        <ele>976</ele>
        <time>2014-04-27T09:55:44Z</time>
      </trkpt>
      <trkpt lat="45.53456" lon="3.97852">
        <ele>974.4</ele>
        <time>2014-04-27T09:55:49Z</time>
      </trkpt>
      <trkpt lat="45.53454" lon="3.97867">
        <ele>972.8</ele>
        <time>2014-04-27T09:55:54Z</time>
      </trkpt>
      <trkpt lat="45.53452" lon="3.97884">
        <ele>973</ele>
        <time>2014-04-27T09:55:57Z</time>
      </trkpt>
      <trkpt lat="45.53449" lon="3.979">
        <ele>972.3</ele>
        <time>2014-04-27T09:56:00Z</time>
      </trkpt>
      <trkpt lat="45.53447" lon="3.97917">
        <ele>970.5</ele>
        <time>2014-04-27T09:56:03Z</time>
      </trkpt>
      <trkpt lat="45.53445" lon="3.97935">
        <ele>969.5</ele>
        <time>2014-04-27T09:56:05Z</time>
      </trkpt>
      <trkpt lat="45.53443" lon="3.97954">
        <ele>970.8</ele>
        <time>2014-04-27T09:56:08Z</time>
      </trkpt>
      <trkpt lat="45.53439" lon="3.9797">
        <ele>968.8</ele>
        <time>2014-04-27T09:56:12Z</time>
      </trkpt>
      <trkpt lat="45.53431" lon="3.97984">
        <ele>966.7</ele>
        <time>2014-04-27T09:56:17Z</time>
      </trkpt>
      <trkpt lat="45.53424" lon="3.97999">
        <ele>963.5</ele>
        <time>2014-04-27T09:56:23Z</time>
      </trkpt>
      <trkpt lat="45.53415" lon="3.98012">
        <ele>958.9</ele>
        <time>2014-04-27T09:56:28Z</time>
      </trkpt>
      <trkpt lat="45.53405" lon="3.98026">
        <ele>956.5</ele>
        <time>2014-04-27T09:56:33Z</time>
      </trkpt>
      <trkpt lat="45.53399" lon="3.9804">
        <ele>955.3</ele>
        <time>2014-04-27T09:56:37Z</time>
      </trkpt>
      <trkpt lat="45.53396" lon="3.98056">
        <ele>954.7</ele>
        <time>2014-04-27T09:56:42Z</time>
      </trkpt>
      <trkpt lat="45.53397" lon="3.98073">
        <ele>955.2</ele>
        <time>2014-04-27T09:56:46Z</time>
      </trkpt>
      <trkpt lat="45.53402" lon="3.9809">
        <ele>956.5</ele>
        <time>2014-04-27T09:56:49Z</time>
      </trkpt>
      <trkpt lat="45.53407" lon="3.98108">
        <ele>959.3</ele>
        <time>2014-04-27T09:56:51Z</time>
      </trkpt>
      <trkpt lat="45.5341" lon="3.98128">
        <ele>960</ele>
        <time>2014-04-27T09:56:54Z</time>
      </trkpt>
      <trkpt lat="45.5341" lon="3.98147">
        <ele>960.8</ele>
        <time>2014-04-27T09:56:57Z</time>
      </trkpt>
      <trkpt lat="45.53409" lon="3.98165">
        <ele>961.3</ele>
        <time>2014-04-27T09:57:00Z</time>
      </trkpt>
      <trkpt lat="45.53405" lon="3.98182">
        <ele>959.7</ele>
        <time>2014-04-27T09:57:04Z</time>
      </trkpt>
      <trkpt lat="45.53398" lon="3.98197">
        <ele>958.7</ele>
        <time>2014-04-27T09:57:08Z</time>
      </trkpt>
      <trkpt lat="45.53391" lon="3.98213">
        <ele>956.5</ele>
        <time>2014-04-27T09:57:12Z</time>
      </trkpt>
      <trkpt lat="45.53385" lon="3.98229">
        <ele>955</ele>
        <time>2014-04-27T09:57:15Z</time>
      </trkpt>
      <trkpt lat="45.5338" lon="3.98243">
        <ele>954</ele>
        <time>2014-04-27T09:57:19Z</time>
      </trkpt>
      <trkpt lat="45.53373" lon="3.98257">
        <ele>951.5</ele>
        <time>2014-04-27T09:57:23Z</time>
      </trkpt>
      <trkpt lat="45.53367" lon="3.98273">
        <ele>949.8</ele>
        <time>2014-04-27T09:57:27Z</time>
      </trkpt>
      <trkpt lat="45.53363" lon="3.9829">
        <ele>948.3</ele>
        <time>2014-04-27T09:57:31Z</time>
      </trkpt>
      <trkpt lat="45.53361" lon="3.98308">
        <ele>947.3</ele>
        <time>2014-04-27T09:57:35Z</time>
      </trkpt>
      <trkpt lat="45.53359" lon="3.98327">
        <ele>945.4</ele>
        <time>2014-04-27T09:57:40Z</time>
      </trkpt>
      <trkpt lat="45.53357" lon="3.98344">
        <ele>945</ele>
        <time>2014-04-27T09:57:45Z</time>
      </trkpt>
      <trkpt lat="45.53357" lon="3.9836">
        <ele>945</ele>
        <time>2014-04-27T09:57:50Z</time>
      </trkpt>
      <trkpt lat="45.53351" lon="3.98378">
        <ele>942.5</ele>
        <time>2014-04-27T09:57:54Z</time>
      </trkpt>
      <trkpt lat="45.53352" lon="3.98393">
        <ele>943</ele>
        <time>2014-04-27T09:57:57Z</time>
      </trkpt>
      <trkpt lat="45.53349" lon="3.9841">
        <ele>941.3</ele>
        <time>2014-04-27T09:58:00Z</time>
      </trkpt>
      <trkpt lat="45.53338" lon="3.98424">
        <ele>937</ele>
        <time>2014-04-27T09:58:03Z</time>
      </trkpt>
      <trkpt lat="45.53329" lon="3.98433">
        <ele>933</ele>
        <time>2014-04-27T09:58:05Z</time>
      </trkpt>
      <trkpt lat="45.53312" lon="3.98442">
        <ele>927.3</ele>
        <time>2014-04-27T09:58:07Z</time>
      </trkpt>
      <trkpt lat="45.53292" lon="3.98443">
        <ele>925</ele>
        <time>2014-04-27T09:58:10Z</time>
      </trkpt>
      <trkpt lat="45.53274" lon="3.98457">
        <ele>925</ele>
        <time>2014-04-27T09:58:12Z</time>
      </trkpt>
      <trkpt lat="45.53266" lon="3.9848">
        <ele>923.5</ele>
        <time>2014-04-27T09:58:15Z</time>
      </trkpt>
      <trkpt lat="45.53256" lon="3.98502">
        <ele>922.5</ele>
        <time>2014-04-27T09:58:17Z</time>
      </trkpt>
      <trkpt lat="45.53244" lon="3.98523">
        <ele>922</ele>
        <time>2014-04-27T09:58:18Z</time>
      </trkpt>
      <trkpt lat="45.53231" lon="3.98544">
        <ele>921</ele>
        <time>2014-04-27T09:58:20Z</time>
      </trkpt>
      <trkpt lat="45.53218" lon="3.98564">
        <ele>920.5</ele>
        <time>2014-04-27T09:58:23Z</time>
      </trkpt>
      <trkpt lat="45.53208" lon="3.98582">
        <ele>920</ele>
        <time>2014-04-27T09:58:24Z</time>
      </trkpt>
      <trkpt lat="45.53199" lon="3.98599">
        <ele>919.5</ele>
        <time>2014-04-27T09:58:26Z</time>
      </trkpt>
      <trkpt lat="45.53191" lon="3.98616">
        <ele>919</ele>
        <time>2014-04-27T09:58:29Z</time>
      </trkpt>
      <trkpt lat="45.53182" lon="3.9863">
        <ele>918.5</ele>
        <time>2014-04-27T09:58:31Z</time>
      </trkpt>
      <trkpt lat="45.53173" lon="3.98644">
        <ele>918</ele>
        <time>2014-04-27T09:58:32Z</time>
      </trkpt>
      <trkpt lat="45.53165" lon="3.98657">
        <ele>917.5</ele>
        <time>2014-04-27T09:58:35Z</time>
      </trkpt>
      <trkpt lat="45.53157" lon="3.98669">
        <ele>917</ele>
        <time>2014-04-27T09:58:37Z</time>
      </trkpt>
      <trkpt lat="45.53148" lon="3.98681">
        <ele>916.5</ele>
        <time>2014-04-27T09:58:38Z</time>
      </trkpt>
      <trkpt lat="45.53137" lon="3.98693">
        <ele>916</ele>
        <time>2014-04-27T09:58:41Z</time>
      </trkpt>
      <trkpt lat="45.53125" lon="3.98709">
        <ele>915.5</ele>
        <time>2014-04-27T09:58:43Z</time>
      </trkpt>
      <trkpt lat="45.53115" lon="3.98726">
        <ele>914.5</ele>
        <time>2014-04-27T09:58:44Z</time>
      </trkpt>
      <trkpt lat="45.53107" lon="3.98743">
        <ele>912.8</ele>
        <time>2014-04-27T09:58:48Z</time>
      </trkpt>
      <trkpt lat="45.53102" lon="3.98755">
        <ele>911.1</ele>
        <time>2014-04-27T09:58:53Z</time>
      </trkpt>
      <trkpt lat="45.53097" lon="3.9877">
        <ele>909.6</ele>
        <time>2014-04-27T09:58:58Z</time>
      </trkpt>
      <trkpt lat="45.53088" lon="3.98781">
        <ele>910</ele>
        <time>2014-04-27T09:59:04Z</time>
      </trkpt>
      <trkpt lat="45.53077" lon="3.98794">
        <ele>910.4</ele>
        <time>2014-04-27T09:59:09Z</time>
      </trkpt>
      <trkpt lat="45.53063" lon="3.98804">
        <ele>910</ele>
        <time>2014-04-27T09:59:15Z</time>
      </trkpt>
      <trkpt lat="45.53049" lon="3.98807">
        <ele>909.5</ele>
        <time>2014-04-27T09:59:22Z</time>
      </trkpt>
      <trkpt lat="45.53035" lon="3.9881">
        <ele>911.5</ele>
        <time>2014-04-27T09:59:31Z</time>
      </trkpt>
      <trkpt lat="45.53032" lon="3.98824">
        <ele>920.8</ele>
        <time>2014-04-27T09:59:44Z</time>
      </trkpt>
      <trkpt lat="45.53022" lon="3.98842">
        <ele>924.5</ele>
        <time>2014-04-27T09:59:56Z</time>
      </trkpt>
      <trkpt lat="45.53017" lon="3.98857">
        <ele>925</ele>
        <time>2014-04-27T10:00:01Z</time>
      </trkpt>
      <trkpt lat="45.53007" lon="3.98873">
        <ele>925.2</ele>
        <time>2014-04-27T10:00:06Z</time>
      </trkpt>
      <trkpt lat="45.53" lon="3.9889">
        <ele>923.8</ele>
        <time>2014-04-27T10:00:09Z</time>
      </trkpt>
      <trkpt lat="45.52996" lon="3.98906">
        <ele>922</ele>
        <time>2014-04-27T10:00:12Z</time>
      </trkpt>
      <trkpt lat="45.52992" lon="3.98922">
        <ele>921</ele>
        <time>2014-04-27T10:00:13Z</time>
      </trkpt>
      <trkpt lat="45.52988" lon="3.98936">
        <ele>920</ele>
        <time>2014-04-27T10:00:16Z</time>
      </trkpt>
      <trkpt lat="45.52985" lon="3.98953">
        <ele>918</ele>
        <time>2014-04-27T10:00:18Z</time>
      </trkpt>
      <trkpt lat="45.52983" lon="3.98969">
        <ele>915</ele>
        <time>2014-04-27T10:00:23Z</time>
      </trkpt>
      <trkpt lat="45.5299" lon="3.98981">
        <ele>913.1</ele>
        <time>2014-04-27T10:00:29Z</time>
      </trkpt>
      <trkpt lat="45.53003" lon="3.98993">
        <ele>911.8</ele>
        <time>2014-04-27T10:00:33Z</time>
      </trkpt>
      <trkpt lat="45.53011" lon="3.99009">
        <ele>911</ele>
        <time>2014-04-27T10:00:34Z</time>
      </trkpt>
      <trkpt lat="45.53015" lon="3.99027">
        <ele>909.5</ele>
        <time>2014-04-27T10:00:38Z</time>
      </trkpt>
      <trkpt lat="45.53019" lon="3.9905">
        <ele>908.5</ele>
        <time>2014-04-27T10:00:39Z</time>
      </trkpt>
      <trkpt lat="45.53023" lon="3.99075">
        <ele>908</ele>
        <time>2014-04-27T10:00:42Z</time>
      </trkpt>
      <trkpt lat="45.53029" lon="3.991">
        <ele>907</ele>
        <time>2014-04-27T10:00:44Z</time>
      </trkpt>
      <trkpt lat="45.53035" lon="3.9912">
        <ele>904</ele>
        <time>2014-04-27T10:00:45Z</time>
      </trkpt>
      <trkpt lat="45.53043" lon="3.99139">
        <ele>903</ele>
        <time>2014-04-27T10:00:48Z</time>
      </trkpt>
      <trkpt lat="45.53053" lon="3.99155">
        <ele>901.5</ele>
        <time>2014-04-27T10:00:50Z</time>
      </trkpt>
      <trkpt lat="45.53063" lon="3.9917">
        <ele>900</ele>
        <time>2014-04-27T10:00:51Z</time>
      </trkpt>
      <trkpt lat="45.53068" lon="3.99189">
        <ele>898.5</ele>
        <time>2014-04-27T10:00:53Z</time>
      </trkpt>
      <trkpt lat="45.53069" lon="3.99207">
        <ele>895.5</ele>
        <time>2014-04-27T10:00:56Z</time>
      </trkpt>
      <trkpt lat="45.5306" lon="3.99224">
        <ele>893.8</ele>
        <time>2014-04-27T10:00:58Z</time>
      </trkpt>
      <trkpt lat="45.53048" lon="3.99239">
        <ele>893</ele>
        <time>2014-04-27T10:01:02Z</time>
      </trkpt>
      <trkpt lat="45.53037" lon="3.99248">
        <ele>892.7</ele>
        <time>2014-04-27T10:01:04Z</time>
      </trkpt>
      <trkpt lat="45.53027" lon="3.99262">
        <ele>891</ele>
        <time>2014-04-27T10:01:09Z</time>
      </trkpt>
      <trkpt lat="45.53021" lon="3.99274">
        <ele>888.3</ele>
        <time>2014-04-27T10:01:12Z</time>
      </trkpt>
      <trkpt lat="45.53016" lon="3.9929">
        <ele>886.3</ele>
        <time>2014-04-27T10:01:15Z</time>
      </trkpt>
      <trkpt lat="45.53009" lon="3.99307">
        <ele>882.5</ele>
        <time>2014-04-27T10:01:18Z</time>
      </trkpt>
      <trkpt lat="45.53002" lon="3.99324">
        <ele>880.8</ele>
        <time>2014-04-27T10:01:21Z</time>
      </trkpt>
      <trkpt lat="45.52996" lon="3.99341">
        <ele>878.8</ele>
        <time>2014-04-27T10:01:24Z</time>
      </trkpt>
      <trkpt lat="45.52988" lon="3.99356">
        <ele>877.5</ele>
        <time>2014-04-27T10:01:28Z</time>
      </trkpt>
      <trkpt lat="45.52978" lon="3.99368">
        <ele>876.8</ele>
        <time>2014-04-27T10:01:32Z</time>
      </trkpt>
      <trkpt lat="45.52967" lon="3.9938">
        <ele>875.8</ele>
        <time>2014-04-27T10:01:37Z</time>
      </trkpt>
      <trkpt lat="45.52957" lon="3.99393">
        <ele>875</ele>
        <time>2014-04-27T10:01:42Z</time>
      </trkpt>
      <trkpt lat="45.52949" lon="3.99405">
        <ele>875.1</ele>
        <time>2014-04-27T10:01:47Z</time>
      </trkpt>
      <trkpt lat="45.52941" lon="3.99418">
        <ele>876.5</ele>
        <time>2014-04-27T10:01:53Z</time>
      </trkpt>
      <trkpt lat="45.52933" lon="3.9943">
        <ele>877.5</ele>
        <time>2014-04-27T10:02:01Z</time>
      </trkpt>
      <trkpt lat="45.52925" lon="3.99444">
        <ele>877.7</ele>
        <time>2014-04-27T10:02:09Z</time>
      </trkpt>
      <trkpt lat="45.52916" lon="3.99457">
        <ele>877.7</ele>
        <time>2014-04-27T10:02:16Z</time>
      </trkpt>
      <trkpt lat="45.52909" lon="3.9947">
        <ele>877.9</ele>
        <time>2014-04-27T10:02:24Z</time>
      </trkpt>
      <trkpt lat="45.52906" lon="3.99484">
        <ele>878.5</ele>
        <time>2014-04-27T10:02:32Z</time>
      </trkpt>
      <trkpt lat="45.52899" lon="3.99498">
        <ele>878.4</ele>
        <time>2014-04-27T10:02:39Z</time>
      </trkpt>
      <trkpt lat="45.52894" lon="3.99512">
        <ele>878.9</ele>
        <time>2014-04-27T10:02:47Z</time>
      </trkpt>
      <trkpt lat="45.52888" lon="3.99527">
        <ele>879.3</ele>
        <time>2014-04-27T10:02:54Z</time>
      </trkpt>
      <trkpt lat="45.52879" lon="3.99541">
        <ele>879</ele>
        <time>2014-04-27T10:03:01Z</time>
      </trkpt>
      <trkpt lat="45.5287" lon="3.99554">
        <ele>878.5</ele>
        <time>2014-04-27T10:03:07Z</time>
      </trkpt>
      <trkpt lat="45.52861" lon="3.99567">
        <ele>879.4</ele>
        <time>2014-04-27T10:03:13Z</time>
      </trkpt>
      <trkpt lat="45.52854" lon="3.99581">
        <ele>881.3</ele>
        <time>2014-04-27T10:03:20Z</time>
      </trkpt>
      <trkpt lat="45.52849" lon="3.99596">
        <ele>881.5</ele>
        <time>2014-04-27T10:03:27Z</time>
      </trkpt>
      <trkpt lat="45.52842" lon="3.99609">
        <ele>881.7</ele>
        <time>2014-04-27T10:03:33Z</time>
      </trkpt>
      <trkpt lat="45.52833" lon="3.99622">
        <ele>882.6</ele>
        <time>2014-04-27T10:03:38Z</time>
      </trkpt>
      <trkpt lat="45.52825" lon="3.99634">
        <ele>883.3</ele>
        <time>2014-04-27T10:03:43Z</time>
      </trkpt>
      <trkpt lat="45.52818" lon="3.99649">
        <ele>884</ele>
        <time>2014-04-27T10:03:48Z</time>
      </trkpt>
      <trkpt lat="45.52812" lon="3.99663">
        <ele>884.9</ele>
        <time>2014-04-27T10:03:54Z</time>
      </trkpt>
      <trkpt lat="45.52806" lon="3.99678">
        <ele>885.5</ele>
        <time>2014-04-27T10:04:02Z</time>
      </trkpt>
      <trkpt lat="45.52803" lon="3.99693">
        <ele>886.7</ele>
        <time>2014-04-27T10:04:08Z</time>
      </trkpt>
      <trkpt lat="45.52804" lon="3.99711">
        <ele>887.3</ele>
        <time>2014-04-27T10:04:14Z</time>
      </trkpt>
      <trkpt lat="45.52805" lon="3.99727">
        <ele>888.3</ele>
        <time>2014-04-27T10:04:19Z</time>
      </trkpt>
      <trkpt lat="45.52803" lon="3.99743">
        <ele>888.5</ele>
        <time>2014-04-27T10:04:24Z</time>
      </trkpt>
      <trkpt lat="45.52802" lon="3.99759">
        <ele>889.1</ele>
        <time>2014-04-27T10:04:28Z</time>
      </trkpt>
      <trkpt lat="45.52802" lon="3.99775">
        <ele>889</ele>
        <time>2014-04-27T10:04:33Z</time>
      </trkpt>
      <trkpt lat="45.52801" lon="3.99789">
        <ele>889.1</ele>
        <time>2014-04-27T10:04:38Z</time>
      </trkpt>
      <trkpt lat="45.52795" lon="3.99804">
        <ele>889</ele>
        <time>2014-04-27T10:04:43Z</time>
      </trkpt>
      <trkpt lat="45.52782" lon="3.99815">
        <ele>888.9</ele>
        <time>2014-04-27T10:04:48Z</time>
      </trkpt>
      <trkpt lat="45.5277" lon="3.99824">
        <ele>889.1</ele>
        <time>2014-04-27T10:04:55Z</time>
      </trkpt>
      <trkpt lat="45.52759" lon="3.99834">
        <ele>888.7</ele>
        <time>2014-04-27T10:05:01Z</time>
      </trkpt>
      <trkpt lat="45.52748" lon="3.99843">
        <ele>888.8</ele>
        <time>2014-04-27T10:05:08Z</time>
      </trkpt>
      <trkpt lat="45.52734" lon="3.99853">
        <ele>889.4</ele>
        <time>2014-04-27T10:05:16Z</time>
      </trkpt>
      <trkpt lat="45.52722" lon="3.99861">
        <ele>890.7</ele>
        <time>2014-04-27T10:05:23Z</time>
      </trkpt>
      <trkpt lat="45.52707" lon="3.99867">
        <ele>891.3</ele>
        <time>2014-04-27T10:05:30Z</time>
      </trkpt>
      <trkpt lat="45.52693" lon="3.99873">
        <ele>891.5</ele>
        <time>2014-04-27T10:05:37Z</time>
      </trkpt>
      <trkpt lat="45.52679" lon="3.99879">
        <ele>892</ele>
        <time>2014-04-27T10:05:44Z</time>
      </trkpt>
      <trkpt lat="45.5267" lon="3.99889">
        <ele>893</ele>
        <time>2014-04-27T10:05:50Z</time>
      </trkpt>
      <trkpt lat="45.52667" lon="3.99906">
        <ele>894.9</ele>
        <time>2014-04-27T10:05:56Z</time>
      </trkpt>
      <trkpt lat="45.52666" lon="3.99921">
        <ele>896.7</ele>
        <time>2014-04-27T10:06:03Z</time>
      </trkpt>
      <trkpt lat="45.52667" lon="3.99937">
        <ele>898.1</ele>
        <time>2014-04-27T10:06:09Z</time>
      </trkpt>
      <trkpt lat="45.52671" lon="3.99953">
        <ele>898.9</ele>
        <time>2014-04-27T10:06:16Z</time>
      </trkpt>
      <trkpt lat="45.52676" lon="3.99969">
        <ele>900.5</ele>
        <time>2014-04-27T10:06:22Z</time>
      </trkpt>
      <trkpt lat="45.52679" lon="3.99984">
        <ele>899.9</ele>
        <time>2014-04-27T10:06:27Z</time>
      </trkpt>
      <trkpt lat="45.52682" lon="4.00001">
        <ele>899.8</ele>
        <time>2014-04-27T10:06:32Z</time>
      </trkpt>
      <trkpt lat="45.52669" lon="4.00015">
        <ele>899.5</ele>
        <time>2014-04-27T10:06:35Z</time>
      </trkpt>
      <trkpt lat="45.52667" lon="4.0002">
        <ele>900.5</ele>
        <time>2014-04-27T10:07:47Z</time>
      </trkpt>
      <trkpt lat="45.52638" lon="4.00026">
        <ele>901</ele>
        <time>2014-04-27T10:07:51Z</time>
      </trkpt>
      <trkpt lat="45.52621" lon="4.00024">
        <ele>901</ele>
        <time>2014-04-27T10:07:56Z</time>
      </trkpt>
      <trkpt lat="45.52606" lon="4.00022">
        <ele>900.5</ele>
        <time>2014-04-27T10:07:59Z</time>
      </trkpt>
      <trkpt lat="45.52591" lon="4.00026">
        <ele>899.5</ele>
        <time>2014-04-27T10:08:02Z</time>
      </trkpt>
      <trkpt lat="45.52576" lon="4.00035">
        <ele>899.5</ele>
        <time>2014-04-27T10:08:05Z</time>
      </trkpt>
      <trkpt lat="45.5256" lon="4.0004">
        <ele>898.3</ele>
        <time>2014-04-27T10:08:08Z</time>
      </trkpt>
      <trkpt lat="45.52542" lon="4.00036">
        <ele>897.3</ele>
        <time>2014-04-27T10:08:11Z</time>
      </trkpt>
      <trkpt lat="45.52523" lon="4.00029">
        <ele>896.8</ele>
        <time>2014-04-27T10:08:14Z</time>
      </trkpt>
      <trkpt lat="45.52506" lon="4.00026">
        <ele>896.8</ele>
        <time>2014-04-27T10:08:17Z</time>
      </trkpt>
      <trkpt lat="45.52488" lon="4.0003">
        <ele>896.5</ele>
        <time>2014-04-27T10:08:20Z</time>
      </trkpt>
      <trkpt lat="45.52472" lon="4.00033">
        <ele>896.3</ele>
        <time>2014-04-27T10:08:23Z</time>
      </trkpt>
      <trkpt lat="45.52458" lon="4.00041">
        <ele>895.5</ele>
        <time>2014-04-27T10:08:26Z</time>
      </trkpt>
      <trkpt lat="45.52448" lon="4.00056">
        <ele>895.3</ele>
        <time>2014-04-27T10:08:29Z</time>
      </trkpt>
      <trkpt lat="45.5244" lon="4.00073">
        <ele>894.5</ele>
        <time>2014-04-27T10:08:32Z</time>
      </trkpt>
      <trkpt lat="45.52433" lon="4.0009">
        <ele>893.5</ele>
        <time>2014-04-27T10:08:35Z</time>
      </trkpt>
      <trkpt lat="45.52427" lon="4.00108">
        <ele>892</ele>
        <time>2014-04-27T10:08:37Z</time>
      </trkpt>
      <trkpt lat="45.52425" lon="4.00125">
        <ele>891</ele>
        <time>2014-04-27T10:08:40Z</time>
      </trkpt>
      <trkpt lat="45.52422" lon="4.00141">
        <ele>889</ele>
        <time>2014-04-27T10:08:42Z</time>
      </trkpt>
      <trkpt lat="45.52415" lon="4.00158">
        <ele>888</ele>
        <time>2014-04-27T10:08:43Z</time>
      </trkpt>
      <trkpt lat="45.52405" lon="4.00184">
        <ele>887.5</ele>
        <time>2014-04-27T10:08:47Z</time>
      </trkpt>
      <trkpt lat="45.524" lon="4.002">
        <ele>887.5</ele>
        <time>2014-04-27T10:08:48Z</time>
      </trkpt>
      <trkpt lat="45.52394" lon="4.00215">
        <ele>887.5</ele>
        <time>2014-04-27T10:08:50Z</time>
      </trkpt>
      <trkpt lat="45.5239" lon="4.00232">
        <ele>887.5</ele>
        <time>2014-04-27T10:08:53Z</time>
      </trkpt>
      <trkpt lat="45.52385" lon="4.00248">
        <ele>887</ele>
        <time>2014-04-27T10:08:55Z</time>
      </trkpt>
      <trkpt lat="45.52378" lon="4.00263">
        <ele>886.9</ele>
        <time>2014-04-27T10:08:58Z</time>
      </trkpt>
      <trkpt lat="45.52373" lon="4.00269">
        <ele>879.9</ele>
        <time>2014-04-27T10:09:01Z</time>
      </trkpt>
      <trkpt lat="45.52359" lon="4.00288">
        <ele>873.7</ele>
        <time>2014-04-27T10:09:52Z</time>
      </trkpt>
      <trkpt lat="45.52353" lon="4.00305">
        <ele>873</ele>
        <time>2014-04-27T10:09:55Z</time>
      </trkpt>
      <trkpt lat="45.52348" lon="4.00319">
        <ele>872.5</ele>
        <time>2014-04-27T10:09:58Z</time>
      </trkpt>
      <trkpt lat="45.52342" lon="4.00333">
        <ele>871.8</ele>
        <time>2014-04-27T10:10:01Z</time>
      </trkpt>
      <trkpt lat="45.52335" lon="4.00348">
        <ele>870.5</ele>
        <time>2014-04-27T10:10:04Z</time>
      </trkpt>
      <trkpt lat="45.52328" lon="4.00363">
        <ele>870</ele>
        <time>2014-04-27T10:10:06Z</time>
      </trkpt>
      <trkpt lat="45.52322" lon="4.00377">
        <ele>869</ele>
        <time>2014-04-27T10:10:09Z</time>
      </trkpt>
      <trkpt lat="45.52313" lon="4.0039">
        <ele>868.5</ele>
        <time>2014-04-27T10:10:11Z</time>
      </trkpt>
      <trkpt lat="45.52301" lon="4.00401">
        <ele>868.3</ele>
        <time>2014-04-27T10:10:13Z</time>
      </trkpt>
      <trkpt lat="45.52288" lon="4.00412">
        <ele>866.8</ele>
        <time>2014-04-27T10:10:16Z</time>
      </trkpt>
      <trkpt lat="45.52271" lon="4.00422">
        <ele>865.3</ele>
        <time>2014-04-27T10:10:19Z</time>
      </trkpt>
      <trkpt lat="45.52253" lon="4.00432">
        <ele>864.5</ele>
        <time>2014-04-27T10:10:22Z</time>
      </trkpt>
      <trkpt lat="45.52237" lon="4.00443">
        <ele>864</ele>
        <time>2014-04-27T10:10:25Z</time>
      </trkpt>
      <trkpt lat="45.52222" lon="4.00454">
        <ele>863.5</ele>
        <time>2014-04-27T10:10:28Z</time>
      </trkpt>
      <trkpt lat="45.52209" lon="4.00464">
        <ele>862</ele>
        <time>2014-04-27T10:10:31Z</time>
      </trkpt>
      <trkpt lat="45.52196" lon="4.00474">
        <ele>860.8</ele>
        <time>2014-04-27T10:10:36Z</time>
      </trkpt>
      <trkpt lat="45.52183" lon="4.00482">
        <ele>859.8</ele>
        <time>2014-04-27T10:10:40Z</time>
      </trkpt>
      <trkpt lat="45.52165" lon="4.00487">
        <ele>858.8</ele>
        <time>2014-04-27T10:10:43Z</time>
      </trkpt>
      <trkpt lat="45.52148" lon="4.00493">
        <ele>858.5</ele>
        <time>2014-04-27T10:10:46Z</time>
      </trkpt>
      <trkpt lat="45.52133" lon="4.00504">
        <ele>857.5</ele>
        <time>2014-04-27T10:10:49Z</time>
      </trkpt>
      <trkpt lat="45.52122" lon="4.0052">
        <ele>857.5</ele>
        <time>2014-04-27T10:10:52Z</time>
      </trkpt>
      <trkpt lat="45.52111" lon="4.00532">
        <ele>856.9</ele>
        <time>2014-04-27T10:10:56Z</time>
      </trkpt>
      <trkpt lat="45.52101" lon="4.00547">
        <ele>856</ele>
        <time>2014-04-27T10:11:01Z</time>
      </trkpt>
      <trkpt lat="45.52098" lon="4.00563">
        <ele>856.6</ele>
        <time>2014-04-27T10:11:06Z</time>
      </trkpt>
      <trkpt lat="45.52098" lon="4.00579">
        <ele>857.2</ele>
        <time>2014-04-27T10:11:12Z</time>
      </trkpt>
      <trkpt lat="45.521" lon="4.00594">
        <ele>858.2</ele>
        <time>2014-04-27T10:11:18Z</time>
      </trkpt>
      <trkpt lat="45.52102" lon="4.00609">
        <ele>858.7</ele>
        <time>2014-04-27T10:11:24Z</time>
      </trkpt>
      <trkpt lat="45.52106" lon="4.00623">
        <ele>859</ele>
        <time>2014-04-27T10:11:32Z</time>
      </trkpt>
      <trkpt lat="45.52112" lon="4.00637">
        <ele>860.9</ele>
        <time>2014-04-27T10:11:40Z</time>
      </trkpt>
      <trkpt lat="45.52123" lon="4.00645">
        <ele>862.1</ele>
        <time>2014-04-27T10:11:53Z</time>
      </trkpt>
      <trkpt lat="45.52137" lon="4.00639">
        <ele>861.1</ele>
        <time>2014-04-27T10:12:06Z</time>
      </trkpt>
      <trkpt lat="45.52152" lon="4.00635">
        <ele>860</ele>
        <time>2014-04-27T10:12:17Z</time>
      </trkpt>
      <trkpt lat="45.52165" lon="4.00631">
        <ele>859.7</ele>
        <time>2014-04-27T10:12:28Z</time>
      </trkpt>
      <trkpt lat="45.5218" lon="4.00628">
        <ele>859.6</ele>
        <time>2014-04-27T10:12:36Z</time>
      </trkpt>
      <trkpt lat="45.52194" lon="4.00636">
        <ele>860.6</ele>
        <time>2014-04-27T10:12:42Z</time>
      </trkpt>
      <trkpt lat="45.52209" lon="4.00648">
        <ele>861</ele>
        <time>2014-04-27T10:12:47Z</time>
      </trkpt>
      <trkpt lat="45.52219" lon="4.00657">
        <ele>861</ele>
        <time>2014-04-27T10:12:50Z</time>
      </trkpt>
      <trkpt lat="45.52236" lon="4.00661">
        <ele>860.8</ele>
        <time>2014-04-27T10:12:55Z</time>
      </trkpt>
      <trkpt lat="45.52252" lon="4.00668">
        <ele>860</ele>
        <time>2014-04-27T10:12:58Z</time>
      </trkpt>
      <trkpt lat="45.52268" lon="4.00672">
        <ele>860</ele>
        <time>2014-04-27T10:13:03Z</time>
      </trkpt>
      <trkpt lat="45.52281" lon="4.00679">
        <ele>860</ele>
        <time>2014-04-27T10:13:05Z</time>
      </trkpt>
      <trkpt lat="45.52298" lon="4.00685">
        <ele>860.3</ele>
        <time>2014-04-27T10:13:09Z</time>
      </trkpt>
      <trkpt lat="45.52312" lon="4.00695">
        <ele>860.4</ele>
        <time>2014-04-27T10:13:13Z</time>
      </trkpt>
      <trkpt lat="45.5233" lon="4.00695">
        <ele>856.8</ele>
        <time>2014-04-27T10:13:17Z</time>
      </trkpt>
      <trkpt lat="45.52348" lon="4.00685">
        <ele>854.2</ele>
        <time>2014-04-27T10:13:21Z</time>
      </trkpt>
      <trkpt lat="45.52365" lon="4.00684">
        <ele>855.5</ele>
        <time>2014-04-27T10:13:23Z</time>
      </trkpt>
      <trkpt lat="45.52374" lon="4.00693">
        <ele>855</ele>
        <time>2014-04-27T10:13:27Z</time>
      </trkpt>
      <trkpt lat="45.52383" lon="4.00704">
        <ele>855.3</ele>
        <time>2014-04-27T10:13:32Z</time>
      </trkpt>
      <trkpt lat="45.5239" lon="4.00718">
        <ele>856.7</ele>
        <time>2014-04-27T10:13:35Z</time>
      </trkpt>
      <trkpt lat="45.524" lon="4.00736">
        <ele>856.5</ele>
        <time>2014-04-27T10:13:39Z</time>
      </trkpt>
      <trkpt lat="45.52412" lon="4.00748">
        <ele>856.8</ele>
        <time>2014-04-27T10:13:42Z</time>
      </trkpt>
      <trkpt lat="45.52427" lon="4.00755">
        <ele>857</ele>
        <time>2014-04-27T10:13:46Z</time>
      </trkpt>
      <trkpt lat="45.52441" lon="4.00766">
        <ele>859.8</ele>
        <time>2014-04-27T10:13:49Z</time>
      </trkpt>
      <trkpt lat="45.52444" lon="4.00781">
        <ele>861</ele>
        <time>2014-04-27T10:13:52Z</time>
      </trkpt>
      <trkpt lat="45.52446" lon="4.00795">
        <ele>862.3</ele>
        <time>2014-04-27T10:13:55Z</time>
      </trkpt>
      <trkpt lat="45.52451" lon="4.0081">
        <ele>860.9</ele>
        <time>2014-04-27T10:14:00Z</time>
      </trkpt>
      <trkpt lat="45.52458" lon="4.00824">
        <ele>858.8</ele>
        <time>2014-04-27T10:14:05Z</time>
      </trkpt>
      <trkpt lat="45.52464" lon="4.00837">
        <ele>858.7</ele>
        <time>2014-04-27T10:14:08Z</time>
      </trkpt>
      <trkpt lat="45.52469" lon="4.00852">
        <ele>853.5</ele>
        <time>2014-04-27T10:14:12Z</time>
      </trkpt>
      <trkpt lat="45.52473" lon="4.00869">
        <ele>847.5</ele>
        <time>2014-04-27T10:14:15Z</time>
      </trkpt>
      <trkpt lat="45.52476" lon="4.00888">
        <ele>842.8</ele>
        <time>2014-04-27T10:14:18Z</time>
      </trkpt>
      <trkpt lat="45.52478" lon="4.00908">
        <ele>843</ele>
        <time>2014-04-27T10:14:21Z</time>
      </trkpt>
      <trkpt lat="45.5248" lon="4.00927">
        <ele>843</ele>
        <time>2014-04-27T10:14:24Z</time>
      </trkpt>
      <trkpt lat="45.52481" lon="4.00945">
        <ele>843.3</ele>
        <time>2014-04-27T10:14:27Z</time>
      </trkpt>
      <trkpt lat="45.52482" lon="4.00963">
        <ele>843.3</ele>
        <time>2014-04-27T10:14:30Z</time>
      </trkpt>
      <trkpt lat="45.52484" lon="4.00983">
        <ele>842.8</ele>
        <time>2014-04-27T10:14:33Z</time>
      </trkpt>
      <trkpt lat="45.52487" lon="4.00999">
        <ele>842.8</ele>
        <time>2014-04-27T10:14:36Z</time>
      </trkpt>
      <trkpt lat="45.52491" lon="4.01013">
        <ele>843</ele>
        <time>2014-04-27T10:14:39Z</time>
      </trkpt>
      <trkpt lat="45.52491" lon="4.01029">
        <ele>842.3</ele>
        <time>2014-04-27T10:14:42Z</time>
      </trkpt>
      <trkpt lat="45.52482" lon="4.01044">
        <ele>840.5</ele>
        <time>2014-04-27T10:14:45Z</time>
      </trkpt>
      <trkpt lat="45.52468" lon="4.01047">
        <ele>839.1</ele>
        <time>2014-04-27T10:14:49Z</time>
      </trkpt>
      <trkpt lat="45.52458" lon="4.01036">
        <ele>837</ele>
        <time>2014-04-27T10:14:55Z</time>
      </trkpt>
      <trkpt lat="45.52455" lon="4.01018">
        <ele>837.3</ele>
        <time>2014-04-27T10:14:58Z</time>
      </trkpt>
      <trkpt lat="45.52451" lon="4.01002">
        <ele>837</ele>
        <time>2014-04-27T10:15:02Z</time>
      </trkpt>
      <trkpt lat="45.52448" lon="4.00987">
        <ele>837.3</ele>
        <time>2014-04-27T10:15:05Z</time>
      </trkpt>
      <trkpt lat="45.5244" lon="4.00977">
        <ele>837.3</ele>
        <time>2014-04-27T10:15:09Z</time>
      </trkpt>
      <trkpt lat="45.52427" lon="4.00969">
        <ele>836</ele>
        <time>2014-04-27T10:15:12Z</time>
      </trkpt>
      <trkpt lat="45.52414" lon="4.0096">
        <ele>835</ele>
        <time>2014-04-27T10:15:16Z</time>
      </trkpt>
      <trkpt lat="45.52399" lon="4.00959">
        <ele>833.1</ele>
        <time>2014-04-27T10:15:21Z</time>
      </trkpt>
      <trkpt lat="45.52384" lon="4.0096">
        <ele>830.4</ele>
        <time>2014-04-27T10:15:27Z</time>
      </trkpt>
      <trkpt lat="45.52368" lon="4.0096">
        <ele>828.7</ele>
        <time>2014-04-27T10:15:33Z</time>
      </trkpt>
      <trkpt lat="45.52353" lon="4.00961">
        <ele>828.9</ele>
        <time>2014-04-27T10:15:40Z</time>
      </trkpt>
      <trkpt lat="45.52338" lon="4.00964">
        <ele>828.7</ele>
        <time>2014-04-27T10:15:46Z</time>
      </trkpt>
      <trkpt lat="45.52325" lon="4.00968">
        <ele>828.9</ele>
        <time>2014-04-27T10:15:52Z</time>
      </trkpt>
      <trkpt lat="45.52308" lon="4.00973">
        <ele>826.6</ele>
        <time>2014-04-27T10:15:58Z</time>
      </trkpt>
      <trkpt lat="45.52294" lon="4.00974">
        <ele>825.4</ele>
        <time>2014-04-27T10:16:03Z</time>
      </trkpt>
      <trkpt lat="45.52276" lon="4.00972">
        <ele>822.5</ele>
        <time>2014-04-27T10:16:08Z</time>
      </trkpt>
      <trkpt lat="45.52258" lon="4.00971">
        <ele>821.4</ele>
        <time>2014-04-27T10:16:12Z</time>
      </trkpt>
      <trkpt lat="45.52244" lon="4.00976">
        <ele>822</ele>
        <time>2014-04-27T10:16:17Z</time>
      </trkpt>
      <trkpt lat="45.52229" lon="4.00983">
        <ele>822.2</ele>
        <time>2014-04-27T10:16:20Z</time>
      </trkpt>
      <trkpt lat="45.52213" lon="4.00986">
        <ele>822.3</ele>
        <time>2014-04-27T10:16:25Z</time>
      </trkpt>
      <trkpt lat="45.52198" lon="4.00988">
        <ele>822.8</ele>
        <time>2014-04-27T10:16:30Z</time>
      </trkpt>
      <trkpt lat="45.52185" lon="4.00995">
        <ele>821.3</ele>
        <time>2014-04-27T10:16:33Z</time>
      </trkpt>
      <trkpt lat="45.52174" lon="4.01003">
        <ele>820.5</ele>
        <time>2014-04-27T10:16:35Z</time>
      </trkpt>
      <trkpt lat="45.52157" lon="4.01015">
        <ele>818.5</ele>
        <time>2014-04-27T10:16:39Z</time>
      </trkpt>
      <trkpt lat="45.52143" lon="4.01023">
        <ele>816.5</ele>
        <time>2014-04-27T10:16:41Z</time>
      </trkpt>
      <trkpt lat="45.52129" lon="4.01031">
        <ele>815</ele>
        <time>2014-04-27T10:16:44Z</time>
      </trkpt>
      <trkpt lat="45.52115" lon="4.01039">
        <ele>813</ele>
        <time>2014-04-27T10:16:46Z</time>
      </trkpt>
      <trkpt lat="45.52102" lon="4.01048">
        <ele>812</ele>
        <time>2014-04-27T10:16:47Z</time>
      </trkpt>
      <trkpt lat="45.52088" lon="4.01058">
        <ele>810.8</ele>
        <time>2014-04-27T10:16:50Z</time>
      </trkpt>
      <trkpt lat="45.52071" lon="4.01068">
        <ele>809</ele>
        <time>2014-04-27T10:16:53Z</time>
      </trkpt>
      <trkpt lat="45.52057" lon="4.01078">
        <ele>806.8</ele>
        <time>2014-04-27T10:16:56Z</time>
      </trkpt>
      <trkpt lat="45.52043" lon="4.01088">
        <ele>804.3</ele>
        <time>2014-04-27T10:16:59Z</time>
      </trkpt>
      <trkpt lat="45.52032" lon="4.01098">
        <ele>802</ele>
        <time>2014-04-27T10:17:03Z</time>
      </trkpt>
      <trkpt lat="45.52024" lon="4.01112">
        <ele>799.8</ele>
        <time>2014-04-27T10:17:06Z</time>
      </trkpt>
      <trkpt lat="45.52016" lon="4.01124">
        <ele>796.5</ele>
        <time>2014-04-27T10:17:10Z</time>
      </trkpt>
      <trkpt lat="45.52001" lon="4.0113">
        <ele>794.5</ele>
        <time>2014-04-27T10:17:13Z</time>
      </trkpt>
      <trkpt lat="45.51987" lon="4.01138">
        <ele>793.5</ele>
        <time>2014-04-27T10:17:16Z</time>
      </trkpt>
      <trkpt lat="45.51974" lon="4.01145">
        <ele>793.5</ele>
        <time>2014-04-27T10:17:19Z</time>
      </trkpt>
      <trkpt lat="45.51959" lon="4.0115">
        <ele>792.8</ele>
        <time>2014-04-27T10:17:22Z</time>
      </trkpt>
      <trkpt lat="45.51944" lon="4.01154">
        <ele>792.5</ele>
        <time>2014-04-27T10:17:25Z</time>
      </trkpt>
      <trkpt lat="45.51927" lon="4.01158">
        <ele>791.7</ele>
        <time>2014-04-27T10:17:29Z</time>
      </trkpt>
      <trkpt lat="45.51913" lon="4.01173">
        <ele>789.5</ele>
        <time>2014-04-27T10:17:32Z</time>
      </trkpt>
      <trkpt lat="45.51903" lon="4.0119">
        <ele>787.5</ele>
        <time>2014-04-27T10:17:35Z</time>
      </trkpt>
      <trkpt lat="45.51895" lon="4.01203">
        <ele>787</ele>
        <time>2014-04-27T10:17:37Z</time>
      </trkpt>
      <trkpt lat="45.51886" lon="4.01217">
        <ele>786.3</ele>
        <time>2014-04-27T10:17:39Z</time>
      </trkpt>
      <trkpt lat="45.51874" lon="4.01222">
        <ele>784.1</ele>
        <time>2014-04-27T10:17:43Z</time>
      </trkpt>
      <trkpt lat="45.51858" lon="4.01209">
        <ele>780</ele>
        <time>2014-04-27T10:17:47Z</time>
      </trkpt>
      <trkpt lat="45.51842" lon="4.01204">
        <ele>776.8</ele>
        <time>2014-04-27T10:17:50Z</time>
      </trkpt>
      <trkpt lat="45.51823" lon="4.01206">
        <ele>774.7</ele>
        <time>2014-04-27T10:17:55Z</time>
      </trkpt>
      <trkpt lat="45.5181" lon="4.01208">
        <ele>772.3</ele>
        <time>2014-04-27T10:17:59Z</time>
      </trkpt>
      <trkpt lat="45.51806" lon="4.01234">
        <ele>769.3</ele>
        <time>2014-04-27T10:18:03Z</time>
      </trkpt>
      <trkpt lat="45.51808" lon="4.01253">
        <ele>767.8</ele>
        <time>2014-04-27T10:18:06Z</time>
      </trkpt>
      <trkpt lat="45.51811" lon="4.01274">
        <ele>766</ele>
        <time>2014-04-27T10:18:09Z</time>
      </trkpt>
      <trkpt lat="45.51813" lon="4.01293">
        <ele>765.3</ele>
        <time>2014-04-27T10:18:10Z</time>
      </trkpt>
      <trkpt lat="45.51805" lon="4.0131">
        <ele>763.5</ele>
        <time>2014-04-27T10:18:14Z</time>
      </trkpt>
      <trkpt lat="45.51797" lon="4.01325">
        <ele>762</ele>
        <time>2014-04-27T10:18:15Z</time>
      </trkpt>
      <trkpt lat="45.51789" lon="4.01341">
        <ele>762</ele>
        <time>2014-04-27T10:18:18Z</time>
      </trkpt>
      <trkpt lat="45.51789" lon="4.01358">
        <ele>762.5</ele>
        <time>2014-04-27T10:18:21Z</time>
      </trkpt>
      <trkpt lat="45.51795" lon="4.01372">
        <ele>762</ele>
        <time>2014-04-27T10:18:24Z</time>
      </trkpt>
      <trkpt lat="45.518" lon="4.01388">
        <ele>761.3</ele>
        <time>2014-04-27T10:18:27Z</time>
      </trkpt>
      <trkpt lat="45.51806" lon="4.01405">
        <ele>761</ele>
        <time>2014-04-27T10:18:30Z</time>
      </trkpt>
      <trkpt lat="45.51813" lon="4.01419">
        <ele>761.2</ele>
        <time>2014-04-27T10:18:34Z</time>
      </trkpt>
      <trkpt lat="45.51824" lon="4.0143">
        <ele>763</ele>
        <time>2014-04-27T10:18:38Z</time>
      </trkpt>
      <trkpt lat="45.51835" lon="4.01442">
        <ele>763.9</ele>
        <time>2014-04-27T10:18:43Z</time>
      </trkpt>
      <trkpt lat="45.51845" lon="4.01455">
        <ele>764.5</ele>
        <time>2014-04-27T10:18:47Z</time>
      </trkpt>
      <trkpt lat="45.51849" lon="4.0147">
        <ele>764.8</ele>
        <time>2014-04-27T10:18:52Z</time>
      </trkpt>
      <trkpt lat="45.51845" lon="4.01485">
        <ele>762.8</ele>
        <time>2014-04-27T10:18:56Z</time>
      </trkpt>
      <trkpt lat="45.51842" lon="4.01502">
        <ele>760.5</ele>
        <time>2014-04-27T10:19:00Z</time>
      </trkpt>
      <trkpt lat="45.51843" lon="4.01519">
        <ele>759.7</ele>
        <time>2014-04-27T10:19:05Z</time>
      </trkpt>
      <trkpt lat="45.51849" lon="4.01533">
        <ele>760</ele>
        <time>2014-04-27T10:19:08Z</time>
      </trkpt>
      <trkpt lat="45.51859" lon="4.01548">
        <ele>760.5</ele>
        <time>2014-04-27T10:19:12Z</time>
      </trkpt>
      <trkpt lat="45.51868" lon="4.01562">
        <ele>760.5</ele>
        <time>2014-04-27T10:19:16Z</time>
      </trkpt>
      <trkpt lat="45.51878" lon="4.01574">
        <ele>761.5</ele>
        <time>2014-04-27T10:19:19Z</time>
      </trkpt>
      <trkpt lat="45.51886" lon="4.01589">
        <ele>761.7</ele>
        <time>2014-04-27T10:19:24Z</time>
      </trkpt>
      <trkpt lat="45.51893" lon="4.01604">
        <ele>763.3</ele>
        <time>2014-04-27T10:19:28Z</time>
      </trkpt>
      <trkpt lat="45.51899" lon="4.01616">
        <ele>762.3</ele>
        <time>2014-04-27T10:19:31Z</time>
      </trkpt>
      <trkpt lat="45.51903" lon="4.01631">
        <ele>763.3</ele>
        <time>2014-04-27T10:19:36Z</time>
      </trkpt>
      <trkpt lat="45.51907" lon="4.01648">
        <ele>763.2</ele>
        <time>2014-04-27T10:19:39Z</time>
      </trkpt>
      <trkpt lat="45.51911" lon="4.01665">
        <ele>763</ele>
        <time>2014-04-27T10:19:43Z</time>
      </trkpt>
      <trkpt lat="45.51914" lon="4.01681">
        <ele>763</ele>
        <time>2014-04-27T10:19:46Z</time>
      </trkpt>
      <trkpt lat="45.51916" lon="4.01698">
        <ele>762.8</ele>
        <time>2014-04-27T10:19:49Z</time>
      </trkpt>
      <trkpt lat="45.51918" lon="4.01715">
        <ele>762</ele>
        <time>2014-04-27T10:19:52Z</time>
      </trkpt>
      <trkpt lat="45.51918" lon="4.01734">
        <ele>761</ele>
        <time>2014-04-27T10:19:55Z</time>
      </trkpt>
      <trkpt lat="45.51918" lon="4.01751">
        <ele>759.8</ele>
        <time>2014-04-27T10:19:58Z</time>
      </trkpt>
      <trkpt lat="45.51917" lon="4.01769">
        <ele>760.3</ele>
        <time>2014-04-27T10:20:01Z</time>
      </trkpt>
      <trkpt lat="45.51918" lon="4.01785">
        <ele>760.5</ele>
        <time>2014-04-27T10:20:04Z</time>
      </trkpt>
      <trkpt lat="45.51918" lon="4.01801">
        <ele>761</ele>
        <time>2014-04-27T10:20:07Z</time>
      </trkpt>
      <trkpt lat="45.5192" lon="4.01819">
        <ele>760.5</ele>
        <time>2014-04-27T10:20:10Z</time>
      </trkpt>
      <trkpt lat="45.51926" lon="4.01838">
        <ele>760</ele>
        <time>2014-04-27T10:20:11Z</time>
      </trkpt>
      <trkpt lat="45.51934" lon="4.01856">
        <ele>760</ele>
        <time>2014-04-27T10:20:14Z</time>
      </trkpt>
      <trkpt lat="45.5194" lon="4.01874">
        <ele>759.5</ele>
        <time>2014-04-27T10:20:16Z</time>
      </trkpt>
      <trkpt lat="45.51948" lon="4.01892">
        <ele>759</ele>
        <time>2014-04-27T10:20:17Z</time>
      </trkpt>
      <trkpt lat="45.51957" lon="4.01905">
        <ele>759</ele>
        <time>2014-04-27T10:20:20Z</time>
      </trkpt>
      <trkpt lat="45.51971" lon="4.01914">
        <ele>759</ele>
        <time>2014-04-27T10:20:22Z</time>
      </trkpt>
      <trkpt lat="45.51985" lon="4.01921">
        <ele>759.5</ele>
        <time>2014-04-27T10:20:24Z</time>
      </trkpt>
      <trkpt lat="45.51997" lon="4.01934">
        <ele>759.5</ele>
        <time>2014-04-27T10:20:27Z</time>
      </trkpt>
      <trkpt lat="45.52006" lon="4.01953">
        <ele>758.5</ele>
        <time>2014-04-27T10:20:29Z</time>
      </trkpt>
      <trkpt lat="45.52012" lon="4.01974">
        <ele>759.5</ele>
        <time>2014-04-27T10:20:30Z</time>
      </trkpt>
      <trkpt lat="45.52014" lon="4.01996">
        <ele>758.5</ele>
        <time>2014-04-27T10:20:33Z</time>
      </trkpt>
      <trkpt lat="45.52015" lon="4.02017">
        <ele>756.5</ele>
        <time>2014-04-27T10:20:35Z</time>
      </trkpt>
      <trkpt lat="45.52015" lon="4.02038">
        <ele>754.5</ele>
        <time>2014-04-27T10:20:36Z</time>
      </trkpt>
      <trkpt lat="45.52015" lon="4.02062">
        <ele>752</ele>
        <time>2014-04-27T10:20:39Z</time>
      </trkpt>
      <trkpt lat="45.52015" lon="4.02086">
        <ele>748.5</ele>
        <time>2014-04-27T10:20:41Z</time>
      </trkpt>
      <trkpt lat="45.52016" lon="4.02112">
        <ele>747</ele>
        <time>2014-04-27T10:20:42Z</time>
      </trkpt>
      <trkpt lat="45.52016" lon="4.02139">
        <ele>746.5</ele>
        <time>2014-04-27T10:20:45Z</time>
      </trkpt>
      <trkpt lat="45.52016" lon="4.02167">
        <ele>745.5</ele>
        <time>2014-04-27T10:20:47Z</time>
      </trkpt>
      <trkpt lat="45.52016" lon="4.02195">
        <ele>745</ele>
        <time>2014-04-27T10:20:48Z</time>
      </trkpt>
      <trkpt lat="45.52016" lon="4.02222">
        <ele>744.5</ele>
        <time>2014-04-27T10:20:50Z</time>
      </trkpt>
      <trkpt lat="45.52018" lon="4.02249">
        <ele>744.5</ele>
        <time>2014-04-27T10:20:53Z</time>
      </trkpt>
      <trkpt lat="45.52023" lon="4.02274">
        <ele>743</ele>
        <time>2014-04-27T10:20:54Z</time>
      </trkpt>
      <trkpt lat="45.52027" lon="4.023">
        <ele>741.5</ele>
        <time>2014-04-27T10:20:56Z</time>
      </trkpt>
      <trkpt lat="45.52029" lon="4.02315">
        <ele>741</ele>
        <time>2014-04-27T10:20:58Z</time>
      </trkpt>
      <trkpt lat="45.5203" lon="4.0233">
        <ele>740</ele>
        <time>2014-04-27T10:20:59Z</time>
      </trkpt>
      <trkpt lat="45.52031" lon="4.02346">
        <ele>739.5</ele>
        <time>2014-04-27T10:21:00Z</time>
      </trkpt>
      <trkpt lat="45.52032" lon="4.02363">
        <ele>739</ele>
        <time>2014-04-27T10:21:01Z</time>
      </trkpt>
      <trkpt lat="45.52035" lon="4.02396">
        <ele>738</ele>
        <time>2014-04-27T10:21:02Z</time>
      </trkpt>
      <trkpt lat="45.52039" lon="4.02411">
        <ele>738</ele>
        <time>2014-04-27T10:21:03Z</time>
      </trkpt>
      <trkpt lat="45.52044" lon="4.0244">
        <ele>738</ele>
        <time>2014-04-27T10:21:06Z</time>
      </trkpt>
      <trkpt lat="45.52042" lon="4.02467">
        <ele>737.5</ele>
        <time>2014-04-27T10:21:07Z</time>
      </trkpt>
      <trkpt lat="45.52033" lon="4.02491">
        <ele>736</ele>
        <time>2014-04-27T10:21:09Z</time>
      </trkpt>
      <trkpt lat="45.52021" lon="4.02511">
        <ele>734.5</ele>
        <time>2014-04-27T10:21:12Z</time>
      </trkpt>
      <trkpt lat="45.52007" lon="4.02525">
        <ele>733</ele>
        <time>2014-04-27T10:21:13Z</time>
      </trkpt>
      <trkpt lat="45.51996" lon="4.02539">
        <ele>732</ele>
        <time>2014-04-27T10:21:15Z</time>
      </trkpt>
      <trkpt lat="45.51991" lon="4.02554">
        <ele>730.1</ele>
        <time>2014-04-27T10:21:20Z</time>
      </trkpt>
      <trkpt lat="45.51988" lon="4.02571">
        <ele>729</ele>
        <time>2014-04-27T10:21:26Z</time>
      </trkpt>
      <trkpt lat="45.51982" lon="4.02587">
        <ele>727.8</ele>
        <time>2014-04-27T10:21:29Z</time>
      </trkpt>
      <trkpt lat="45.5199" lon="4.02599">
        <ele>726</ele>
        <time>2014-04-27T10:21:33Z</time>
      </trkpt>
      <trkpt lat="45.52009" lon="4.02593">
        <ele>724.3</ele>
        <time>2014-04-27T10:21:37Z</time>
      </trkpt>
      <trkpt lat="45.52023" lon="4.02602">
        <ele>723.5</ele>
        <time>2014-04-27T10:21:39Z</time>
      </trkpt>
      <trkpt lat="45.5203" lon="4.02616">
        <ele>723.5</ele>
        <time>2014-04-27T10:21:41Z</time>
      </trkpt>
      <trkpt lat="45.52032" lon="4.02634">
        <ele>723</ele>
        <time>2014-04-27T10:21:44Z</time>
      </trkpt>
      <trkpt lat="45.52025" lon="4.02652">
        <ele>722.5</ele>
        <time>2014-04-27T10:21:45Z</time>
      </trkpt>
      <trkpt lat="45.52013" lon="4.02667">
        <ele>722.5</ele>
        <time>2014-04-27T10:21:47Z</time>
      </trkpt>
      <trkpt lat="45.52" lon="4.02682">
        <ele>722</ele>
        <time>2014-04-27T10:21:50Z</time>
      </trkpt>
      <trkpt lat="45.51987" lon="4.02697">
        <ele>722</ele>
        <time>2014-04-27T10:21:51Z</time>
      </trkpt>
      <trkpt lat="45.51977" lon="4.02716">
        <ele>722</ele>
        <time>2014-04-27T10:21:53Z</time>
      </trkpt>
      <trkpt lat="45.5197" lon="4.02735">
        <ele>722.5</ele>
        <time>2014-04-27T10:21:56Z</time>
      </trkpt>
      <trkpt lat="45.51965" lon="4.02754">
        <ele>722.5</ele>
        <time>2014-04-27T10:21:58Z</time>
      </trkpt>
      <trkpt lat="45.51963" lon="4.02773">
        <ele>723</ele>
        <time>2014-04-27T10:21:59Z</time>
      </trkpt>
      <trkpt lat="45.51964" lon="4.02791">
        <ele>722</ele>
        <time>2014-04-27T10:22:02Z</time>
      </trkpt>
      <trkpt lat="45.51967" lon="4.0281">
        <ele>722</ele>
        <time>2014-04-27T10:22:04Z</time>
      </trkpt>
      <trkpt lat="45.51971" lon="4.02827">
        <ele>722.5</ele>
        <time>2014-04-27T10:22:05Z</time>
      </trkpt>
      <trkpt lat="45.51975" lon="4.02842">
        <ele>723</ele>
        <time>2014-04-27T10:22:08Z</time>
      </trkpt>
      <trkpt lat="45.51979" lon="4.02857">
        <ele>723.5</ele>
        <time>2014-04-27T10:22:10Z</time>
      </trkpt>
      <trkpt lat="45.51981" lon="4.02874">
        <ele>724</ele>
        <time>2014-04-27T10:22:12Z</time>
      </trkpt>
      <trkpt lat="45.5198" lon="4.0289">
        <ele>724.8</ele>
        <time>2014-04-27T10:22:15Z</time>
      </trkpt>
      <trkpt lat="45.51978" lon="4.02906">
        <ele>725.5</ele>
        <time>2014-04-27T10:22:18Z</time>
      </trkpt>
      <trkpt lat="45.51978" lon="4.02924">
        <ele>724.5</ele>
        <time>2014-04-27T10:22:23Z</time>
      </trkpt>
      <trkpt lat="45.51981" lon="4.02941">
        <ele>725</ele>
        <time>2014-04-27T10:22:27Z</time>
      </trkpt>
      <trkpt lat="45.51982" lon="4.02958">
        <ele>725.3</ele>
        <time>2014-04-27T10:22:30Z</time>
      </trkpt>
      <trkpt lat="45.51985" lon="4.02974">
        <ele>726.2</ele>
        <time>2014-04-27T10:22:35Z</time>
      </trkpt>
      <trkpt lat="45.51985" lon="4.02991">
        <ele>726.5</ele>
        <time>2014-04-27T10:22:39Z</time>
      </trkpt>
      <trkpt lat="45.51981" lon="4.0301">
        <ele>726.5</ele>
        <time>2014-04-27T10:22:42Z</time>
      </trkpt>
      <trkpt lat="45.51974" lon="4.03027">
        <ele>726.8</ele>
        <time>2014-04-27T10:22:47Z</time>
      </trkpt>
      <trkpt lat="45.51965" lon="4.03043">
        <ele>729</ele>
        <time>2014-04-27T10:22:50Z</time>
      </trkpt>
      <trkpt lat="45.51956" lon="4.03056">
        <ele>729.3</ele>
        <time>2014-04-27T10:22:55Z</time>
      </trkpt>
      <trkpt lat="45.51947" lon="4.0307">
        <ele>730.2</ele>
        <time>2014-04-27T10:22:59Z</time>
      </trkpt>
      <trkpt lat="45.51938" lon="4.03086">
        <ele>731.3</ele>
        <time>2014-04-27T10:23:02Z</time>
      </trkpt>
      <trkpt lat="45.5193" lon="4.03102">
        <ele>731.8</ele>
        <time>2014-04-27T10:23:07Z</time>
      </trkpt>
      <trkpt lat="45.51923" lon="4.03117">
        <ele>732</ele>
        <time>2014-04-27T10:23:11Z</time>
      </trkpt>
      <trkpt lat="45.51918" lon="4.03133">
        <ele>731</ele>
        <time>2014-04-27T10:23:15Z</time>
      </trkpt>
      <trkpt lat="45.51915" lon="4.03149">
        <ele>731.3</ele>
        <time>2014-04-27T10:23:20Z</time>
      </trkpt>
      <trkpt lat="45.51912" lon="4.03164">
        <ele>731.5</ele>
        <time>2014-04-27T10:23:24Z</time>
      </trkpt>
      <trkpt lat="45.51909" lon="4.0318">
        <ele>732</ele>
        <time>2014-04-27T10:23:27Z</time>
      </trkpt>
      <trkpt lat="45.51907" lon="4.03195">
        <ele>732.5</ele>
        <time>2014-04-27T10:23:32Z</time>
      </trkpt>
      <trkpt lat="45.51906" lon="4.03212">
        <ele>732.3</ele>
        <time>2014-04-27T10:23:36Z</time>
      </trkpt>
      <trkpt lat="45.51905" lon="4.03228">
        <ele>732.5</ele>
        <time>2014-04-27T10:23:40Z</time>
      </trkpt>
      <trkpt lat="45.51907" lon="4.03244">
        <ele>733.5</ele>
        <time>2014-04-27T10:23:44Z</time>
      </trkpt>
      <trkpt lat="45.51912" lon="4.03262">
        <ele>735</ele>
        <time>2014-04-27T10:23:50Z</time>
      </trkpt>
      <trkpt lat="45.51917" lon="4.03277">
        <ele>735.5</ele>
        <time>2014-04-27T10:23:53Z</time>
      </trkpt>
      <trkpt lat="45.51922" lon="4.03293">
        <ele>736.2</ele>
        <time>2014-04-27T10:23:58Z</time>
      </trkpt>
      <trkpt lat="45.51927" lon="4.03309">
        <ele>736.5</ele>
        <time>2014-04-27T10:24:01Z</time>
      </trkpt>
      <trkpt lat="45.51932" lon="4.03324">
        <ele>736.5</ele>
        <time>2014-04-27T10:24:04Z</time>
      </trkpt>
      <trkpt lat="45.51937" lon="4.03339">
        <ele>737</ele>
        <time>2014-04-27T10:24:07Z</time>
      </trkpt>
      <trkpt lat="45.51942" lon="4.03354">
        <ele>737.8</ele>
        <time>2014-04-27T10:24:10Z</time>
      </trkpt>
      <trkpt lat="45.51947" lon="4.03369">
        <ele>738.5</ele>
        <time>2014-04-27T10:24:13Z</time>
      </trkpt>
      <trkpt lat="45.51953" lon="4.03384">
        <ele>739</ele>
        <time>2014-04-27T10:24:16Z</time>
      </trkpt>
      <trkpt lat="45.51958" lon="4.034">
        <ele>739</ele>
        <time>2014-04-27T10:24:19Z</time>
      </trkpt>
      <trkpt lat="45.51964" lon="4.03416">
        <ele>739.3</ele>
        <time>2014-04-27T10:24:22Z</time>
      </trkpt>
      <trkpt lat="45.5197" lon="4.03434">
        <ele>739.5</ele>
        <time>2014-04-27T10:24:25Z</time>
      </trkpt>
      <trkpt lat="45.51976" lon="4.03452">
        <ele>739.5</ele>
        <time>2014-04-27T10:24:28Z</time>
      </trkpt>
      <trkpt lat="45.5198" lon="4.0347">
        <ele>740</ele>
        <time>2014-04-27T10:24:31Z</time>
      </trkpt>
      <trkpt lat="45.51983" lon="4.03488">
        <ele>740.5</ele>
        <time>2014-04-27T10:24:34Z</time>
      </trkpt>
      <trkpt lat="45.51986" lon="4.03505">
        <ele>741</ele>
        <time>2014-04-27T10:24:37Z</time>
      </trkpt>
      <trkpt lat="45.51989" lon="4.03521">
        <ele>741</ele>
        <time>2014-04-27T10:24:40Z</time>
      </trkpt>
      <trkpt lat="45.51992" lon="4.03537">
        <ele>740.8</ele>
        <time>2014-04-27T10:24:43Z</time>
      </trkpt>
      <trkpt lat="45.51993" lon="4.03555">
        <ele>741</ele>
        <time>2014-04-27T10:24:46Z</time>
      </trkpt>
      <trkpt lat="45.51995" lon="4.03575">
        <ele>741.3</ele>
        <time>2014-04-27T10:24:49Z</time>
      </trkpt>
      <trkpt lat="45.51997" lon="4.03595">
        <ele>741</ele>
        <time>2014-04-27T10:24:52Z</time>
      </trkpt>
      <trkpt lat="45.51998" lon="4.03615">
        <ele>741</ele>
        <time>2014-04-27T10:24:55Z</time>
      </trkpt>
      <trkpt lat="45.51999" lon="4.03636">
        <ele>741.5</ele>
        <time>2014-04-27T10:24:58Z</time>
      </trkpt>
      <trkpt lat="45.51999" lon="4.03656">
        <ele>741.8</ele>
        <time>2014-04-27T10:25:01Z</time>
      </trkpt>
      <trkpt lat="45.52" lon="4.03676">
        <ele>742</ele>
        <time>2014-04-27T10:25:04Z</time>
      </trkpt>
      <trkpt lat="45.52002" lon="4.03694">
        <ele>742</ele>
        <time>2014-04-27T10:25:07Z</time>
      </trkpt>
      <trkpt lat="45.52003" lon="4.03709">
        <ele>742</ele>
        <time>2014-04-27T10:25:09Z</time>
      </trkpt>
      <trkpt lat="45.52004" lon="4.03726">
        <ele>742</ele>
        <time>2014-04-27T10:25:10Z</time>
      </trkpt>
      <trkpt lat="45.52005" lon="4.03744">
        <ele>741.5</ele>
        <time>2014-04-27T10:25:13Z</time>
      </trkpt>
      <trkpt lat="45.52007" lon="4.03764">
        <ele>740.5</ele>
        <time>2014-04-27T10:25:15Z</time>
      </trkpt>
      <trkpt lat="45.52009" lon="4.03786">
        <ele>740</ele>
        <time>2014-04-27T10:25:16Z</time>
      </trkpt>
      <trkpt lat="45.52013" lon="4.03807">
        <ele>740</ele>
        <time>2014-04-27T10:25:19Z</time>
      </trkpt>
      <trkpt lat="45.52018" lon="4.03828">
        <ele>739</ele>
        <time>2014-04-27T10:25:21Z</time>
      </trkpt>
      <trkpt lat="45.52024" lon="4.03849">
        <ele>738.5</ele>
        <time>2014-04-27T10:25:22Z</time>
      </trkpt>
      <trkpt lat="45.52028" lon="4.03871">
        <ele>738</ele>
        <time>2014-04-27T10:25:24Z</time>
      </trkpt>
      <trkpt lat="45.52029" lon="4.03893">
        <ele>738</ele>
        <time>2014-04-27T10:25:27Z</time>
      </trkpt>
      <trkpt lat="45.52028" lon="4.03915">
        <ele>737.5</ele>
        <time>2014-04-27T10:25:28Z</time>
      </trkpt>
      <trkpt lat="45.52025" lon="4.03935">
        <ele>738</ele>
        <time>2014-04-27T10:25:30Z</time>
      </trkpt>
      <trkpt lat="45.52021" lon="4.03955">
        <ele>738</ele>
        <time>2014-04-27T10:25:33Z</time>
      </trkpt>
      <trkpt lat="45.52017" lon="4.03973">
        <ele>738</ele>
        <time>2014-04-27T10:25:34Z</time>
      </trkpt>
      <trkpt lat="45.52011" lon="4.03989">
        <ele>738</ele>
        <time>2014-04-27T10:25:36Z</time>
      </trkpt>
      <trkpt lat="45.52004" lon="4.04004">
        <ele>738.5</ele>
        <time>2014-04-27T10:25:39Z</time>
      </trkpt>
      <trkpt lat="45.51997" lon="4.04018">
        <ele>738.5</ele>
        <time>2014-04-27T10:25:41Z</time>
      </trkpt>
      <trkpt lat="45.51989" lon="4.04034">
        <ele>739.5</ele>
        <time>2014-04-27T10:25:42Z</time>
      </trkpt>
      <trkpt lat="45.5198" lon="4.0405">
        <ele>739.5</ele>
        <time>2014-04-27T10:25:45Z</time>
      </trkpt>
      <trkpt lat="45.5197" lon="4.04067">
        <ele>740</ele>
        <time>2014-04-27T10:25:47Z</time>
      </trkpt>
      <trkpt lat="45.51962" lon="4.04082">
        <ele>740.5</ele>
        <time>2014-04-27T10:25:48Z</time>
      </trkpt>
      <trkpt lat="45.51956" lon="4.04096">
        <ele>740</ele>
        <time>2014-04-27T10:25:51Z</time>
      </trkpt>
      <trkpt lat="45.51948" lon="4.04109">
        <ele>740.5</ele>
        <time>2014-04-27T10:25:53Z</time>
      </trkpt>
      <trkpt lat="45.51941" lon="4.04125">
        <ele>740.5</ele>
        <time>2014-04-27T10:25:55Z</time>
      </trkpt>
      <trkpt lat="45.51935" lon="4.04143">
        <ele>741</ele>
        <time>2014-04-27T10:25:58Z</time>
      </trkpt>
      <trkpt lat="45.51928" lon="4.04159">
        <ele>740.8</ele>
        <time>2014-04-27T10:26:01Z</time>
      </trkpt>
      <trkpt lat="45.51922" lon="4.04177">
        <ele>740.3</ele>
        <time>2014-04-27T10:26:04Z</time>
      </trkpt>
      <trkpt lat="45.51917" lon="4.04197">
        <ele>740.3</ele>
        <time>2014-04-27T10:26:07Z</time>
      </trkpt>
      <trkpt lat="45.51915" lon="4.04215">
        <ele>740.5</ele>
        <time>2014-04-27T10:26:10Z</time>
      </trkpt>
      <trkpt lat="45.51914" lon="4.0423">
        <ele>740</ele>
        <time>2014-04-27T10:26:12Z</time>
      </trkpt>
      <trkpt lat="45.51914" lon="4.04245">
        <ele>740</ele>
        <time>2014-04-27T10:26:13Z</time>
      </trkpt>
      <trkpt lat="45.51916" lon="4.04263">
        <ele>740.8</ele>
        <time>2014-04-27T10:26:16Z</time>
      </trkpt>
      <trkpt lat="45.51919" lon="4.0428">
        <ele>741</ele>
        <time>2014-04-27T10:26:19Z</time>
      </trkpt>
      <trkpt lat="45.51921" lon="4.04297">
        <ele>741.7</ele>
        <time>2014-04-27T10:26:23Z</time>
      </trkpt>
      <trkpt lat="45.51917" lon="4.04315">
        <ele>740.8</ele>
        <time>2014-04-27T10:26:26Z</time>
      </trkpt>
      <trkpt lat="45.51907" lon="4.04329">
        <ele>740</ele>
        <time>2014-04-27T10:26:29Z</time>
      </trkpt>
      <trkpt lat="45.51897" lon="4.04343">
        <ele>739.5</ele>
        <time>2014-04-27T10:26:32Z</time>
      </trkpt>
      <trkpt lat="45.51888" lon="4.04357">
        <ele>739</ele>
        <time>2014-04-27T10:26:35Z</time>
      </trkpt>
      <trkpt lat="45.5188" lon="4.0437">
        <ele>739</ele>
        <time>2014-04-27T10:26:38Z</time>
      </trkpt>
      <trkpt lat="45.51873" lon="4.04384">
        <ele>738.3</ele>
        <time>2014-04-27T10:26:41Z</time>
      </trkpt>
      <trkpt lat="45.51866" lon="4.04398">
        <ele>737.8</ele>
        <time>2014-04-27T10:26:44Z</time>
      </trkpt>
      <trkpt lat="45.51862" lon="4.04412">
        <ele>737.5</ele>
        <time>2014-04-27T10:26:47Z</time>
      </trkpt>
      <trkpt lat="45.51859" lon="4.04426">
        <ele>737</ele>
        <time>2014-04-27T10:26:50Z</time>
      </trkpt>
      <trkpt lat="45.51857" lon="4.04441">
        <ele>737</ele>
        <time>2014-04-27T10:26:53Z</time>
      </trkpt>
      <trkpt lat="45.51855" lon="4.04457">
        <ele>737.3</ele>
        <time>2014-04-27T10:26:56Z</time>
      </trkpt>
      <trkpt lat="45.51852" lon="4.04472">
        <ele>737</ele>
        <time>2014-04-27T10:26:59Z</time>
      </trkpt>
      <trkpt lat="45.51849" lon="4.04486">
        <ele>737</ele>
        <time>2014-04-27T10:27:02Z</time>
      </trkpt>
      <trkpt lat="45.51846" lon="4.04503">
        <ele>736.3</ele>
        <time>2014-04-27T10:27:05Z</time>
      </trkpt>
      <trkpt lat="45.51842" lon="4.04519">
        <ele>735.8</ele>
        <time>2014-04-27T10:27:09Z</time>
      </trkpt>
      <trkpt lat="45.51838" lon="4.04536">
        <ele>735.3</ele>
        <time>2014-04-27T10:27:13Z</time>
      </trkpt>
      <trkpt lat="45.51834" lon="4.04553">
        <ele>735.5</ele>
        <time>2014-04-27T10:27:16Z</time>
      </trkpt>
      <trkpt lat="45.51831" lon="4.0457">
        <ele>735.5</ele>
        <time>2014-04-27T10:27:20Z</time>
      </trkpt>
      <trkpt lat="45.51828" lon="4.04585">
        <ele>735.8</ele>
        <time>2014-04-27T10:27:23Z</time>
      </trkpt>
      <trkpt lat="45.51825" lon="4.046">
        <ele>735.3</ele>
        <time>2014-04-27T10:27:27Z</time>
      </trkpt>
      <trkpt lat="45.51821" lon="4.04615">
        <ele>735</ele>
        <time>2014-04-27T10:27:30Z</time>
      </trkpt>
      <trkpt lat="45.51817" lon="4.04629">
        <ele>735</ele>
        <time>2014-04-27T10:27:35Z</time>
      </trkpt>
      <trkpt lat="45.51807" lon="4.04639">
        <ele>734.7</ele>
        <time>2014-04-27T10:27:38Z</time>
      </trkpt>
      <trkpt lat="45.51792" lon="4.04646">
        <ele>734.7</ele>
        <time>2014-04-27T10:27:42Z</time>
      </trkpt>
      <trkpt lat="45.51777" lon="4.04652">
        <ele>734.5</ele>
        <time>2014-04-27T10:27:47Z</time>
      </trkpt>
      <trkpt lat="45.51763" lon="4.04659">
        <ele>735</ele>
        <time>2014-04-27T10:27:51Z</time>
      </trkpt>
      <trkpt lat="45.51752" lon="4.04666">
        <ele>735</ele>
        <time>2014-04-27T10:27:55Z</time>
      </trkpt>
      <trkpt lat="45.51748" lon="4.04683">
        <ele>734.3</ele>
        <time>2014-04-27T10:27:59Z</time>
      </trkpt>
      <trkpt lat="45.51749" lon="4.04701">
        <ele>734</ele>
        <time>2014-04-27T10:28:01Z</time>
      </trkpt>
      <trkpt lat="45.51753" lon="4.0472">
        <ele>733.5</ele>
        <time>2014-04-27T10:28:05Z</time>
      </trkpt>
      <trkpt lat="45.51757" lon="4.04741">
        <ele>733.5</ele>
        <time>2014-04-27T10:28:08Z</time>
      </trkpt>
      <trkpt lat="45.51759" lon="4.04759">
        <ele>733</ele>
        <time>2014-04-27T10:28:11Z</time>
      </trkpt>
      <trkpt lat="45.51762" lon="4.04774">
        <ele>733.5</ele>
        <time>2014-04-27T10:28:13Z</time>
      </trkpt>
      <trkpt lat="45.51764" lon="4.04791">
        <ele>732.5</ele>
        <time>2014-04-27T10:28:14Z</time>
      </trkpt>
      <trkpt lat="45.51761" lon="4.04808">
        <ele>732</ele>
        <time>2014-04-27T10:28:16Z</time>
      </trkpt>
      <trkpt lat="45.51758" lon="4.04823">
        <ele>731.5</ele>
        <time>2014-04-27T10:28:19Z</time>
      </trkpt>
      <trkpt lat="45.51758" lon="4.0484">
        <ele>730.5</ele>
        <time>2014-04-27T10:28:20Z</time>
      </trkpt>
      <trkpt lat="45.51759" lon="4.04857">
        <ele>729.5</ele>
        <time>2014-04-27T10:28:22Z</time>
      </trkpt>
      <trkpt lat="45.51759" lon="4.04874">
        <ele>729</ele>
        <time>2014-04-27T10:28:25Z</time>
      </trkpt>
      <trkpt lat="45.51759" lon="4.04892">
        <ele>728.3</ele>
        <time>2014-04-27T10:28:27Z</time>
      </trkpt>
      <trkpt lat="45.51752" lon="4.04905">
        <ele>727</ele>
        <time>2014-04-27T10:28:30Z</time>
      </trkpt>
      <trkpt lat="45.51734" lon="4.04909">
        <ele>725.5</ele>
        <time>2014-04-27T10:28:33Z</time>
      </trkpt>
      <trkpt lat="45.51714" lon="4.0491">
        <ele>723.5</ele>
        <time>2014-04-27T10:28:35Z</time>
      </trkpt>
      <trkpt lat="45.51696" lon="4.04912">
        <ele>722</ele>
        <time>2014-04-27T10:28:38Z</time>
      </trkpt>
      <trkpt lat="45.51676" lon="4.04914">
        <ele>719.5</ele>
        <time>2014-04-27T10:28:39Z</time>
      </trkpt>
      <trkpt lat="45.51652" lon="4.04918">
        <ele>717</ele>
        <time>2014-04-27T10:28:41Z</time>
      </trkpt>
      <trkpt lat="45.51627" lon="4.04924">
        <ele>715</ele>
        <time>2014-04-27T10:28:44Z</time>
      </trkpt>
      <trkpt lat="45.51601" lon="4.04931">
        <ele>713.5</ele>
        <time>2014-04-27T10:28:46Z</time>
      </trkpt>
      <trkpt lat="45.51574" lon="4.04936">
        <ele>712</ele>
        <time>2014-04-27T10:28:47Z</time>
      </trkpt>
      <trkpt lat="45.51551" lon="4.04935">
        <ele>710</ele>
        <time>2014-04-27T10:28:50Z</time>
      </trkpt>
      <trkpt lat="45.51534" lon="4.04932">
        <ele>709</ele>
        <time>2014-04-27T10:28:52Z</time>
      </trkpt>
      <trkpt lat="45.51521" lon="4.04939">
        <ele>708</ele>
        <time>2014-04-27T10:28:54Z</time>
      </trkpt>
      <trkpt lat="45.51512" lon="4.04955">
        <ele>708.5</ele>
        <time>2014-04-27T10:28:58Z</time>
      </trkpt>
      <trkpt lat="45.51502" lon="4.04968">
        <ele>709.1</ele>
        <time>2014-04-27T10:29:02Z</time>
      </trkpt>
      <trkpt lat="45.51494" lon="4.04982">
        <ele>710.1</ele>
        <time>2014-04-27T10:29:07Z</time>
      </trkpt>
      <trkpt lat="45.51487" lon="4.04996">
        <ele>711</ele>
        <time>2014-04-27T10:29:13Z</time>
      </trkpt>
      <trkpt lat="45.51483" lon="4.05012">
        <ele>711.5</ele>
        <time>2014-04-27T10:29:18Z</time>
      </trkpt>
      <trkpt lat="45.51483" lon="4.05029">
        <ele>711.7</ele>
        <time>2014-04-27T10:29:23Z</time>
      </trkpt>
      <trkpt lat="45.51483" lon="4.05044">
        <ele>711.7</ele>
        <time>2014-04-27T10:29:27Z</time>
      </trkpt>
      <trkpt lat="45.51485" lon="4.05059">
        <ele>712</ele>
        <time>2014-04-27T10:29:30Z</time>
      </trkpt>
      <trkpt lat="45.51486" lon="4.05074">
        <ele>712.5</ele>
        <time>2014-04-27T10:29:35Z</time>
      </trkpt>
      <trkpt lat="45.51486" lon="4.05091">
        <ele>712.6</ele>
        <time>2014-04-27T10:29:39Z</time>
      </trkpt>
      <trkpt lat="45.51482" lon="4.05105">
        <ele>712.6</ele>
        <time>2014-04-27T10:29:45Z</time>
      </trkpt>
      <trkpt lat="45.51475" lon="4.05119">
        <ele>712.3</ele>
        <time>2014-04-27T10:29:49Z</time>
      </trkpt>
      <trkpt lat="45.51462" lon="4.05126">
        <ele>710.6</ele>
        <time>2014-04-27T10:29:54Z</time>
      </trkpt>
      <trkpt lat="45.51445" lon="4.05125">
        <ele>709.8</ele>
        <time>2014-04-27T10:29:59Z</time>
      </trkpt>
      <trkpt lat="45.51432" lon="4.0514">
        <ele>708.5</ele>
        <time>2014-04-27T10:30:02Z</time>
      </trkpt>
      <trkpt lat="45.51426" lon="4.05159">
        <ele>708.3</ele>
        <time>2014-04-27T10:30:05Z</time>
      </trkpt>
      <trkpt lat="45.5142" lon="4.05176">
        <ele>708.2</ele>
        <time>2014-04-27T10:30:08Z</time>
      </trkpt>
      <trkpt lat="45.51415" lon="4.05191">
        <ele>708.3</ele>
        <time>2014-04-27T10:30:13Z</time>
      </trkpt>
      <trkpt lat="45.51413" lon="4.05206">
        <ele>708</ele>
        <time>2014-04-27T10:30:16Z</time>
      </trkpt>
      <trkpt lat="45.51413" lon="4.05223">
        <ele>706.8</ele>
        <time>2014-04-27T10:30:20Z</time>
      </trkpt>
      <trkpt lat="45.51413" lon="4.0524">
        <ele>705.8</ele>
        <time>2014-04-27T10:30:23Z</time>
      </trkpt>
      <trkpt lat="45.51404" lon="4.05251">
        <ele>704.2</ele>
        <time>2014-04-27T10:30:27Z</time>
      </trkpt>
      <trkpt lat="45.51388" lon="4.05256">
        <ele>703.3</ele>
        <time>2014-04-27T10:30:30Z</time>
      </trkpt>
      <trkpt lat="45.51372" lon="4.05261">
        <ele>702.5</ele>
        <time>2014-04-27T10:30:33Z</time>
      </trkpt>
      <trkpt lat="45.51356" lon="4.05265">
        <ele>701.3</ele>
        <time>2014-04-27T10:30:36Z</time>
      </trkpt>
      <trkpt lat="45.51344" lon="4.05274">
        <ele>700.3</ele>
        <time>2014-04-27T10:30:39Z</time>
      </trkpt>
      <trkpt lat="45.51335" lon="4.0529">
        <ele>700</ele>
        <time>2014-04-27T10:30:41Z</time>
      </trkpt>
      <trkpt lat="45.51327" lon="4.05303">
        <ele>699</ele>
        <time>2014-04-27T10:30:44Z</time>
      </trkpt>
      <trkpt lat="45.51319" lon="4.05315">
        <ele>698</ele>
        <time>2014-04-27T10:30:46Z</time>
      </trkpt>
      <trkpt lat="45.5131" lon="4.05329">
        <ele>696.5</ele>
        <time>2014-04-27T10:30:47Z</time>
      </trkpt>
      <trkpt lat="45.51299" lon="4.05342">
        <ele>694.5</ele>
        <time>2014-04-27T10:30:50Z</time>
      </trkpt>
      <trkpt lat="45.51289" lon="4.05354">
        <ele>693</ele>
        <time>2014-04-27T10:30:52Z</time>
      </trkpt>
      <trkpt lat="45.51278" lon="4.05367">
        <ele>691.3</ele>
        <time>2014-04-27T10:30:54Z</time>
      </trkpt>
      <trkpt lat="45.51267" lon="4.05381">
        <ele>689</ele>
        <time>2014-04-27T10:30:57Z</time>
      </trkpt>
      <trkpt lat="45.51257" lon="4.05391">
        <ele>686.5</ele>
        <time>2014-04-27T10:31:00Z</time>
      </trkpt>
      <trkpt lat="45.51249" lon="4.05404">
        <ele>684</ele>
        <time>2014-04-27T10:31:03Z</time>
      </trkpt>
      <trkpt lat="45.51239" lon="4.05418">
        <ele>681</ele>
        <time>2014-04-27T10:31:06Z</time>
      </trkpt>
      <trkpt lat="45.51228" lon="4.05429">
        <ele>678.5</ele>
        <time>2014-04-27T10:31:10Z</time>
      </trkpt>
      <trkpt lat="45.51216" lon="4.05441">
        <ele>676.6</ele>
        <time>2014-04-27T10:31:14Z</time>
      </trkpt>
      <trkpt lat="45.51202" lon="4.05454">
        <ele>674.2</ele>
        <time>2014-04-27T10:31:21Z</time>
      </trkpt>
      <trkpt lat="45.51192" lon="4.05456">
        <ele>673</ele>
        <time>2014-04-27T10:31:28Z</time>
      </trkpt>
      <trkpt lat="45.51193" lon="4.05475">
        <ele>670.3</ele>
        <time>2014-04-27T10:31:33Z</time>
      </trkpt>
      <trkpt lat="45.51202" lon="4.05497">
        <ele>668</ele>
        <time>2014-04-27T10:31:36Z</time>
      </trkpt>
      <trkpt lat="45.51214" lon="4.05516">
        <ele>666.5</ele>
        <time>2014-04-27T10:31:37Z</time>
      </trkpt>
      <trkpt lat="45.51229" lon="4.05538">
        <ele>664.5</ele>
        <time>2014-04-27T10:31:39Z</time>
      </trkpt>
      <trkpt lat="45.51237" lon="4.05549">
        <ele>664</ele>
        <time>2014-04-27T10:31:41Z</time>
      </trkpt>
      <trkpt lat="45.51263" lon="4.05579">
        <ele>662.5</ele>
        <time>2014-04-27T10:31:44Z</time>
      </trkpt>
      <trkpt lat="45.5128" lon="4.05599">
        <ele>661.5</ele>
        <time>2014-04-27T10:31:45Z</time>
      </trkpt>
      <trkpt lat="45.51286" lon="4.05611">
        <ele>660.5</ele>
        <time>2014-04-27T10:31:46Z</time>
      </trkpt>
      <trkpt lat="45.5129" lon="4.05626">
        <ele>659.5</ele>
        <time>2014-04-27T10:31:48Z</time>
      </trkpt>
      <trkpt lat="45.51292" lon="4.05643">
        <ele>658.5</ele>
        <time>2014-04-27T10:31:49Z</time>
      </trkpt>
      <trkpt lat="45.51293" lon="4.0566">
        <ele>657.5</ele>
        <time>2014-04-27T10:31:50Z</time>
      </trkpt>
      <trkpt lat="45.51293" lon="4.05707">
        <ele>656</ele>
        <time>2014-04-27T10:31:52Z</time>
      </trkpt>
      <trkpt lat="45.51297" lon="4.05734">
        <ele>655</ele>
        <time>2014-04-27T10:31:55Z</time>
      </trkpt>
      <trkpt lat="45.51302" lon="4.05761">
        <ele>654</ele>
        <time>2014-04-27T10:31:57Z</time>
      </trkpt>
      <trkpt lat="45.51304" lon="4.05789">
        <ele>653</ele>
        <time>2014-04-27T10:31:58Z</time>
      </trkpt>
      <trkpt lat="45.51302" lon="4.05814">
        <ele>652</ele>
        <time>2014-04-27T10:32:01Z</time>
      </trkpt>
      <trkpt lat="45.51299" lon="4.05839">
        <ele>651</ele>
        <time>2014-04-27T10:32:03Z</time>
      </trkpt>
      <trkpt lat="45.51292" lon="4.05888">
        <ele>648.5</ele>
        <time>2014-04-27T10:32:07Z</time>
      </trkpt>
      <trkpt lat="45.51287" lon="4.05911">
        <ele>647.5</ele>
        <time>2014-04-27T10:32:09Z</time>
      </trkpt>
      <trkpt lat="45.51281" lon="4.05932">
        <ele>647</ele>
        <time>2014-04-27T10:32:10Z</time>
      </trkpt>
      <trkpt lat="45.51277" lon="4.05952">
        <ele>646.5</ele>
        <time>2014-04-27T10:32:13Z</time>
      </trkpt>
      <trkpt lat="45.51274" lon="4.05969">
        <ele>646.5</ele>
        <time>2014-04-27T10:32:15Z</time>
      </trkpt>
      <trkpt lat="45.5127" lon="4.05986">
        <ele>645.5</ele>
        <time>2014-04-27T10:32:16Z</time>
      </trkpt>
      <trkpt lat="45.51266" lon="4.06003">
        <ele>645</ele>
        <time>2014-04-27T10:32:18Z</time>
      </trkpt>
      <trkpt lat="45.51263" lon="4.06021">
        <ele>644</ele>
        <time>2014-04-27T10:32:21Z</time>
      </trkpt>
      <trkpt lat="45.51258" lon="4.06039">
        <ele>643.5</ele>
        <time>2014-04-27T10:32:22Z</time>
      </trkpt>
      <trkpt lat="45.51254" lon="4.06056">
        <ele>643.5</ele>
        <time>2014-04-27T10:32:24Z</time>
      </trkpt>
      <trkpt lat="45.51249" lon="4.06071">
        <ele>643.5</ele>
        <time>2014-04-27T10:32:27Z</time>
      </trkpt>
      <trkpt lat="45.51246" lon="4.06085">
        <ele>642.5</ele>
        <time>2014-04-27T10:32:28Z</time>
      </trkpt>
      <trkpt lat="45.51245" lon="4.06102">
        <ele>641.5</ele>
        <time>2014-04-27T10:32:31Z</time>
      </trkpt>
      <trkpt lat="45.51253" lon="4.06114">
        <ele>641.6</ele>
        <time>2014-04-27T10:32:35Z</time>
      </trkpt>
      <trkpt lat="45.51269" lon="4.06104">
        <ele>640.5</ele>
        <time>2014-04-27T10:32:39Z</time>
      </trkpt>
      <trkpt lat="45.51283" lon="4.06097">
        <ele>640</ele>
        <time>2014-04-27T10:32:44Z</time>
      </trkpt>
      <trkpt lat="45.51297" lon="4.0609">
        <ele>640</ele>
        <time>2014-04-27T10:32:48Z</time>
      </trkpt>
      <trkpt lat="45.51311" lon="4.06081">
        <ele>639</ele>
        <time>2014-04-27T10:32:53Z</time>
      </trkpt>
      <trkpt lat="45.51327" lon="4.06074">
        <ele>639</ele>
        <time>2014-04-27T10:32:58Z</time>
      </trkpt>
      <trkpt lat="45.5134" lon="4.06075">
        <ele>638.8</ele>
        <time>2014-04-27T10:33:04Z</time>
      </trkpt>
      <trkpt lat="45.51345" lon="4.06091">
        <ele>639.9</ele>
        <time>2014-04-27T10:33:10Z</time>
      </trkpt>
      <trkpt lat="45.51348" lon="4.06107">
        <ele>640.5</ele>
        <time>2014-04-27T10:33:14Z</time>
      </trkpt>
      <trkpt lat="45.51351" lon="4.06123">
        <ele>640.3</ele>
        <time>2014-04-27T10:33:19Z</time>
      </trkpt>
      <trkpt lat="45.51354" lon="4.0614">
        <ele>640</ele>
        <time>2014-04-27T10:33:23Z</time>
      </trkpt>
      <trkpt lat="45.51358" lon="4.06157">
        <ele>640</ele>
        <time>2014-04-27T10:33:26Z</time>
      </trkpt>
      <trkpt lat="45.51361" lon="4.06173">
        <ele>640</ele>
        <time>2014-04-27T10:33:30Z</time>
      </trkpt>
      <trkpt lat="45.51368" lon="4.06187">
        <ele>639.8</ele>
        <time>2014-04-27T10:33:35Z</time>
      </trkpt>
      <trkpt lat="45.51375" lon="4.06199">
        <ele>640</ele>
        <time>2014-04-27T10:33:38Z</time>
      </trkpt>
      <trkpt lat="45.51383" lon="4.06213">
        <ele>639.8</ele>
        <time>2014-04-27T10:33:43Z</time>
      </trkpt>
      <trkpt lat="45.51393" lon="4.06226">
        <ele>640</ele>
        <time>2014-04-27T10:33:47Z</time>
      </trkpt>
      <trkpt lat="45.51405" lon="4.06237">
        <ele>640.5</ele>
        <time>2014-04-27T10:33:53Z</time>
      </trkpt>
      <trkpt lat="45.5142" lon="4.06239">
        <ele>641.4</ele>
        <time>2014-04-27T10:34:00Z</time>
      </trkpt>
      <trkpt lat="45.51435" lon="4.06232">
        <ele>641.4</ele>
        <time>2014-04-27T10:34:07Z</time>
      </trkpt>
      <trkpt lat="45.5145" lon="4.06225">
        <ele>641.5</ele>
        <time>2014-04-27T10:34:12Z</time>
      </trkpt>
      <trkpt lat="45.51463" lon="4.06218">
        <ele>641.9</ele>
        <time>2014-04-27T10:34:17Z</time>
      </trkpt>
      <trkpt lat="45.51477" lon="4.0621">
        <ele>642.5</ele>
        <time>2014-04-27T10:34:23Z</time>
      </trkpt>
      <trkpt lat="45.51492" lon="4.06202">
        <ele>643</ele>
        <time>2014-04-27T10:34:28Z</time>
      </trkpt>
      <trkpt lat="45.51506" lon="4.06196">
        <ele>643</ele>
        <time>2014-04-27T10:34:35Z</time>
      </trkpt>
      <trkpt lat="45.51522" lon="4.06198">
        <ele>643</ele>
        <time>2014-04-27T10:34:40Z</time>
      </trkpt>
      <trkpt lat="45.51537" lon="4.06202">
        <ele>643</ele>
        <time>2014-04-27T10:34:45Z</time>
      </trkpt>
      <trkpt lat="45.51551" lon="4.06203">
        <ele>642.3</ele>
        <time>2014-04-27T10:34:48Z</time>
      </trkpt>
      <trkpt lat="45.51566" lon="4.062">
        <ele>641.6</ele>
        <time>2014-04-27T10:34:53Z</time>
      </trkpt>
      <trkpt lat="45.51578" lon="4.06192">
        <ele>642.8</ele>
        <time>2014-04-27T10:35:00Z</time>
      </trkpt>
      <trkpt lat="45.5159" lon="4.06189">
        <ele>643.8</ele>
        <time>2014-04-27T10:35:08Z</time>
      </trkpt>
      <trkpt lat="45.51609" lon="4.06196">
        <ele>645</ele>
        <time>2014-04-27T10:35:21Z</time>
      </trkpt>
      <trkpt lat="45.51619" lon="4.06198">
        <ele>646.2</ele>
        <time>2014-04-27T10:35:33Z</time>
      </trkpt>
      <trkpt lat="45.51634" lon="4.06202">
        <ele>648.5</ele>
        <time>2014-04-27T10:35:39Z</time>
      </trkpt>
      <trkpt lat="45.51649" lon="4.06206">
        <ele>649.9</ele>
        <time>2014-04-27T10:35:46Z</time>
      </trkpt>
      <trkpt lat="45.51666" lon="4.06211">
        <ele>650</ele>
        <time>2014-04-27T10:35:52Z</time>
      </trkpt>
      <trkpt lat="45.5168" lon="4.06217">
        <ele>649.8</ele>
        <time>2014-04-27T10:35:59Z</time>
      </trkpt>
      <trkpt lat="45.51688" lon="4.0623">
        <ele>649.3</ele>
        <time>2014-04-27T10:36:05Z</time>
      </trkpt>
      <trkpt lat="45.51698" lon="4.06243">
        <ele>649.5</ele>
        <time>2014-04-27T10:36:11Z</time>
      </trkpt>
      <trkpt lat="45.51706" lon="4.06255">
        <ele>649.3</ele>
        <time>2014-04-27T10:36:16Z</time>
      </trkpt>
      <trkpt lat="45.51717" lon="4.06268">
        <ele>648.3</ele>
        <time>2014-04-27T10:36:19Z</time>
      </trkpt>
      <trkpt lat="45.51731" lon="4.0628">
        <ele>648.1</ele>
        <time>2014-04-27T10:36:24Z</time>
      </trkpt>
      <trkpt lat="45.51744" lon="4.06287">
        <ele>647.8</ele>
        <time>2014-04-27T10:36:29Z</time>
      </trkpt>
      <trkpt lat="45.51758" lon="4.06293">
        <ele>647.2</ele>
        <time>2014-04-27T10:36:35Z</time>
      </trkpt>
      <trkpt lat="45.51773" lon="4.06303">
        <ele>646.3</ele>
        <time>2014-04-27T10:36:38Z</time>
      </trkpt>
      <trkpt lat="45.51785" lon="4.06318">
        <ele>645.8</ele>
        <time>2014-04-27T10:36:41Z</time>
      </trkpt>
      <trkpt lat="45.51797" lon="4.06334">
        <ele>645.3</ele>
        <time>2014-04-27T10:36:43Z</time>
      </trkpt>
      <trkpt lat="45.51808" lon="4.06348">
        <ele>644.8</ele>
        <time>2014-04-27T10:36:47Z</time>
      </trkpt>
      <trkpt lat="45.51821" lon="4.06358">
        <ele>643.2</ele>
        <time>2014-04-27T10:36:50Z</time>
      </trkpt>
      <trkpt lat="45.51835" lon="4.06363">
        <ele>642</ele>
        <time>2014-04-27T10:36:54Z</time>
      </trkpt>
      <trkpt lat="45.51852" lon="4.06363">
        <ele>641.8</ele>
        <time>2014-04-27T10:36:57Z</time>
      </trkpt>
      <trkpt lat="45.51868" lon="4.06363">
        <ele>641.5</ele>
        <time>2014-04-27T10:37:01Z</time>
      </trkpt>
      <trkpt lat="45.51885" lon="4.06365">
        <ele>641</ele>
        <time>2014-04-27T10:37:04Z</time>
      </trkpt>
      <trkpt lat="45.51899" lon="4.06373">
        <ele>640.7</ele>
        <time>2014-04-27T10:37:09Z</time>
      </trkpt>
      <trkpt lat="45.51902" lon="4.0639">
        <ele>639.8</ele>
        <time>2014-04-27T10:37:12Z</time>
      </trkpt>
      <trkpt lat="45.51903" lon="4.06407">
        <ele>640</ele>
        <time>2014-04-27T10:37:15Z</time>
      </trkpt>
      <trkpt lat="45.51911" lon="4.06421">
        <ele>640</ele>
        <time>2014-04-27T10:37:19Z</time>
      </trkpt>
      <trkpt lat="45.51926" lon="4.06425">
        <ele>639.2</ele>
        <time>2014-04-27T10:37:22Z</time>
      </trkpt>
      <trkpt lat="45.51941" lon="4.06429">
        <ele>638.7</ele>
        <time>2014-04-27T10:37:27Z</time>
      </trkpt>
      <trkpt lat="45.51955" lon="4.06435">
        <ele>639</ele>
        <time>2014-04-27T10:37:31Z</time>
      </trkpt>
      <trkpt lat="45.51969" lon="4.06443">
        <ele>639.8</ele>
        <time>2014-04-27T10:37:37Z</time>
      </trkpt>
      <trkpt lat="45.51981" lon="4.06454">
        <ele>641.3</ele>
        <time>2014-04-27T10:37:43Z</time>
      </trkpt>
      <trkpt lat="45.51992" lon="4.06464">
        <ele>641.5</ele>
        <time>2014-04-27T10:37:49Z</time>
      </trkpt>
      <trkpt lat="45.52002" lon="4.06476">
        <ele>641.5</ele>
        <time>2014-04-27T10:37:54Z</time>
      </trkpt>
      <trkpt lat="45.52012" lon="4.06487">
        <ele>641.9</ele>
        <time>2014-04-27T10:37:59Z</time>
      </trkpt>
      <trkpt lat="45.52024" lon="4.06496">
        <ele>642.3</ele>
        <time>2014-04-27T10:38:04Z</time>
      </trkpt>
      <trkpt lat="45.52037" lon="4.06503">
        <ele>643</ele>
        <time>2014-04-27T10:38:09Z</time>
      </trkpt>
      <trkpt lat="45.5205" lon="4.06513">
        <ele>643.8</ele>
        <time>2014-04-27T10:38:14Z</time>
      </trkpt>
      <trkpt lat="45.52063" lon="4.06524">
        <ele>644</ele>
        <time>2014-04-27T10:38:19Z</time>
      </trkpt>
      <trkpt lat="45.52073" lon="4.06536">
        <ele>644.9</ele>
        <time>2014-04-27T10:38:24Z</time>
      </trkpt>
      <trkpt lat="45.52085" lon="4.06545">
        <ele>645.4</ele>
        <time>2014-04-27T10:38:29Z</time>
      </trkpt>
      <trkpt lat="45.52097" lon="4.06554">
        <ele>645.7</ele>
        <time>2014-04-27T10:38:35Z</time>
      </trkpt>
      <trkpt lat="45.5211" lon="4.0656">
        <ele>645.8</ele>
        <time>2014-04-27T10:38:41Z</time>
      </trkpt>
      <trkpt lat="45.52125" lon="4.06565">
        <ele>647.9</ele>
        <time>2014-04-27T10:38:47Z</time>
      </trkpt>
      <trkpt lat="45.52139" lon="4.06569">
        <ele>648.8</ele>
        <time>2014-04-27T10:38:54Z</time>
      </trkpt>
      <trkpt lat="45.52155" lon="4.06575">
        <ele>650.3</ele>
        <time>2014-04-27T10:38:59Z</time>
      </trkpt>
      <trkpt lat="45.5217" lon="4.06582">
        <ele>651</ele>
        <time>2014-04-27T10:39:04Z</time>
      </trkpt>
      <trkpt lat="45.52184" lon="4.0659">
        <ele>651.5</ele>
        <time>2014-04-27T10:39:09Z</time>
      </trkpt>
      <trkpt lat="45.52194" lon="4.06603">
        <ele>651.5</ele>
        <time>2014-04-27T10:39:14Z</time>
      </trkpt>
      <trkpt lat="45.52196" lon="4.06622">
        <ele>650.3</ele>
        <time>2014-04-27T10:39:17Z</time>
      </trkpt>
      <trkpt lat="45.52203" lon="4.06638">
        <ele>650.2</ele>
        <time>2014-04-27T10:39:22Z</time>
      </trkpt>
      <trkpt lat="45.52216" lon="4.06649">
        <ele>650.3</ele>
        <time>2014-04-27T10:39:26Z</time>
      </trkpt>
      <trkpt lat="45.5223" lon="4.06653">
        <ele>651.2</ele>
        <time>2014-04-27T10:39:29Z</time>
      </trkpt>
      <trkpt lat="45.52246" lon="4.06656">
        <ele>651.5</ele>
        <time>2014-04-27T10:39:33Z</time>
      </trkpt>
      <trkpt lat="45.5226" lon="4.06661">
        <ele>652</ele>
        <time>2014-04-27T10:39:38Z</time>
      </trkpt>
      <trkpt lat="45.52274" lon="4.06671">
        <ele>651.5</ele>
        <time>2014-04-27T10:39:41Z</time>
      </trkpt>
      <trkpt lat="45.52287" lon="4.06686">
        <ele>649.8</ele>
        <time>2014-04-27T10:39:46Z</time>
      </trkpt>
      <trkpt lat="45.52298" lon="4.06701">
        <ele>649.5</ele>
        <time>2014-04-27T10:39:49Z</time>
      </trkpt>
      <trkpt lat="45.52309" lon="4.06714">
        <ele>649.5</ele>
        <time>2014-04-27T10:39:54Z</time>
      </trkpt>
      <trkpt lat="45.52324" lon="4.06724">
        <ele>650.3</ele>
        <time>2014-04-27T10:39:58Z</time>
      </trkpt>
      <trkpt lat="45.5234" lon="4.06731">
        <ele>650.5</ele>
        <time>2014-04-27T10:40:01Z</time>
      </trkpt>
      <trkpt lat="45.52355" lon="4.06738">
        <ele>650.7</ele>
        <time>2014-04-27T10:40:05Z</time>
      </trkpt>
      <trkpt lat="45.52371" lon="4.06744">
        <ele>651</ele>
        <time>2014-04-27T10:40:10Z</time>
      </trkpt>
      <trkpt lat="45.52387" lon="4.06749">
        <ele>651.5</ele>
        <time>2014-04-27T10:40:13Z</time>
      </trkpt>
      <trkpt lat="45.52402" lon="4.06756">
        <ele>651.5</ele>
        <time>2014-04-27T10:40:17Z</time>
      </trkpt>
      <trkpt lat="45.52416" lon="4.06768">
        <ele>650.3</ele>
        <time>2014-04-27T10:40:21Z</time>
      </trkpt>
      <trkpt lat="45.5243" lon="4.06775">
        <ele>650</ele>
        <time>2014-04-27T10:40:24Z</time>
      </trkpt>
      <trkpt lat="45.52447" lon="4.06781">
        <ele>650</ele>
        <time>2014-04-27T10:40:27Z</time>
      </trkpt>
      <trkpt lat="45.52463" lon="4.06784">
        <ele>648.8</ele>
        <time>2014-04-27T10:40:30Z</time>
      </trkpt>
      <trkpt lat="45.52478" lon="4.0678">
        <ele>648.5</ele>
        <time>2014-04-27T10:40:33Z</time>
      </trkpt>
      <trkpt lat="45.52493" lon="4.06776">
        <ele>648.5</ele>
        <time>2014-04-27T10:40:36Z</time>
      </trkpt>
      <trkpt lat="45.52509" lon="4.06772">
        <ele>648.5</ele>
        <time>2014-04-27T10:40:39Z</time>
      </trkpt>
      <trkpt lat="45.52515" lon="4.06784">
        <ele>648.3</ele>
        <time>2014-04-27T10:40:43Z</time>
      </trkpt>
      <trkpt lat="45.52512" lon="4.06802">
        <ele>648.5</ele>
        <time>2014-04-27T10:40:46Z</time>
      </trkpt>
      <trkpt lat="45.52505" lon="4.06819">
        <ele>647.5</ele>
        <time>2014-04-27T10:40:49Z</time>
      </trkpt>
      <trkpt lat="45.52508" lon="4.06834">
        <ele>647</ele>
        <time>2014-04-27T10:40:52Z</time>
      </trkpt>
      <trkpt lat="45.52525" lon="4.0684">
        <ele>646.3</ele>
        <time>2014-04-27T10:40:57Z</time>
      </trkpt>
      <trkpt lat="45.52533" lon="4.06857">
        <ele>646</ele>
        <time>2014-04-27T10:41:00Z</time>
      </trkpt>
      <trkpt lat="45.52534" lon="4.06874">
        <ele>644.8</ele>
        <time>2014-04-27T10:41:03Z</time>
      </trkpt>
      <trkpt lat="45.5254" lon="4.06893">
        <ele>644</ele>
        <time>2014-04-27T10:41:06Z</time>
      </trkpt>
      <trkpt lat="45.52548" lon="4.0691">
        <ele>643.5</ele>
        <time>2014-04-27T10:41:09Z</time>
      </trkpt>
      <trkpt lat="45.52554" lon="4.06926">
        <ele>643.5</ele>
        <time>2014-04-27T10:41:11Z</time>
      </trkpt>
      <trkpt lat="45.52555" lon="4.06943">
        <ele>642.5</ele>
        <time>2014-04-27T10:41:12Z</time>
      </trkpt>
      <trkpt lat="45.52556" lon="4.06961">
        <ele>642</ele>
        <time>2014-04-27T10:41:15Z</time>
      </trkpt>
      <trkpt lat="45.52558" lon="4.06979">
        <ele>641</ele>
        <time>2014-04-27T10:41:17Z</time>
      </trkpt>
      <trkpt lat="45.52559" lon="4.06996">
        <ele>640.5</ele>
        <time>2014-04-27T10:41:19Z</time>
      </trkpt>
      <trkpt lat="45.5256" lon="4.07014">
        <ele>640</ele>
        <time>2014-04-27T10:41:22Z</time>
      </trkpt>
      <trkpt lat="45.52562" lon="4.07032">
        <ele>639</ele>
        <time>2014-04-27T10:41:23Z</time>
      </trkpt>
      <trkpt lat="45.52565" lon="4.07049">
        <ele>638.5</ele>
        <time>2014-04-27T10:41:25Z</time>
      </trkpt>
      <trkpt lat="45.5257" lon="4.07067">
        <ele>638</ele>
        <time>2014-04-27T10:41:28Z</time>
      </trkpt>
      <trkpt lat="45.52574" lon="4.07085">
        <ele>637.5</ele>
        <time>2014-04-27T10:41:30Z</time>
      </trkpt>
      <trkpt lat="45.5258" lon="4.07104">
        <ele>637</ele>
        <time>2014-04-27T10:41:31Z</time>
      </trkpt>
      <trkpt lat="45.52585" lon="4.07125">
        <ele>636</ele>
        <time>2014-04-27T10:41:34Z</time>
      </trkpt>
      <trkpt lat="45.52592" lon="4.07147">
        <ele>635.5</ele>
        <time>2014-04-27T10:41:36Z</time>
      </trkpt>
      <trkpt lat="45.52599" lon="4.0717">
        <ele>635</ele>
        <time>2014-04-27T10:41:37Z</time>
      </trkpt>
      <trkpt lat="45.52605" lon="4.07194">
        <ele>634.5</ele>
        <time>2014-04-27T10:41:40Z</time>
      </trkpt>
      <trkpt lat="45.52612" lon="4.07217">
        <ele>633.5</ele>
        <time>2014-04-27T10:41:42Z</time>
      </trkpt>
      <trkpt lat="45.52619" lon="4.07241">
        <ele>633</ele>
        <time>2014-04-27T10:41:43Z</time>
      </trkpt>
      <trkpt lat="45.52626" lon="4.07265">
        <ele>631.5</ele>
        <time>2014-04-27T10:41:46Z</time>
      </trkpt>
      <trkpt lat="45.52633" lon="4.0729">
        <ele>630.5</ele>
        <time>2014-04-27T10:41:48Z</time>
      </trkpt>
      <trkpt lat="45.52641" lon="4.07315">
        <ele>629.5</ele>
        <time>2014-04-27T10:41:49Z</time>
      </trkpt>
      <trkpt lat="45.52647" lon="4.0734">
        <ele>629</ele>
        <time>2014-04-27T10:41:51Z</time>
      </trkpt>
      <trkpt lat="45.52655" lon="4.07365">
        <ele>628.5</ele>
        <time>2014-04-27T10:41:54Z</time>
      </trkpt>
      <trkpt lat="45.52662" lon="4.0739">
        <ele>627.5</ele>
        <time>2014-04-27T10:41:55Z</time>
      </trkpt>
      <trkpt lat="45.52668" lon="4.07416">
        <ele>627</ele>
        <time>2014-04-27T10:41:57Z</time>
      </trkpt>
      <trkpt lat="45.52675" lon="4.07443">
        <ele>626</ele>
        <time>2014-04-27T10:42:00Z</time>
      </trkpt>
      <trkpt lat="45.52683" lon="4.0747">
        <ele>625</ele>
        <time>2014-04-27T10:42:01Z</time>
      </trkpt>
      <trkpt lat="45.52691" lon="4.07497">
        <ele>624</ele>
        <time>2014-04-27T10:42:03Z</time>
      </trkpt>
      <trkpt lat="45.52698" lon="4.07524">
        <ele>623</ele>
        <time>2014-04-27T10:42:06Z</time>
      </trkpt>
      <trkpt lat="45.52705" lon="4.07551">
        <ele>622.5</ele>
        <time>2014-04-27T10:42:08Z</time>
      </trkpt>
      <trkpt lat="45.52713" lon="4.07578">
        <ele>621.5</ele>
        <time>2014-04-27T10:42:09Z</time>
      </trkpt>
      <trkpt lat="45.5272" lon="4.07605">
        <ele>620.5</ele>
        <time>2014-04-27T10:42:12Z</time>
      </trkpt>
      <trkpt lat="45.52729" lon="4.07631">
        <ele>620</ele>
        <time>2014-04-27T10:42:14Z</time>
      </trkpt>
      <trkpt lat="45.52738" lon="4.07657">
        <ele>619.5</ele>
        <time>2014-04-27T10:42:15Z</time>
      </trkpt>
      <trkpt lat="45.5275" lon="4.07681">
        <ele>618</ele>
        <time>2014-04-27T10:42:18Z</time>
      </trkpt>
      <trkpt lat="45.52763" lon="4.07704">
        <ele>616.5</ele>
        <time>2014-04-27T10:42:20Z</time>
      </trkpt>
      <trkpt lat="45.52778" lon="4.07726">
        <ele>615</ele>
        <time>2014-04-27T10:42:21Z</time>
      </trkpt>
      <trkpt lat="45.52794" lon="4.07745">
        <ele>614.5</ele>
        <time>2014-04-27T10:42:24Z</time>
      </trkpt>
      <trkpt lat="45.52811" lon="4.07761">
        <ele>613.5</ele>
        <time>2014-04-27T10:42:26Z</time>
      </trkpt>
      <trkpt lat="45.52829" lon="4.07776">
        <ele>613</ele>
        <time>2014-04-27T10:42:27Z</time>
      </trkpt>
      <trkpt lat="45.52847" lon="4.07788">
        <ele>612.5</ele>
        <time>2014-04-27T10:42:29Z</time>
      </trkpt>
      <trkpt lat="45.52865" lon="4.07797">
        <ele>612.5</ele>
        <time>2014-04-27T10:42:32Z</time>
      </trkpt>
      <trkpt lat="45.52884" lon="4.07805">
        <ele>612</ele>
        <time>2014-04-27T10:42:33Z</time>
      </trkpt>
      <trkpt lat="45.52902" lon="4.07811">
        <ele>611.5</ele>
        <time>2014-04-27T10:42:35Z</time>
      </trkpt>
      <trkpt lat="45.5292" lon="4.07816">
        <ele>611</ele>
        <time>2014-04-27T10:42:38Z</time>
      </trkpt>
      <trkpt lat="45.52939" lon="4.07821">
        <ele>610.5</ele>
        <time>2014-04-27T10:42:40Z</time>
      </trkpt>
      <trkpt lat="45.52957" lon="4.07825">
        <ele>609.5</ele>
        <time>2014-04-27T10:42:41Z</time>
      </trkpt>
      <trkpt lat="45.52975" lon="4.0783">
        <ele>609</ele>
        <time>2014-04-27T10:42:44Z</time>
      </trkpt>
      <trkpt lat="45.52993" lon="4.07835">
        <ele>608</ele>
        <time>2014-04-27T10:42:46Z</time>
      </trkpt>
      <trkpt lat="45.53011" lon="4.07839">
        <ele>607.5</ele>
        <time>2014-04-27T10:42:47Z</time>
      </trkpt>
      <trkpt lat="45.5303" lon="4.07844">
        <ele>606.5</ele>
        <time>2014-04-27T10:42:50Z</time>
      </trkpt>
      <trkpt lat="45.53049" lon="4.07849">
        <ele>605.5</ele>
        <time>2014-04-27T10:42:52Z</time>
      </trkpt>
      <trkpt lat="45.53068" lon="4.07854">
        <ele>605</ele>
        <time>2014-04-27T10:42:53Z</time>
      </trkpt>
      <trkpt lat="45.53087" lon="4.07859">
        <ele>604.5</ele>
        <time>2014-04-27T10:42:56Z</time>
      </trkpt>
      <trkpt lat="45.53105" lon="4.07863">
        <ele>603.5</ele>
        <time>2014-04-27T10:42:58Z</time>
      </trkpt>
      <trkpt lat="45.53123" lon="4.07868">
        <ele>603</ele>
        <time>2014-04-27T10:42:59Z</time>
      </trkpt>
      <trkpt lat="45.53141" lon="4.07873">
        <ele>602.5</ele>
        <time>2014-04-27T10:43:01Z</time>
      </trkpt>
      <trkpt lat="45.53159" lon="4.07877">
        <ele>601.5</ele>
        <time>2014-04-27T10:43:04Z</time>
      </trkpt>
      <trkpt lat="45.53176" lon="4.07883">
        <ele>601</ele>
        <time>2014-04-27T10:43:05Z</time>
      </trkpt>
      <trkpt lat="45.53193" lon="4.07889">
        <ele>600</ele>
        <time>2014-04-27T10:43:07Z</time>
      </trkpt>
      <trkpt lat="45.53209" lon="4.07898">
        <ele>599</ele>
        <time>2014-04-27T10:43:10Z</time>
      </trkpt>
      <trkpt lat="45.53225" lon="4.07909">
        <ele>598.5</ele>
        <time>2014-04-27T10:43:12Z</time>
      </trkpt>
      <trkpt lat="45.53239" lon="4.07922">
        <ele>598.5</ele>
        <time>2014-04-27T10:43:13Z</time>
      </trkpt>
      <trkpt lat="45.53252" lon="4.07937">
        <ele>597.5</ele>
        <time>2014-04-27T10:43:16Z</time>
      </trkpt>
      <trkpt lat="45.53263" lon="4.07953">
        <ele>597</ele>
        <time>2014-04-27T10:43:18Z</time>
      </trkpt>
      <trkpt lat="45.53273" lon="4.0797">
        <ele>596</ele>
        <time>2014-04-27T10:43:19Z</time>
      </trkpt>
      <trkpt lat="45.53282" lon="4.0799">
        <ele>596</ele>
        <time>2014-04-27T10:43:22Z</time>
      </trkpt>
      <trkpt lat="45.53291" lon="4.0801">
        <ele>595</ele>
        <time>2014-04-27T10:43:24Z</time>
      </trkpt>
      <trkpt lat="45.533" lon="4.08029">
        <ele>594</ele>
        <time>2014-04-27T10:43:25Z</time>
      </trkpt>
      <trkpt lat="45.53309" lon="4.08049">
        <ele>593.5</ele>
        <time>2014-04-27T10:43:28Z</time>
      </trkpt>
      <trkpt lat="45.53317" lon="4.08069">
        <ele>593</ele>
        <time>2014-04-27T10:43:30Z</time>
      </trkpt>
      <trkpt lat="45.53326" lon="4.08089">
        <ele>592.5</ele>
        <time>2014-04-27T10:43:31Z</time>
      </trkpt>
      <trkpt lat="45.53333" lon="4.0811">
        <ele>592</ele>
        <time>2014-04-27T10:43:33Z</time>
      </trkpt>
      <trkpt lat="45.5334" lon="4.08132">
        <ele>591.5</ele>
        <time>2014-04-27T10:43:36Z</time>
      </trkpt>
      <trkpt lat="45.53347" lon="4.08154">
        <ele>591</ele>
        <time>2014-04-27T10:43:37Z</time>
      </trkpt>
      <trkpt lat="45.53352" lon="4.08176">
        <ele>590</ele>
        <time>2014-04-27T10:43:39Z</time>
      </trkpt>
      <trkpt lat="45.53363" lon="4.0819">
        <ele>589.3</ele>
        <time>2014-04-27T10:43:42Z</time>
      </trkpt>
      <trkpt lat="45.5338" lon="4.08184">
        <ele>588.5</ele>
        <time>2014-04-27T10:43:44Z</time>
      </trkpt>
      <trkpt lat="45.53395" lon="4.08176">
        <ele>589</ele>
        <time>2014-04-27T10:43:47Z</time>
      </trkpt>
      <trkpt lat="45.53408" lon="4.08166">
        <ele>589</ele>
        <time>2014-04-27T10:43:49Z</time>
      </trkpt>
      <trkpt lat="45.53419" lon="4.08156">
        <ele>589</ele>
        <time>2014-04-27T10:43:50Z</time>
      </trkpt>
      <trkpt lat="45.53432" lon="4.08144">
        <ele>589.3</ele>
        <time>2014-04-27T10:43:53Z</time>
      </trkpt>
      <trkpt lat="45.53445" lon="4.08132">
        <ele>589.5</ele>
        <time>2014-04-27T10:43:56Z</time>
      </trkpt>
      <trkpt lat="45.53459" lon="4.0812">
        <ele>589.8</ele>
        <time>2014-04-27T10:43:59Z</time>
      </trkpt>
      <trkpt lat="45.53472" lon="4.08108">
        <ele>590</ele>
        <time>2014-04-27T10:44:02Z</time>
      </trkpt>
      <trkpt lat="45.53482" lon="4.08095">
        <ele>589.8</ele>
        <time>2014-04-27T10:44:05Z</time>
      </trkpt>
      <trkpt lat="45.53491" lon="4.08083">
        <ele>590</ele>
        <time>2014-04-27T10:44:08Z</time>
      </trkpt>
      <trkpt lat="45.535" lon="4.08072">
        <ele>590</ele>
        <time>2014-04-27T10:44:11Z</time>
      </trkpt>
      <trkpt lat="45.5351" lon="4.08059">
        <ele>590.8</ele>
        <time>2014-04-27T10:44:15Z</time>
      </trkpt>
      <trkpt lat="45.53521" lon="4.08047">
        <ele>591</ele>
        <time>2014-04-27T10:44:19Z</time>
      </trkpt>
      <trkpt lat="45.53533" lon="4.08037">
        <ele>592</ele>
        <time>2014-04-27T10:44:23Z</time>
      </trkpt>
      <trkpt lat="45.53548" lon="4.08029">
        <ele>593.2</ele>
        <time>2014-04-27T10:44:30Z</time>
      </trkpt>
      <trkpt lat="45.53561" lon="4.0802">
        <ele>593.6</ele>
        <time>2014-04-27T10:44:35Z</time>
      </trkpt>
      <trkpt lat="45.53575" lon="4.08011">
        <ele>594.8</ele>
        <time>2014-04-27T10:44:42Z</time>
      </trkpt>
      <trkpt lat="45.53586" lon="4.08">
        <ele>595.5</ele>
        <time>2014-04-27T10:44:49Z</time>
      </trkpt>
      <trkpt lat="45.5359" lon="4.07983">
        <ele>596.5</ele>
        <time>2014-04-27T10:44:55Z</time>
      </trkpt>
      <trkpt lat="45.53591" lon="4.07967">
        <ele>597.7</ele>
        <time>2014-04-27T10:44:59Z</time>
      </trkpt>
      <trkpt lat="45.53594" lon="4.07951">
        <ele>598.5</ele>
        <time>2014-04-27T10:45:04Z</time>
      </trkpt>
      <trkpt lat="45.536" lon="4.07935">
        <ele>599.2</ele>
        <time>2014-04-27T10:45:07Z</time>
      </trkpt>
      <trkpt lat="45.53607" lon="4.07919">
        <ele>599.8</ele>
        <time>2014-04-27T10:45:12Z</time>
      </trkpt>
      <trkpt lat="45.53614" lon="4.07905">
        <ele>600.8</ele>
        <time>2014-04-27T10:45:16Z</time>
      </trkpt>
      <trkpt lat="45.53625" lon="4.07893">
        <ele>601</ele>
        <time>2014-04-27T10:45:22Z</time>
      </trkpt>
      <trkpt lat="45.53638" lon="4.07884">
        <ele>601.5</ele>
        <time>2014-04-27T10:45:27Z</time>
      </trkpt>
      <trkpt lat="45.53652" lon="4.07877">
        <ele>601.7</ele>
        <time>2014-04-27T10:45:34Z</time>
      </trkpt>
      <trkpt lat="45.53666" lon="4.07869">
        <ele>602.5</ele>
        <time>2014-04-27T10:45:39Z</time>
      </trkpt>
      <trkpt lat="45.53678" lon="4.07859">
        <ele>603.4</ele>
        <time>2014-04-27T10:45:45Z</time>
      </trkpt>
      <trkpt lat="45.5369" lon="4.0785">
        <ele>604</ele>
        <time>2014-04-27T10:45:50Z</time>
      </trkpt>
      <trkpt lat="45.53704" lon="4.07841">
        <ele>604.5</ele>
        <time>2014-04-27T10:45:55Z</time>
      </trkpt>
      <trkpt lat="45.53717" lon="4.07831">
        <ele>604.5</ele>
        <time>2014-04-27T10:46:00Z</time>
      </trkpt>
      <trkpt lat="45.53725" lon="4.07819">
        <ele>604.5</ele>
        <time>2014-04-27T10:46:03Z</time>
      </trkpt>
      <trkpt lat="45.5373" lon="4.07802">
        <ele>603.8</ele>
        <time>2014-04-27T10:46:06Z</time>
      </trkpt>
      <trkpt lat="45.53735" lon="4.07781">
        <ele>603</ele>
        <time>2014-04-27T10:46:09Z</time>
      </trkpt>
      <trkpt lat="45.53739" lon="4.07763">
        <ele>603</ele>
        <time>2014-04-27T10:46:10Z</time>
      </trkpt>
      <trkpt lat="45.53745" lon="4.07745">
        <ele>602</ele>
        <time>2014-04-27T10:46:12Z</time>
      </trkpt>
      <trkpt lat="45.5375" lon="4.07729">
        <ele>602</ele>
        <time>2014-04-27T10:46:15Z</time>
      </trkpt>
      <trkpt lat="45.53758" lon="4.07715">
        <ele>601</ele>
        <time>2014-04-27T10:46:16Z</time>
      </trkpt>
      <trkpt lat="45.53767" lon="4.07703">
        <ele>601</ele>
        <time>2014-04-27T10:46:18Z</time>
      </trkpt>
      <trkpt lat="45.53779" lon="4.07694">
        <ele>600.5</ele>
        <time>2014-04-27T10:46:21Z</time>
      </trkpt>
      <trkpt lat="45.53792" lon="4.07681">
        <ele>599.5</ele>
        <time>2014-04-27T10:46:23Z</time>
      </trkpt>
      <trkpt lat="45.53803" lon="4.07665">
        <ele>598.5</ele>
        <time>2014-04-27T10:46:24Z</time>
      </trkpt>
      <trkpt lat="45.53814" lon="4.0765">
        <ele>599</ele>
        <time>2014-04-27T10:46:27Z</time>
      </trkpt>
      <trkpt lat="45.53828" lon="4.07639">
        <ele>598.3</ele>
        <time>2014-04-27T10:46:29Z</time>
      </trkpt>
      <trkpt lat="45.53845" lon="4.07638">
        <ele>598</ele>
        <time>2014-04-27T10:46:32Z</time>
      </trkpt>
      <trkpt lat="45.5386" lon="4.07644">
        <ele>597.5</ele>
        <time>2014-04-27T10:46:35Z</time>
      </trkpt>
      <trkpt lat="45.53875" lon="4.07651">
        <ele>596.5</ele>
        <time>2014-04-27T10:46:38Z</time>
      </trkpt>
      <trkpt lat="45.53891" lon="4.07655">
        <ele>595.8</ele>
        <time>2014-04-27T10:46:41Z</time>
      </trkpt>
      <trkpt lat="45.53907" lon="4.07659">
        <ele>595</ele>
        <time>2014-04-27T10:46:45Z</time>
      </trkpt>
      <trkpt lat="45.53919" lon="4.07665">
        <ele>594.2</ele>
        <time>2014-04-27T10:46:48Z</time>
      </trkpt>
      <trkpt lat="45.53927" lon="4.0768">
        <ele>592.8</ele>
        <time>2014-04-27T10:46:52Z</time>
      </trkpt>
      <trkpt lat="45.53933" lon="4.07699">
        <ele>590.3</ele>
        <time>2014-04-27T10:46:55Z</time>
      </trkpt>
      <trkpt lat="45.53938" lon="4.07717">
        <ele>589.5</ele>
        <time>2014-04-27T10:46:58Z</time>
      </trkpt>
      <trkpt lat="45.53943" lon="4.07732">
        <ele>588.5</ele>
        <time>2014-04-27T10:47:00Z</time>
      </trkpt>
      <trkpt lat="45.53949" lon="4.07746">
        <ele>587.5</ele>
        <time>2014-04-27T10:47:01Z</time>
      </trkpt>
      <trkpt lat="45.53958" lon="4.07761">
        <ele>587.3</ele>
        <time>2014-04-27T10:47:03Z</time>
      </trkpt>
      <trkpt lat="45.5397" lon="4.07777">
        <ele>586.5</ele>
        <time>2014-04-27T10:47:07Z</time>
      </trkpt>
      <trkpt lat="45.53982" lon="4.07795">
        <ele>586.5</ele>
        <time>2014-04-27T10:47:11Z</time>
      </trkpt>
      <trkpt lat="45.5399" lon="4.07808">
        <ele>586.5</ele>
        <time>2014-04-27T10:47:13Z</time>
      </trkpt>
      <trkpt lat="45.54" lon="4.07825">
        <ele>586.5</ele>
        <time>2014-04-27T10:47:16Z</time>
      </trkpt>
      <trkpt lat="45.54009" lon="4.07843">
        <ele>585</ele>
        <time>2014-04-27T10:47:19Z</time>
      </trkpt>
      <trkpt lat="45.54015" lon="4.07862">
        <ele>583</ele>
        <time>2014-04-27T10:47:21Z</time>
      </trkpt>
      <trkpt lat="45.54025" lon="4.07877">
        <ele>581.5</ele>
        <time>2014-04-27T10:47:24Z</time>
      </trkpt>
      <trkpt lat="45.54042" lon="4.07882">
        <ele>580</ele>
        <time>2014-04-27T10:47:26Z</time>
      </trkpt>
      <trkpt lat="45.54057" lon="4.07885">
        <ele>579</ele>
        <time>2014-04-27T10:47:28Z</time>
      </trkpt>
      <trkpt lat="45.54073" lon="4.07886">
        <ele>578</ele>
        <time>2014-04-27T10:47:31Z</time>
      </trkpt>
      <trkpt lat="45.5409" lon="4.07888">
        <ele>576.5</ele>
        <time>2014-04-27T10:47:33Z</time>
      </trkpt>
      <trkpt lat="45.54105" lon="4.07888">
        <ele>575</ele>
        <time>2014-04-27T10:47:34Z</time>
      </trkpt>
      <trkpt lat="45.54121" lon="4.0789">
        <ele>573</ele>
        <time>2014-04-27T10:47:37Z</time>
      </trkpt>
      <trkpt lat="45.54135" lon="4.07901">
        <ele>571.5</ele>
        <time>2014-04-27T10:47:39Z</time>
      </trkpt>
      <trkpt lat="45.5415" lon="4.07919">
        <ele>569.5</ele>
        <time>2014-04-27T10:47:40Z</time>
      </trkpt>
      <trkpt lat="45.54165" lon="4.0794">
        <ele>568.5</ele>
        <time>2014-04-27T10:47:43Z</time>
      </trkpt>
      <trkpt lat="45.54181" lon="4.07961">
        <ele>568.5</ele>
        <time>2014-04-27T10:47:45Z</time>
      </trkpt>
      <trkpt lat="45.54195" lon="4.07982">
        <ele>569</ele>
        <time>2014-04-27T10:47:46Z</time>
      </trkpt>
      <trkpt lat="45.54207" lon="4.08004">
        <ele>570</ele>
        <time>2014-04-27T10:47:49Z</time>
      </trkpt>
      <trkpt lat="45.5421" lon="4.08024">
        <ele>570.5</ele>
        <time>2014-04-27T10:47:51Z</time>
      </trkpt>
      <trkpt lat="45.54213" lon="4.08043">
        <ele>570</ele>
        <time>2014-04-27T10:47:53Z</time>
      </trkpt>
      <trkpt lat="45.54217" lon="4.0806">
        <ele>570.1</ele>
        <time>2014-04-27T10:47:57Z</time>
      </trkpt>
      <trkpt lat="45.54225" lon="4.08071">
        <ele>570.2</ele>
        <time>2014-04-27T10:48:02Z</time>
      </trkpt>
      <trkpt lat="45.5423" lon="4.08087">
        <ele>569.8</ele>
        <time>2014-04-27T10:48:04Z</time>
      </trkpt>
      <trkpt lat="45.54235" lon="4.08104">
        <ele>568.8</ele>
        <time>2014-04-27T10:48:08Z</time>
      </trkpt>
      <trkpt lat="45.54237" lon="4.08122">
        <ele>567.5</ele>
        <time>2014-04-27T10:48:11Z</time>
      </trkpt>
      <trkpt lat="45.54237" lon="4.08139">
        <ele>566</ele>
        <time>2014-04-27T10:48:12Z</time>
      </trkpt>
      <trkpt lat="45.54245" lon="4.08154">
        <ele>566</ele>
        <time>2014-04-27T10:48:15Z</time>
      </trkpt>
      <trkpt lat="45.54262" lon="4.08155">
        <ele>566</ele>
        <time>2014-04-27T10:48:18Z</time>
      </trkpt>
      <trkpt lat="45.54277" lon="4.08153">
        <ele>565.8</ele>
        <time>2014-04-27T10:48:21Z</time>
      </trkpt>
      <trkpt lat="45.54292" lon="4.0815">
        <ele>565.2</ele>
        <time>2014-04-27T10:48:24Z</time>
      </trkpt>
      <trkpt lat="45.54308" lon="4.08147">
        <ele>565</ele>
        <time>2014-04-27T10:48:30Z</time>
      </trkpt>
      <trkpt lat="45.54322" lon="4.08141">
        <ele>565</ele>
        <time>2014-04-27T10:48:35Z</time>
      </trkpt>
      <trkpt lat="45.54338" lon="4.08137">
        <ele>565</ele>
        <time>2014-04-27T10:48:40Z</time>
      </trkpt>
      <trkpt lat="45.54355" lon="4.08143">
        <ele>564.3</ele>
        <time>2014-04-27T10:48:46Z</time>
      </trkpt>
      <trkpt lat="45.5437" lon="4.08153">
        <ele>564</ele>
        <time>2014-04-27T10:48:49Z</time>
      </trkpt>
      <trkpt lat="45.54388" lon="4.08155">
        <ele>564.3</ele>
        <time>2014-04-27T10:48:52Z</time>
      </trkpt>
      <trkpt lat="45.54407" lon="4.08152">
        <ele>563.8</ele>
        <time>2014-04-27T10:48:55Z</time>
      </trkpt>
      <trkpt lat="45.54428" lon="4.08151">
        <ele>563.3</ele>
        <time>2014-04-27T10:48:58Z</time>
      </trkpt>
      <trkpt lat="45.54446" lon="4.0815">
        <ele>562</ele>
        <time>2014-04-27T10:49:01Z</time>
      </trkpt>
      <trkpt lat="45.5446" lon="4.0815">
        <ele>561.5</ele>
        <time>2014-04-27T10:49:02Z</time>
      </trkpt>
      <trkpt lat="45.54474" lon="4.08156">
        <ele>559.5</ele>
        <time>2014-04-27T10:49:04Z</time>
      </trkpt>
      <trkpt lat="45.54487" lon="4.08168">
        <ele>558.5</ele>
        <time>2014-04-27T10:49:07Z</time>
      </trkpt>
      <trkpt lat="45.54501" lon="4.0818">
        <ele>556.5</ele>
        <time>2014-04-27T10:49:08Z</time>
      </trkpt>
      <trkpt lat="45.54516" lon="4.08194">
        <ele>555.5</ele>
        <time>2014-04-27T10:49:10Z</time>
      </trkpt>
      <trkpt lat="45.54531" lon="4.08208">
        <ele>554</ele>
        <time>2014-04-27T10:49:13Z</time>
      </trkpt>
      <trkpt lat="45.54545" lon="4.08222">
        <ele>552.5</ele>
        <time>2014-04-27T10:49:15Z</time>
      </trkpt>
      <trkpt lat="45.54552" lon="4.0824">
        <ele>550.5</ele>
        <time>2014-04-27T10:49:16Z</time>
      </trkpt>
      <trkpt lat="45.54556" lon="4.08259">
        <ele>550</ele>
        <time>2014-04-27T10:49:19Z</time>
      </trkpt>
      <trkpt lat="45.54561" lon="4.08279">
        <ele>548.5</ele>
        <time>2014-04-27T10:49:21Z</time>
      </trkpt>
      <trkpt lat="45.54567" lon="4.083">
        <ele>546.5</ele>
        <time>2014-04-27T10:49:22Z</time>
      </trkpt>
      <trkpt lat="45.54573" lon="4.08322">
        <ele>545.5</ele>
        <time>2014-04-27T10:49:25Z</time>
      </trkpt>
      <trkpt lat="45.54578" lon="4.08343">
        <ele>544</ele>
        <time>2014-04-27T10:49:27Z</time>
      </trkpt>
      <trkpt lat="45.54583" lon="4.08365">
        <ele>543</ele>
        <time>2014-04-27T10:49:28Z</time>
      </trkpt>
      <trkpt lat="45.54586" lon="4.08389">
        <ele>542.5</ele>
        <time>2014-04-27T10:49:31Z</time>
      </trkpt>
      <trkpt lat="45.54589" lon="4.08413">
        <ele>541</ele>
        <time>2014-04-27T10:49:33Z</time>
      </trkpt>
      <trkpt lat="45.54594" lon="4.08437">
        <ele>540</ele>
        <time>2014-04-27T10:49:34Z</time>
      </trkpt>
      <trkpt lat="45.54599" lon="4.0846">
        <ele>539.5</ele>
        <time>2014-04-27T10:49:36Z</time>
      </trkpt>
      <trkpt lat="45.54604" lon="4.08481">
        <ele>539</ele>
        <time>2014-04-27T10:49:39Z</time>
      </trkpt>
      <trkpt lat="45.54609" lon="4.08501">
        <ele>537.5</ele>
        <time>2014-04-27T10:49:40Z</time>
      </trkpt>
      <trkpt lat="45.54615" lon="4.0852">
        <ele>537</ele>
        <time>2014-04-27T10:49:42Z</time>
      </trkpt>
      <trkpt lat="45.54621" lon="4.08539">
        <ele>536</ele>
        <time>2014-04-27T10:49:45Z</time>
      </trkpt>
      <trkpt lat="45.54628" lon="4.08557">
        <ele>535</ele>
        <time>2014-04-27T10:49:46Z</time>
      </trkpt>
      <trkpt lat="45.54634" lon="4.08578">
        <ele>533.5</ele>
        <time>2014-04-27T10:49:48Z</time>
      </trkpt>
      <trkpt lat="45.5464" lon="4.086">
        <ele>532</ele>
        <time>2014-04-27T10:49:51Z</time>
      </trkpt>
      <trkpt lat="45.54647" lon="4.0862">
        <ele>530.5</ele>
        <time>2014-04-27T10:49:53Z</time>
      </trkpt>
      <trkpt lat="45.54653" lon="4.08638">
        <ele>529</ele>
        <time>2014-04-27T10:49:54Z</time>
      </trkpt>
      <trkpt lat="45.5466" lon="4.08654">
        <ele>527.3</ele>
        <time>2014-04-27T10:49:57Z</time>
      </trkpt>
      <trkpt lat="45.54671" lon="4.08662">
        <ele>525.5</ele>
        <time>2014-04-27T10:50:02Z</time>
      </trkpt>
      <trkpt lat="45.54677" lon="4.08656">
        <ele>521.5</ele>
        <time>2014-04-27T10:52:13Z</time>
      </trkpt>
    </trkseg>
  </trk>
</gpx>